<?xml version='1.0' encoding='UTF-8'?>
<gpx version="1.1" creator="https://www.komoot.de" xmlns="http://www.topografix.com/GPX/1/1" xmlns:xsi="http://www.w3.org/2001/XMLSchema-instance" xsi:schemaLocation="http://www.topografix.com/GPX/1/1 http://www.topografix.com/GPX/1/1/gpx.xsd">
  <metadata>
    <name>78_980Rothberg</name>
    <author>
      <link href="https://www.komoot.de">
        <text>komoot</text>
        <type>text/html</type>
      </link>
    </author>
  </metadata>
  <trk>
    <name>78_980Rothberg</name>
    <trkseg>
      <trkpt lat="47.541953" lon="7.871286">
        <ele>343.112555</ele>
        <time>2021-11-21T16:10:01.323Z</time>
      </trkpt>
      <trkpt lat="47.541953" lon="7.871286">
        <ele>343.112555</ele>
        <time>2021-11-21T16:10:01.337Z</time>
      </trkpt>
      <trkpt lat="47.542039" lon="7.871556">
        <ele>343.112555</ele>
        <time>2021-11-21T16:10:06.075Z</time>
      </trkpt>
      <trkpt lat="47.542067" lon="7.871664">
        <ele>343.112555</ele>
        <time>2021-11-21T16:10:07.869Z</time>
      </trkpt>
      <trkpt lat="47.542091" lon="7.871721">
        <ele>343.112555</ele>
        <time>2021-11-21T16:10:08.537Z</time>
      </trkpt>
      <trkpt lat="47.542218" lon="7.871866">
        <ele>343.112555</ele>
        <time>2021-11-21T16:10:14.000Z</time>
      </trkpt>
      <trkpt lat="47.542394" lon="7.872341">
        <ele>343.112555</ele>
        <time>2021-11-21T16:10:24.729Z</time>
      </trkpt>
      <trkpt lat="47.542436" lon="7.872494">
        <ele>343.447645</ele>
        <time>2021-11-21T16:10:28.264Z</time>
      </trkpt>
      <trkpt lat="47.542537" lon="7.872430">
        <ele>344.029441</ele>
        <time>2021-11-21T16:10:30.522Z</time>
      </trkpt>
      <trkpt lat="47.542662" lon="7.872362">
        <ele>344.734690</ele>
        <time>2021-11-21T16:10:35.887Z</time>
      </trkpt>
      <trkpt lat="47.542714" lon="7.872334">
        <ele>345.027720</ele>
        <time>2021-11-21T16:10:37.610Z</time>
      </trkpt>
      <trkpt lat="47.542814" lon="7.872280">
        <ele>345.591428</ele>
        <time>2021-11-21T16:10:40.703Z</time>
      </trkpt>
      <trkpt lat="47.542919" lon="7.872226">
        <ele>346.180085</ele>
        <time>2021-11-21T16:10:44.612Z</time>
      </trkpt>
      <trkpt lat="47.543013" lon="7.872182">
        <ele>346.702187</ele>
        <time>2021-11-21T16:10:48.128Z</time>
      </trkpt>
      <trkpt lat="47.543233" lon="7.872082">
        <ele>347.920961</ele>
        <time>2021-11-21T16:10:55.352Z</time>
      </trkpt>
      <trkpt lat="47.543251" lon="7.872152">
        <ele>348.188760</ele>
        <time>2021-11-21T16:10:58.734Z</time>
      </trkpt>
      <trkpt lat="47.543332" lon="7.872237">
        <ele>348.714477</ele>
        <time>2021-11-21T16:11:02.038Z</time>
      </trkpt>
      <trkpt lat="47.544390" lon="7.872423">
        <ele>354.864898</ele>
        <time>2021-11-21T16:11:43.748Z</time>
      </trkpt>
      <trkpt lat="47.544883" lon="7.872555">
        <ele>358.302089</ele>
        <time>2021-11-21T16:12:06.157Z</time>
      </trkpt>
      <trkpt lat="47.545131" lon="7.872664">
        <ele>360.076878</ele>
        <time>2021-11-21T16:12:17.161Z</time>
      </trkpt>
      <trkpt lat="47.545375" lon="7.872836">
        <ele>361.930770</ele>
        <time>2021-11-21T16:12:28.102Z</time>
      </trkpt>
      <trkpt lat="47.545478" lon="7.872968">
        <ele>362.865153</ele>
        <time>2021-11-21T16:12:34.909Z</time>
      </trkpt>
      <trkpt lat="47.545515" lon="7.873015">
        <ele>363.199543</ele>
        <time>2021-11-21T16:12:36.866Z</time>
      </trkpt>
      <trkpt lat="47.545746" lon="7.873302">
        <ele>365.214847</ele>
        <time>2021-11-21T16:12:50.065Z</time>
      </trkpt>
      <trkpt lat="47.545934" lon="7.873549">
        <ele>366.622324</ele>
        <time>2021-11-21T16:13:00.165Z</time>
      </trkpt>
      <trkpt lat="47.546077" lon="7.873763">
        <ele>367.760834</ele>
        <time>2021-11-21T16:13:09.362Z</time>
      </trkpt>
      <trkpt lat="47.546135" lon="7.873859">
        <ele>368.247949</ele>
        <time>2021-11-21T16:13:12.601Z</time>
      </trkpt>
      <trkpt lat="47.546309" lon="7.874154">
        <ele>369.729119</ele>
        <time>2021-11-21T16:13:23.715Z</time>
      </trkpt>
      <trkpt lat="47.547126" lon="7.875801">
        <ele>375.883508</ele>
        <time>2021-11-21T16:14:09.477Z</time>
      </trkpt>
      <trkpt lat="47.547574" lon="7.876801">
        <ele>377.450887</ele>
        <time>2021-11-21T16:14:28.472Z</time>
      </trkpt>
      <trkpt lat="47.547992" lon="7.877974">
        <ele>377.601118</ele>
        <time>2021-11-21T16:14:41.273Z</time>
      </trkpt>
      <trkpt lat="47.548234" lon="7.878638">
        <ele>376.187642</ele>
        <time>2021-11-21T16:14:46.585Z</time>
      </trkpt>
      <trkpt lat="47.548422" lon="7.878959">
        <ele>375.391582</ele>
        <time>2021-11-21T16:14:49.428Z</time>
      </trkpt>
      <trkpt lat="47.548718" lon="7.879258">
        <ele>374.397395</ele>
        <time>2021-11-21T16:14:52.966Z</time>
      </trkpt>
      <trkpt lat="47.549140" lon="7.879391">
        <ele>373.028057</ele>
        <time>2021-11-21T16:14:57.153Z</time>
      </trkpt>
      <trkpt lat="47.549318" lon="7.879398">
        <ele>372.285134</ele>
        <time>2021-11-21T16:14:58.780Z</time>
      </trkpt>
      <trkpt lat="47.549327" lon="7.879547">
        <ele>371.863861</ele>
        <time>2021-11-21T16:14:59.766Z</time>
      </trkpt>
      <trkpt lat="47.549726" lon="7.880786">
        <ele>367.997953</ele>
        <time>2021-11-21T16:15:08.701Z</time>
      </trkpt>
      <trkpt lat="47.549927" lon="7.881490">
        <ele>365.873622</ele>
        <time>2021-11-21T16:15:13.733Z</time>
      </trkpt>
      <trkpt lat="47.550234" lon="7.883221">
        <ele>361.574981</ele>
        <time>2021-11-21T16:15:26.133Z</time>
      </trkpt>
      <trkpt lat="47.550332" lon="7.884727">
        <ele>357.260625</ele>
        <time>2021-11-21T16:15:35.978Z</time>
      </trkpt>
      <trkpt lat="47.550391" lon="7.885109">
        <ele>355.941750</ele>
        <time>2021-11-21T16:15:38.510Z</time>
      </trkpt>
      <trkpt lat="47.550548" lon="7.885799">
        <ele>353.491110</ele>
        <time>2021-11-21T16:15:43.115Z</time>
      </trkpt>
      <trkpt lat="47.550677" lon="7.886476">
        <ele>351.123579</ele>
        <time>2021-11-21T16:15:47.545Z</time>
      </trkpt>
      <trkpt lat="47.550758" lon="7.887295">
        <ele>347.843078</ele>
        <time>2021-11-21T16:15:52.687Z</time>
      </trkpt>
      <trkpt lat="47.550789" lon="7.887816">
        <ele>345.709168</ele>
        <time>2021-11-21T16:15:55.919Z</time>
      </trkpt>
      <trkpt lat="47.550831" lon="7.888611">
        <ele>342.455670</ele>
        <time>2021-11-21T16:16:00.875Z</time>
      </trkpt>
      <trkpt lat="47.550833" lon="7.889069">
        <ele>340.587005</ele>
        <time>2021-11-21T16:16:03.685Z</time>
      </trkpt>
      <trkpt lat="47.550915" lon="7.890600">
        <ele>334.508796</ele>
        <time>2021-11-21T16:16:13.078Z</time>
      </trkpt>
      <trkpt lat="47.550904" lon="7.891725">
        <ele>330.075876</ele>
        <time>2021-11-21T16:16:20.082Z</time>
      </trkpt>
      <trkpt lat="47.550892" lon="7.893176">
        <ele>327.163486</ele>
        <time>2021-11-21T16:16:29.694Z</time>
      </trkpt>
      <trkpt lat="47.550908" lon="7.894308">
        <ele>325.236884</ele>
        <time>2021-11-21T16:16:38.899Z</time>
      </trkpt>
      <trkpt lat="47.550878" lon="7.895158">
        <ele>324.208519</ele>
        <time>2021-11-21T16:16:46.084Z</time>
      </trkpt>
      <trkpt lat="47.550838" lon="7.895509">
        <ele>323.864342</ele>
        <time>2021-11-21T16:16:49.248Z</time>
      </trkpt>
      <trkpt lat="47.550660" lon="7.896255">
        <ele>323.099304</ele>
        <time>2021-11-21T16:16:55.736Z</time>
      </trkpt>
      <trkpt lat="47.550639" lon="7.896345">
        <ele>323.007231</ele>
        <time>2021-11-21T16:16:56.924Z</time>
      </trkpt>
      <trkpt lat="47.550648" lon="7.896481">
        <ele>322.875104</ele>
        <time>2021-11-21T16:16:57.879Z</time>
      </trkpt>
      <trkpt lat="47.550819" lon="7.898109">
        <ele>319.849497</ele>
        <time>2021-11-21T16:17:09.627Z</time>
      </trkpt>
      <trkpt lat="47.550801" lon="7.900244">
        <ele>314.423587</ele>
        <time>2021-11-21T16:17:23.464Z</time>
      </trkpt>
      <trkpt lat="47.550769" lon="7.901362">
        <ele>311.390351</ele>
        <time>2021-11-21T16:17:30.736Z</time>
      </trkpt>
      <trkpt lat="47.550757" lon="7.901591">
        <ele>310.767742</ele>
        <time>2021-11-21T16:17:32.872Z</time>
      </trkpt>
      <trkpt lat="47.550688" lon="7.902451">
        <ele>308.420163</ele>
        <time>2021-11-21T16:17:41.306Z</time>
      </trkpt>
      <trkpt lat="47.550498" lon="7.903445">
        <ele>305.768181</ele>
        <time>2021-11-21T16:17:51.556Z</time>
      </trkpt>
      <trkpt lat="47.550302" lon="7.904164">
        <ele>303.782876</ele>
        <time>2021-11-21T16:17:58.816Z</time>
      </trkpt>
      <trkpt lat="47.550025" lon="7.904774">
        <ele>301.900538</ele>
        <time>2021-11-21T16:18:05.741Z</time>
      </trkpt>
      <trkpt lat="47.549868" lon="7.905010">
        <ele>301.129278</ele>
        <time>2021-11-21T16:18:08.872Z</time>
      </trkpt>
      <trkpt lat="47.549867" lon="7.905155">
        <ele>300.826348</ele>
        <time>2021-11-21T16:18:10.269Z</time>
      </trkpt>
      <trkpt lat="47.550067" lon="7.905245">
        <ele>300.179396</ele>
        <time>2021-11-21T16:18:13.194Z</time>
      </trkpt>
      <trkpt lat="47.550283" lon="7.905413">
        <ele>299.424323</ele>
        <time>2021-11-21T16:18:16.644Z</time>
      </trkpt>
      <trkpt lat="47.550497" lon="7.905558">
        <ele>298.695983</ele>
        <time>2021-11-21T16:18:20.003Z</time>
      </trkpt>
      <trkpt lat="47.549539" lon="7.908625">
        <ele>293.167229</ele>
        <time>2021-11-21T16:18:44.444Z</time>
      </trkpt>
      <trkpt lat="47.549520" lon="7.908678">
        <ele>293.086837</ele>
        <time>2021-11-21T16:18:44.949Z</time>
      </trkpt>
      <trkpt lat="47.549314" lon="7.909360">
        <ele>292.186161</ele>
        <time>2021-11-21T16:18:51.031Z</time>
      </trkpt>
      <trkpt lat="47.549195" lon="7.909756">
        <ele>291.839809</ele>
        <time>2021-11-21T16:18:54.591Z</time>
      </trkpt>
      <trkpt lat="47.549102" lon="7.910058">
        <ele>291.574577</ele>
        <time>2021-11-21T16:18:57.287Z</time>
      </trkpt>
      <trkpt lat="47.549012" lon="7.910340">
        <ele>291.325335</ele>
        <time>2021-11-21T16:18:59.805Z</time>
      </trkpt>
      <trkpt lat="47.548412" lon="7.912168">
        <ele>289.838223</ele>
        <time>2021-11-21T16:19:16.134Z</time>
      </trkpt>
      <trkpt lat="47.548027" lon="7.913334">
        <ele>289.083122</ele>
        <time>2021-11-21T16:19:26.895Z</time>
      </trkpt>
      <trkpt lat="47.547994" lon="7.913433">
        <ele>289.018891</ele>
        <time>2021-11-21T16:19:27.816Z</time>
      </trkpt>
      <trkpt lat="47.547423" lon="7.915080">
        <ele>288.704375</ele>
        <time>2021-11-21T16:19:45.292Z</time>
      </trkpt>
      <trkpt lat="47.547113" lon="7.915971">
        <ele>288.744807</ele>
        <time>2021-11-21T16:19:55.740Z</time>
      </trkpt>
      <trkpt lat="47.547091" lon="7.916039">
        <ele>288.747848</ele>
        <time>2021-11-21T16:19:56.764Z</time>
      </trkpt>
      <trkpt lat="47.547032" lon="7.916218">
        <ele>288.755883</ele>
        <time>2021-11-21T16:19:58.967Z</time>
      </trkpt>
      <trkpt lat="47.546821" lon="7.916867">
        <ele>288.956661</ele>
        <time>2021-11-21T16:20:07.076Z</time>
      </trkpt>
      <trkpt lat="47.546262" lon="7.919081">
        <ele>289.772986</ele>
        <time>2021-11-21T16:20:34.587Z</time>
      </trkpt>
      <trkpt lat="47.546128" lon="7.919617">
        <ele>289.958945</ele>
        <time>2021-11-21T16:20:40.056Z</time>
      </trkpt>
      <trkpt lat="47.545973" lon="7.920313">
        <ele>290.197388</ele>
        <time>2021-11-21T16:20:48.519Z</time>
      </trkpt>
      <trkpt lat="47.545913" lon="7.920765">
        <ele>290.347258</ele>
        <time>2021-11-21T16:20:52.692Z</time>
      </trkpt>
      <trkpt lat="47.545881" lon="7.921096">
        <ele>290.456045</ele>
        <time>2021-11-21T16:20:56.709Z</time>
      </trkpt>
      <trkpt lat="47.545810" lon="7.921755">
        <ele>291.094974</ele>
        <time>2021-11-21T16:21:05.617Z</time>
      </trkpt>
      <trkpt lat="47.545778" lon="7.921947">
        <ele>291.391135</ele>
        <time>2021-11-21T16:21:09.226Z</time>
      </trkpt>
      <trkpt lat="47.545714" lon="7.922249">
        <ele>291.865155</ele>
        <time>2021-11-21T16:21:12.425Z</time>
      </trkpt>
      <trkpt lat="47.545699" lon="7.922325">
        <ele>291.983733</ele>
        <time>2021-11-21T16:21:13.622Z</time>
      </trkpt>
      <trkpt lat="47.545690" lon="7.922369">
        <ele>292.052583</ele>
        <time>2021-11-21T16:21:15.721Z</time>
      </trkpt>
      <trkpt lat="47.545641" lon="7.922610">
        <ele>292.429506</ele>
        <time>2021-11-21T16:21:18.074Z</time>
      </trkpt>
      <trkpt lat="47.545587" lon="7.922895">
        <ele>292.872799</ele>
        <time>2021-11-21T16:21:23.871Z</time>
      </trkpt>
      <trkpt lat="47.545553" lon="7.923142">
        <ele>293.250303</ele>
        <time>2021-11-21T16:21:26.518Z</time>
      </trkpt>
      <trkpt lat="47.545536" lon="7.923407">
        <ele>293.648939</ele>
        <time>2021-11-21T16:21:32.407Z</time>
      </trkpt>
      <trkpt lat="47.545521" lon="7.923709">
        <ele>294.102418</ele>
        <time>2021-11-21T16:21:36.561Z</time>
      </trkpt>
      <trkpt lat="47.545481" lon="7.924396">
        <ele>295.526835</ele>
        <time>2021-11-21T16:21:51.164Z</time>
      </trkpt>
      <trkpt lat="47.545466" lon="7.924880">
        <ele>296.735398</ele>
        <time>2021-11-21T16:22:02.471Z</time>
      </trkpt>
      <trkpt lat="47.545446" lon="7.925350">
        <ele>297.910096</ele>
        <time>2021-11-21T16:22:12.846Z</time>
      </trkpt>
      <trkpt lat="47.545417" lon="7.925848">
        <ele>299.156924</ele>
        <time>2021-11-21T16:22:23.325Z</time>
      </trkpt>
      <trkpt lat="47.545409" lon="7.926773">
        <ele>301.243887</ele>
        <time>2021-11-21T16:22:40.526Z</time>
      </trkpt>
      <trkpt lat="47.545407" lon="7.927001">
        <ele>301.350231</ele>
        <time>2021-11-21T16:22:44.335Z</time>
      </trkpt>
      <trkpt lat="47.545406" lon="7.927306">
        <ele>301.492480</ele>
        <time>2021-11-21T16:22:48.939Z</time>
      </trkpt>
      <trkpt lat="47.545421" lon="7.927686">
        <ele>301.670009</ele>
        <time>2021-11-21T16:22:54.475Z</time>
      </trkpt>
      <trkpt lat="47.545475" lon="7.928419">
        <ele>302.013899</ele>
        <time>2021-11-21T16:23:03.792Z</time>
      </trkpt>
      <trkpt lat="47.545563" lon="7.929641">
        <ele>302.009231</ele>
        <time>2021-11-21T16:23:13.671Z</time>
      </trkpt>
      <trkpt lat="47.545661" lon="7.930955">
        <ele>300.268684</ele>
        <time>2021-11-21T16:23:23.067Z</time>
      </trkpt>
      <trkpt lat="47.545696" lon="7.931497">
        <ele>299.551827</ele>
        <time>2021-11-21T16:23:27.036Z</time>
      </trkpt>
      <trkpt lat="47.545721" lon="7.931992">
        <ele>298.923341</ele>
        <time>2021-11-21T16:23:30.829Z</time>
      </trkpt>
      <trkpt lat="47.545724" lon="7.932758">
        <ele>298.776030</ele>
        <time>2021-11-21T16:23:37.038Z</time>
      </trkpt>
      <trkpt lat="47.545702" lon="7.933290">
        <ele>298.673530</ele>
        <time>2021-11-21T16:23:41.681Z</time>
      </trkpt>
      <trkpt lat="47.545674" lon="7.933625">
        <ele>298.608615</ele>
        <time>2021-11-21T16:23:44.881Z</time>
      </trkpt>
      <trkpt lat="47.545457" lon="7.935110">
        <ele>298.914372</ele>
        <time>2021-11-21T16:24:03.016Z</time>
      </trkpt>
      <trkpt lat="47.545074" lon="7.936484">
        <ele>300.359176</ele>
        <time>2021-11-21T16:24:24.543Z</time>
      </trkpt>
      <trkpt lat="47.544903" lon="7.936917">
        <ele>300.846754</ele>
        <time>2021-11-21T16:24:31.860Z</time>
      </trkpt>
      <trkpt lat="47.544705" lon="7.937395">
        <ele>301.490154</ele>
        <time>2021-11-21T16:24:40.044Z</time>
      </trkpt>
      <trkpt lat="47.544472" lon="7.937932">
        <ele>302.268299</ele>
        <time>2021-11-21T16:24:49.451Z</time>
      </trkpt>
      <trkpt lat="47.543826" lon="7.939433">
        <ele>304.396995</ele>
        <time>2021-11-21T16:25:16.333Z</time>
      </trkpt>
      <trkpt lat="47.543435" lon="7.940670">
        <ele>305.691391</ele>
        <time>2021-11-21T16:25:36.293Z</time>
      </trkpt>
      <trkpt lat="47.543161" lon="7.942213">
        <ele>306.676964</ele>
        <time>2021-11-21T16:25:57.143Z</time>
      </trkpt>
      <trkpt lat="47.543007" lon="7.943867">
        <ele>306.300794</ele>
        <time>2021-11-21T16:26:12.687Z</time>
      </trkpt>
      <trkpt lat="47.542913" lon="7.945267">
        <ele>304.732851</ele>
        <time>2021-11-21T16:26:23.446Z</time>
      </trkpt>
      <trkpt lat="47.542872" lon="7.945781">
        <ele>303.864102</ele>
        <time>2021-11-21T16:26:27.043Z</time>
      </trkpt>
      <trkpt lat="47.542875" lon="7.946089">
        <ele>303.347072</ele>
        <time>2021-11-21T16:26:29.134Z</time>
      </trkpt>
      <trkpt lat="47.542902" lon="7.946514">
        <ele>302.630560</ele>
        <time>2021-11-21T16:26:32.013Z</time>
      </trkpt>
      <trkpt lat="47.542943" lon="7.946806">
        <ele>302.129950</ele>
        <time>2021-11-21T16:26:34.059Z</time>
      </trkpt>
      <trkpt lat="47.542974" lon="7.946965">
        <ele>301.852161</ele>
        <time>2021-11-21T16:26:35.270Z</time>
      </trkpt>
      <trkpt lat="47.542979" lon="7.946989">
        <ele>301.810002</ele>
        <time>2021-11-21T16:26:35.425Z</time>
      </trkpt>
      <trkpt lat="47.543007" lon="7.947104">
        <ele>301.643797</ele>
        <time>2021-11-21T16:26:36.274Z</time>
      </trkpt>
      <trkpt lat="47.543087" lon="7.947317">
        <ele>301.393242</ele>
        <time>2021-11-21T16:26:38.016Z</time>
      </trkpt>
      <trkpt lat="47.543191" lon="7.947615">
        <ele>301.048408</ele>
        <time>2021-11-21T16:26:40.458Z</time>
      </trkpt>
      <trkpt lat="47.543242" lon="7.947745">
        <ele>300.893851</ele>
        <time>2021-11-21T16:26:41.588Z</time>
      </trkpt>
      <trkpt lat="47.543273" lon="7.947816">
        <ele>300.806933</ele>
        <time>2021-11-21T16:26:42.215Z</time>
      </trkpt>
      <trkpt lat="47.543358" lon="7.947967">
        <ele>300.604832</ele>
        <time>2021-11-21T16:26:43.658Z</time>
      </trkpt>
      <trkpt lat="47.543455" lon="7.948127">
        <ele>300.383774</ele>
        <time>2021-11-21T16:26:45.325Z</time>
      </trkpt>
      <trkpt lat="47.543532" lon="7.948214">
        <ele>300.236311</ele>
        <time>2021-11-21T16:26:46.405Z</time>
      </trkpt>
      <trkpt lat="47.543579" lon="7.948287">
        <ele>300.132615</ele>
        <time>2021-11-21T16:26:47.169Z</time>
      </trkpt>
      <trkpt lat="47.543760" lon="7.948548">
        <ele>299.747983</ele>
        <time>2021-11-21T16:26:50.058Z</time>
      </trkpt>
      <trkpt lat="47.543864" lon="7.948694">
        <ele>299.529804</ele>
        <time>2021-11-21T16:26:51.729Z</time>
      </trkpt>
      <trkpt lat="47.544239" lon="7.949202">
        <ele>299.034639</ele>
        <time>2021-11-21T16:26:59.092Z</time>
      </trkpt>
      <trkpt lat="47.544521" lon="7.949558">
        <ele>299.217247</ele>
        <time>2021-11-21T16:27:05.265Z</time>
      </trkpt>
      <trkpt lat="47.544901" lon="7.950044">
        <ele>299.464674</ele>
        <time>2021-11-21T16:27:14.661Z</time>
      </trkpt>
      <trkpt lat="47.545166" lon="7.950366">
        <ele>299.633596</ele>
        <time>2021-11-21T16:27:21.210Z</time>
      </trkpt>
      <trkpt lat="47.545434" lon="7.950668">
        <ele>299.799553</ele>
        <time>2021-11-21T16:27:27.001Z</time>
      </trkpt>
      <trkpt lat="47.545542" lon="7.950842">
        <ele>299.842630</ele>
        <time>2021-11-21T16:27:29.427Z</time>
      </trkpt>
      <trkpt lat="47.545667" lon="7.950979">
        <ele>299.811087</ele>
        <time>2021-11-21T16:27:32.031Z</time>
      </trkpt>
      <trkpt lat="47.545737" lon="7.951055">
        <ele>299.793482</ele>
        <time>2021-11-21T16:27:33.286Z</time>
      </trkpt>
      <trkpt lat="47.545876" lon="7.951233">
        <ele>299.756211</ele>
        <time>2021-11-21T16:27:35.678Z</time>
      </trkpt>
      <trkpt lat="47.546112" lon="7.951485">
        <ele>299.697196</ele>
        <time>2021-11-21T16:27:40.221Z</time>
      </trkpt>
      <trkpt lat="47.546164" lon="7.951520">
        <ele>299.685610</ele>
        <time>2021-11-21T16:27:40.855Z</time>
      </trkpt>
      <trkpt lat="47.546212" lon="7.951535">
        <ele>299.675658</ele>
        <time>2021-11-21T16:27:41.620Z</time>
      </trkpt>
      <trkpt lat="47.546231" lon="7.951558">
        <ele>299.670681</ele>
        <time>2021-11-21T16:27:42.350Z</time>
      </trkpt>
      <trkpt lat="47.546421" lon="7.951793">
        <ele>299.620471</ele>
        <time>2021-11-21T16:27:45.531Z</time>
      </trkpt>
      <trkpt lat="47.546634" lon="7.952024">
        <ele>299.566922</ele>
        <time>2021-11-21T16:27:49.065Z</time>
      </trkpt>
      <trkpt lat="47.546695" lon="7.952091">
        <ele>299.551518</ele>
        <time>2021-11-21T16:27:50.020Z</time>
      </trkpt>
      <trkpt lat="47.546776" lon="7.952185">
        <ele>299.530645</ele>
        <time>2021-11-21T16:27:51.207Z</time>
      </trkpt>
      <trkpt lat="47.546935" lon="7.952372">
        <ele>299.489462</ele>
        <time>2021-11-21T16:27:54.142Z</time>
      </trkpt>
      <trkpt lat="47.547090" lon="7.952543">
        <ele>299.413886</ele>
        <time>2021-11-21T16:27:56.779Z</time>
      </trkpt>
      <trkpt lat="47.547400" lon="7.952910">
        <ele>299.256069</ele>
        <time>2021-11-21T16:28:02.101Z</time>
      </trkpt>
      <trkpt lat="47.547458" lon="7.952975">
        <ele>299.227146</ele>
        <time>2021-11-21T16:28:03.027Z</time>
      </trkpt>
      <trkpt lat="47.547550" lon="7.953078">
        <ele>299.181284</ele>
        <time>2021-11-21T16:28:04.525Z</time>
      </trkpt>
      <trkpt lat="47.547624" lon="7.953160">
        <ele>299.144533</ele>
        <time>2021-11-21T16:28:05.769Z</time>
      </trkpt>
      <trkpt lat="47.547797" lon="7.953355">
        <ele>299.058080</ele>
        <time>2021-11-21T16:28:08.758Z</time>
      </trkpt>
      <trkpt lat="47.547871" lon="7.953437">
        <ele>299.021329</ele>
        <time>2021-11-21T16:28:10.013Z</time>
      </trkpt>
      <trkpt lat="47.547994" lon="7.953584">
        <ele>298.958479</ele>
        <time>2021-11-21T16:28:12.140Z</time>
      </trkpt>
      <trkpt lat="47.548115" lon="7.953729">
        <ele>298.896585</ele>
        <time>2021-11-21T16:28:14.264Z</time>
      </trkpt>
      <trkpt lat="47.548251" lon="7.953895">
        <ele>298.826505</ele>
        <time>2021-11-21T16:28:16.644Z</time>
      </trkpt>
      <trkpt lat="47.548342" lon="7.954009">
        <ele>298.779110</ele>
        <time>2021-11-21T16:28:18.284Z</time>
      </trkpt>
      <trkpt lat="47.548542" lon="7.954269">
        <ele>298.737389</ele>
        <time>2021-11-21T16:28:22.014Z</time>
      </trkpt>
      <trkpt lat="47.548833" lon="7.954652">
        <ele>298.682308</ele>
        <time>2021-11-21T16:28:27.556Z</time>
      </trkpt>
      <trkpt lat="47.549042" lon="7.954942">
        <ele>298.641787</ele>
        <time>2021-11-21T16:28:31.698Z</time>
      </trkpt>
      <trkpt lat="47.549157" lon="7.955099">
        <ele>298.619658</ele>
        <time>2021-11-21T16:28:33.984Z</time>
      </trkpt>
      <trkpt lat="47.549444" lon="7.955496">
        <ele>298.564095</ele>
        <time>2021-11-21T16:28:39.830Z</time>
      </trkpt>
      <trkpt lat="47.550205" lon="7.956552">
        <ele>298.431332</ele>
        <time>2021-11-21T16:28:54.463Z</time>
      </trkpt>
      <trkpt lat="47.550380" lon="7.956806">
        <ele>298.401703</ele>
        <time>2021-11-21T16:28:58.024Z</time>
      </trkpt>
      <trkpt lat="47.550445" lon="7.956918">
        <ele>298.389645</ele>
        <time>2021-11-21T16:28:59.508Z</time>
      </trkpt>
      <trkpt lat="47.550549" lon="7.957126">
        <ele>298.368515</ele>
        <time>2021-11-21T16:29:02.029Z</time>
      </trkpt>
      <trkpt lat="47.550613" lon="7.957254">
        <ele>298.355512</ele>
        <time>2021-11-21T16:29:03.656Z</time>
      </trkpt>
      <trkpt lat="47.550735" lon="7.957541">
        <ele>298.327824</ele>
        <time>2021-11-21T16:29:07.112Z</time>
      </trkpt>
      <trkpt lat="47.550745" lon="7.957569">
        <ele>298.325238</ele>
        <time>2021-11-21T16:29:07.361Z</time>
      </trkpt>
      <trkpt lat="47.550869" lon="7.957700">
        <ele>298.306819</ele>
        <time>2021-11-21T16:29:09.634Z</time>
      </trkpt>
      <trkpt lat="47.551300" lon="7.958844">
        <ele>298.435260</ele>
        <time>2021-11-21T16:29:22.486Z</time>
      </trkpt>
      <trkpt lat="47.551677" lon="7.960100">
        <ele>298.584918</ele>
        <time>2021-11-21T16:29:37.225Z</time>
      </trkpt>
      <trkpt lat="47.551865" lon="7.960528">
        <ele>298.742563</ele>
        <time>2021-11-21T16:29:43.074Z</time>
      </trkpt>
      <trkpt lat="47.551882" lon="7.960631">
        <ele>298.777840</ele>
        <time>2021-11-21T16:29:44.291Z</time>
      </trkpt>
      <trkpt lat="47.551894" lon="7.960729">
        <ele>298.810975</ele>
        <time>2021-11-21T16:29:45.695Z</time>
      </trkpt>
      <trkpt lat="47.551859" lon="7.961133">
        <ele>298.946484</ele>
        <time>2021-11-21T16:29:50.170Z</time>
      </trkpt>
      <trkpt lat="47.551906" lon="7.962453">
        <ele>299.386244</ele>
        <time>2021-11-21T16:30:05.565Z</time>
      </trkpt>
      <trkpt lat="47.551918" lon="7.963725">
        <ele>299.468257</ele>
        <time>2021-11-21T16:30:19.225Z</time>
      </trkpt>
      <trkpt lat="47.551902" lon="7.964650">
        <ele>299.459707</ele>
        <time>2021-11-21T16:30:28.338Z</time>
      </trkpt>
      <trkpt lat="47.551767" lon="7.967910">
        <ele>298.828756</ele>
        <time>2021-11-21T16:30:58.000Z</time>
      </trkpt>
      <trkpt lat="47.551839" lon="7.968208">
        <ele>298.820402</ele>
        <time>2021-11-21T16:31:01.092Z</time>
      </trkpt>
      <trkpt lat="47.551847" lon="7.968315">
        <ele>298.836560</ele>
        <time>2021-11-21T16:31:02.068Z</time>
      </trkpt>
      <trkpt lat="47.551825" lon="7.968445">
        <ele>298.856676</ele>
        <time>2021-11-21T16:31:03.299Z</time>
      </trkpt>
      <trkpt lat="47.551750" lon="7.968659">
        <ele>298.892869</ele>
        <time>2021-11-21T16:31:05.902Z</time>
      </trkpt>
      <trkpt lat="47.551734" lon="7.970034">
        <ele>299.099280</ele>
        <time>2021-11-21T16:31:20.298Z</time>
      </trkpt>
      <trkpt lat="47.551725" lon="7.970823">
        <ele>299.245293</ele>
        <time>2021-11-21T16:31:29.417Z</time>
      </trkpt>
      <trkpt lat="47.551755" lon="7.972603">
        <ele>299.823068</ele>
        <time>2021-11-21T16:31:50.892Z</time>
      </trkpt>
      <trkpt lat="47.551793" lon="7.974325">
        <ele>299.940178</ele>
        <time>2021-11-21T16:32:08.064Z</time>
      </trkpt>
      <trkpt lat="47.551829" lon="7.976305">
        <ele>299.837994</ele>
        <time>2021-11-21T16:32:26.021Z</time>
      </trkpt>
      <trkpt lat="47.551901" lon="7.979190">
        <ele>300.388865</ele>
        <time>2021-11-21T16:33:00.136Z</time>
      </trkpt>
      <trkpt lat="47.551923" lon="7.979308">
        <ele>300.348904</ele>
        <time>2021-11-21T16:33:01.826Z</time>
      </trkpt>
      <trkpt lat="47.551933" lon="7.979363">
        <ele>300.330311</ele>
        <time>2021-11-21T16:33:03.040Z</time>
      </trkpt>
      <trkpt lat="47.551873" lon="7.980135">
        <ele>300.076647</ele>
        <time>2021-11-21T16:33:10.320Z</time>
      </trkpt>
      <trkpt lat="47.551865" lon="7.980584">
        <ele>299.930032</ele>
        <time>2021-11-21T16:33:14.568Z</time>
      </trkpt>
      <trkpt lat="47.551861" lon="7.981113">
        <ele>299.757343</ele>
        <time>2021-11-21T16:33:18.967Z</time>
      </trkpt>
      <trkpt lat="47.551892" lon="7.983447">
        <ele>295.710546</ele>
        <time>2021-11-21T16:33:34.974Z</time>
      </trkpt>
      <trkpt lat="47.551911" lon="7.983632">
        <ele>295.362033</ele>
        <time>2021-11-21T16:33:36.273Z</time>
      </trkpt>
      <trkpt lat="47.552005" lon="7.983849">
        <ele>294.881810</ele>
        <time>2021-11-21T16:33:38.131Z</time>
      </trkpt>
      <trkpt lat="47.552007" lon="7.983931">
        <ele>294.729855</ele>
        <time>2021-11-21T16:33:38.643Z</time>
      </trkpt>
      <trkpt lat="47.551993" lon="7.984014">
        <ele>294.691456</ele>
        <time>2021-11-21T16:33:39.233Z</time>
      </trkpt>
      <trkpt lat="47.551934" lon="7.984260">
        <ele>294.574280</ele>
        <time>2021-11-21T16:33:41.283Z</time>
      </trkpt>
      <trkpt lat="47.551939" lon="7.985151">
        <ele>294.174358</ele>
        <time>2021-11-21T16:33:47.919Z</time>
      </trkpt>
      <trkpt lat="47.551898" lon="7.985654">
        <ele>293.946955</ele>
        <time>2021-11-21T16:33:52.228Z</time>
      </trkpt>
      <trkpt lat="47.551915" lon="7.986209">
        <ele>293.697597</ele>
        <time>2021-11-21T16:33:57.846Z</time>
      </trkpt>
      <trkpt lat="47.551917" lon="7.986288">
        <ele>293.662115</ele>
        <time>2021-11-21T16:33:59.168Z</time>
      </trkpt>
      <trkpt lat="47.551971" lon="7.986555">
        <ele>293.537012</ele>
        <time>2021-11-21T16:34:03.430Z</time>
      </trkpt>
      <trkpt lat="47.552152" lon="7.986883">
        <ele>294.479204</ele>
        <time>2021-11-21T16:34:10.655Z</time>
      </trkpt>
      <trkpt lat="47.552224" lon="7.986975">
        <ele>294.798516</ele>
        <time>2021-11-21T16:34:13.223Z</time>
      </trkpt>
      <trkpt lat="47.552436" lon="7.987273">
        <ele>295.779948</ele>
        <time>2021-11-21T16:34:21.121Z</time>
      </trkpt>
      <trkpt lat="47.552504" lon="7.987369">
        <ele>296.095395</ele>
        <time>2021-11-21T16:34:23.756Z</time>
      </trkpt>
      <trkpt lat="47.552713" lon="7.987638">
        <ele>297.025168</ele>
        <time>2021-11-21T16:34:32.224Z</time>
      </trkpt>
      <trkpt lat="47.552867" lon="7.987810">
        <ele>297.672856</ele>
        <time>2021-11-21T16:34:38.711Z</time>
      </trkpt>
      <trkpt lat="47.553232" lon="7.988247">
        <ele>299.248881</ele>
        <time>2021-11-21T16:34:53.340Z</time>
      </trkpt>
      <trkpt lat="47.553343" lon="7.988401">
        <ele>299.723947</ele>
        <time>2021-11-21T16:34:58.176Z</time>
      </trkpt>
      <trkpt lat="47.553410" lon="7.988607">
        <ele>300.142342</ele>
        <time>2021-11-21T16:35:02.773Z</time>
      </trkpt>
      <trkpt lat="47.553424" lon="7.988762">
        <ele>300.428468</ele>
        <time>2021-11-21T16:35:05.960Z</time>
      </trkpt>
      <trkpt lat="47.553352" lon="7.989142">
        <ele>301.150620</ele>
        <time>2021-11-21T16:35:13.804Z</time>
      </trkpt>
      <trkpt lat="47.553253" lon="7.989578">
        <ele>301.992292</ele>
        <time>2021-11-21T16:35:22.757Z</time>
      </trkpt>
      <trkpt lat="47.553214" lon="7.989758">
        <ele>302.338188</ele>
        <time>2021-11-21T16:35:26.340Z</time>
      </trkpt>
      <trkpt lat="47.553163" lon="7.990004">
        <ele>302.809044</ele>
        <time>2021-11-21T16:35:31.040Z</time>
      </trkpt>
      <trkpt lat="47.553146" lon="7.990113">
        <ele>303.013734</ele>
        <time>2021-11-21T16:35:32.967Z</time>
      </trkpt>
      <trkpt lat="47.553126" lon="7.990240">
        <ele>303.252344</ele>
        <time>2021-11-21T16:35:35.124Z</time>
      </trkpt>
      <trkpt lat="47.553050" lon="7.990744">
        <ele>304.197236</ele>
        <time>2021-11-21T16:35:42.775Z</time>
      </trkpt>
      <trkpt lat="47.553091" lon="7.991915">
        <ele>304.653283</ele>
        <time>2021-11-21T16:35:53.583Z</time>
      </trkpt>
      <trkpt lat="47.553107" lon="7.992226">
        <ele>304.714348</ele>
        <time>2021-11-21T16:35:56.051Z</time>
      </trkpt>
      <trkpt lat="47.553130" lon="7.993014">
        <ele>304.868768</ele>
        <time>2021-11-21T16:36:05.625Z</time>
      </trkpt>
      <trkpt lat="47.553137" lon="7.993190">
        <ele>304.903285</ele>
        <time>2021-11-21T16:36:06.744Z</time>
      </trkpt>
      <trkpt lat="47.553156" lon="7.993696">
        <ele>305.154612</ele>
        <time>2021-11-21T16:36:12.378Z</time>
      </trkpt>
      <trkpt lat="47.553164" lon="7.993925">
        <ele>305.427978</ele>
        <time>2021-11-21T16:36:18.845Z</time>
      </trkpt>
      <trkpt lat="47.553246" lon="7.995617">
        <ele>307.450269</ele>
        <time>2021-11-21T16:36:41.630Z</time>
      </trkpt>
      <trkpt lat="47.553268" lon="7.996252">
        <ele>308.202038</ele>
        <time>2021-11-21T16:36:54.975Z</time>
      </trkpt>
      <trkpt lat="47.553279" lon="7.996528">
        <ele>308.496557</ele>
        <time>2021-11-21T16:36:59.128Z</time>
      </trkpt>
      <trkpt lat="47.553287" lon="7.997190">
        <ele>309.201861</ele>
        <time>2021-11-21T16:37:08.878Z</time>
      </trkpt>
      <trkpt lat="47.553287" lon="7.998380">
        <ele>310.469499</ele>
        <time>2021-11-21T16:37:25.461Z</time>
      </trkpt>
      <trkpt lat="47.553278" lon="7.999508">
        <ele>310.847008</ele>
        <time>2021-11-21T16:37:38.811Z</time>
      </trkpt>
      <trkpt lat="47.553275" lon="7.999860">
        <ele>310.769214</ele>
        <time>2021-11-21T16:37:42.310Z</time>
      </trkpt>
      <trkpt lat="47.553273" lon="8.001687">
        <ele>310.335875</ele>
        <time>2021-11-21T16:37:57.854Z</time>
      </trkpt>
      <trkpt lat="47.553271" lon="8.002109">
        <ele>310.161908</ele>
        <time>2021-11-21T16:38:01.221Z</time>
      </trkpt>
      <trkpt lat="47.553270" lon="8.002465">
        <ele>310.015152</ele>
        <time>2021-11-21T16:38:03.998Z</time>
      </trkpt>
      <trkpt lat="47.553266" lon="8.003502">
        <ele>309.587659</ele>
        <time>2021-11-21T16:38:12.773Z</time>
      </trkpt>
      <trkpt lat="47.553256" lon="8.004837">
        <ele>309.625922</ele>
        <time>2021-11-21T16:38:27.003Z</time>
      </trkpt>
      <trkpt lat="47.553251" lon="8.005657">
        <ele>310.042278</ele>
        <time>2021-11-21T16:38:37.093Z</time>
      </trkpt>
      <trkpt lat="47.553220" lon="8.006182">
        <ele>310.309855</ele>
        <time>2021-11-21T16:38:44.040Z</time>
      </trkpt>
      <trkpt lat="47.553211" lon="8.006270">
        <ele>310.355046</ele>
        <time>2021-11-21T16:38:45.842Z</time>
      </trkpt>
      <trkpt lat="47.553173" lon="8.006642">
        <ele>310.546073</ele>
        <time>2021-11-21T16:38:50.392Z</time>
      </trkpt>
      <trkpt lat="47.552935" lon="8.007851">
        <ele>310.470897</ele>
        <time>2021-11-21T16:39:05.499Z</time>
      </trkpt>
      <trkpt lat="47.552640" lon="8.008615">
        <ele>310.316738</ele>
        <time>2021-11-21T16:39:13.643Z</time>
      </trkpt>
      <trkpt lat="47.552604" lon="8.008677">
        <ele>310.302414</ele>
        <time>2021-11-21T16:39:14.193Z</time>
      </trkpt>
      <trkpt lat="47.551902" lon="8.009884">
        <ele>309.679998</ele>
        <time>2021-11-21T16:39:26.553Z</time>
      </trkpt>
      <trkpt lat="47.551275" lon="8.010934">
        <ele>308.920581</ele>
        <time>2021-11-21T16:39:38.508Z</time>
      </trkpt>
      <trkpt lat="47.551187" lon="8.011080">
        <ele>308.814550</ele>
        <time>2021-11-21T16:39:40.642Z</time>
      </trkpt>
      <trkpt lat="47.550764" lon="8.011985">
        <ele>309.403506</ele>
        <time>2021-11-21T16:39:52.731Z</time>
      </trkpt>
      <trkpt lat="47.550565" lon="8.012461">
        <ele>309.784126</ele>
        <time>2021-11-21T16:40:00.150Z</time>
      </trkpt>
      <trkpt lat="47.550001" lon="8.014034">
        <ele>311.157061</ele>
        <time>2021-11-21T16:40:25.990Z</time>
      </trkpt>
      <trkpt lat="47.549871" lon="8.014427">
        <ele>311.564318</ele>
        <time>2021-11-21T16:40:32.176Z</time>
      </trkpt>
      <trkpt lat="47.549795" lon="8.014667">
        <ele>311.811004</ele>
        <time>2021-11-21T16:40:35.677Z</time>
      </trkpt>
      <trkpt lat="47.549589" lon="8.015316">
        <ele>312.478370</ele>
        <time>2021-11-21T16:40:45.055Z</time>
      </trkpt>
      <trkpt lat="47.549431" lon="8.015998">
        <ele>313.143365</ele>
        <time>2021-11-21T16:40:54.969Z</time>
      </trkpt>
      <trkpt lat="47.549281" lon="8.017304">
        <ele>314.311595</ele>
        <time>2021-11-21T16:41:12.192Z</time>
      </trkpt>
      <trkpt lat="47.549274" lon="8.017401">
        <ele>314.397620</ele>
        <time>2021-11-21T16:41:13.485Z</time>
      </trkpt>
      <trkpt lat="47.549236" lon="8.017402">
        <ele>314.447275</ele>
        <time>2021-11-21T16:41:14.308Z</time>
      </trkpt>
      <trkpt lat="47.549145" lon="8.017497">
        <ele>314.592718</ele>
        <time>2021-11-21T16:41:16.566Z</time>
      </trkpt>
      <trkpt lat="47.549133" lon="8.017550">
        <ele>314.642015</ele>
        <time>2021-11-21T16:41:17.555Z</time>
      </trkpt>
      <trkpt lat="47.549131" lon="8.017604">
        <ele>314.689706</ele>
        <time>2021-11-21T16:41:18.071Z</time>
      </trkpt>
      <trkpt lat="47.549220" lon="8.017761">
        <ele>314.870506</ele>
        <time>2021-11-21T16:41:20.649Z</time>
      </trkpt>
      <trkpt lat="47.549256" lon="8.017769">
        <ele>314.918066</ele>
        <time>2021-11-21T16:41:21.453Z</time>
      </trkpt>
      <trkpt lat="47.549261" lon="8.017878">
        <ele>315.014408</ele>
        <time>2021-11-21T16:41:23.093Z</time>
      </trkpt>
      <trkpt lat="47.549208" lon="8.019997">
        <ele>316.980828</ele>
        <time>2021-11-21T16:41:53.648Z</time>
      </trkpt>
      <trkpt lat="47.549186" lon="8.021006">
        <ele>317.903936</ele>
        <time>2021-11-21T16:42:06.710Z</time>
      </trkpt>
      <trkpt lat="47.549191" lon="8.021436">
        <ele>318.072823</ele>
        <time>2021-11-21T16:42:12.092Z</time>
      </trkpt>
      <trkpt lat="47.549201" lon="8.022146">
        <ele>318.351703</ele>
        <time>2021-11-21T16:42:20.893Z</time>
      </trkpt>
      <trkpt lat="47.549268" lon="8.023385">
        <ele>318.839821</ele>
        <time>2021-11-21T16:42:34.845Z</time>
      </trkpt>
      <trkpt lat="47.549322" lon="8.024323">
        <ele>318.816571</ele>
        <time>2021-11-21T16:42:44.229Z</time>
      </trkpt>
      <trkpt lat="47.549436" lon="8.026046">
        <ele>318.530882</ele>
        <time>2021-11-21T16:43:00.450Z</time>
      </trkpt>
      <trkpt lat="47.549454" lon="8.027138">
        <ele>318.138061</ele>
        <time>2021-11-21T16:43:09.737Z</time>
      </trkpt>
      <trkpt lat="47.549445" lon="8.027599">
        <ele>317.948398</ele>
        <time>2021-11-21T16:43:13.696Z</time>
      </trkpt>
      <trkpt lat="47.549431" lon="8.028306">
        <ele>317.657524</ele>
        <time>2021-11-21T16:43:19.928Z</time>
      </trkpt>
      <trkpt lat="47.549418" lon="8.028906">
        <ele>317.410650</ele>
        <time>2021-11-21T16:43:25.345Z</time>
      </trkpt>
      <trkpt lat="47.549380" lon="8.030702">
        <ele>317.008778</ele>
        <time>2021-11-21T16:43:41.232Z</time>
      </trkpt>
      <trkpt lat="47.549378" lon="8.030790">
        <ele>316.989392</ele>
        <time>2021-11-21T16:43:42.161Z</time>
      </trkpt>
      <trkpt lat="47.549372" lon="8.031883">
        <ele>316.816508</ele>
        <time>2021-11-21T16:43:53.398Z</time>
      </trkpt>
      <trkpt lat="47.549368" lon="8.032544">
        <ele>316.830734</ele>
        <time>2021-11-21T16:43:59.648Z</time>
      </trkpt>
      <trkpt lat="47.549363" lon="8.032869">
        <ele>316.837730</ele>
        <time>2021-11-21T16:44:04.009Z</time>
      </trkpt>
      <trkpt lat="47.549374" lon="8.033423">
        <ele>316.849658</ele>
        <time>2021-11-21T16:44:10.015Z</time>
      </trkpt>
      <trkpt lat="47.549386" lon="8.033799">
        <ele>316.857759</ele>
        <time>2021-11-21T16:44:13.236Z</time>
      </trkpt>
      <trkpt lat="47.549394" lon="8.034003">
        <ele>316.862156</ele>
        <time>2021-11-21T16:44:16.327Z</time>
      </trkpt>
      <trkpt lat="47.549395" lon="8.034029">
        <ele>316.862717</ele>
        <time>2021-11-21T16:44:16.472Z</time>
      </trkpt>
      <trkpt lat="47.549442" lon="8.034584">
        <ele>316.725249</ele>
        <time>2021-11-21T16:44:21.676Z</time>
      </trkpt>
      <trkpt lat="47.549494" lon="8.034935">
        <ele>316.566171</ele>
        <time>2021-11-21T16:44:25.482Z</time>
      </trkpt>
      <trkpt lat="47.549554" lon="8.035288">
        <ele>316.405027</ele>
        <time>2021-11-21T16:44:28.560Z</time>
      </trkpt>
      <trkpt lat="47.549632" lon="8.035633">
        <ele>316.243964</ele>
        <time>2021-11-21T16:44:31.714Z</time>
      </trkpt>
      <trkpt lat="47.549699" lon="8.035900">
        <ele>316.117865</ele>
        <time>2021-11-21T16:44:34.211Z</time>
      </trkpt>
      <trkpt lat="47.549753" lon="8.036077">
        <ele>316.031879</ele>
        <time>2021-11-21T16:44:35.885Z</time>
      </trkpt>
      <trkpt lat="47.549832" lon="8.036349">
        <ele>315.900797</ele>
        <time>2021-11-21T16:44:38.325Z</time>
      </trkpt>
      <trkpt lat="47.550111" lon="8.037123">
        <ele>315.566278</ele>
        <time>2021-11-21T16:44:45.515Z</time>
      </trkpt>
      <trkpt lat="47.550424" lon="8.037956">
        <ele>315.273669</ele>
        <time>2021-11-21T16:44:53.283Z</time>
      </trkpt>
      <trkpt lat="47.550515" lon="8.038174">
        <ele>315.194999</ele>
        <time>2021-11-21T16:44:55.531Z</time>
      </trkpt>
      <trkpt lat="47.551001" lon="8.039426">
        <ele>315.249375</ele>
        <time>2021-11-21T16:45:10.831Z</time>
      </trkpt>
      <trkpt lat="47.551167" lon="8.039905">
        <ele>315.777884</ele>
        <time>2021-11-21T16:45:17.876Z</time>
      </trkpt>
      <trkpt lat="47.551627" lon="8.041127">
        <ele>317.151249</ele>
        <time>2021-11-21T16:45:38.422Z</time>
      </trkpt>
      <trkpt lat="47.552844" lon="8.044355">
        <ele>321.960005</ele>
        <time>2021-11-21T16:46:38.374Z</time>
      </trkpt>
      <trkpt lat="47.553619" lon="8.046372">
        <ele>323.159384</ele>
        <time>2021-11-21T16:47:06.211Z</time>
      </trkpt>
      <trkpt lat="47.553996" lon="8.047557">
        <ele>322.247690</ele>
        <time>2021-11-21T16:47:17.120Z</time>
      </trkpt>
      <trkpt lat="47.554309" lon="8.048719">
        <ele>321.238067</ele>
        <time>2021-11-21T16:47:26.399Z</time>
      </trkpt>
      <trkpt lat="47.554412" lon="8.049127">
        <ele>320.686422</ele>
        <time>2021-11-21T16:47:29.565Z</time>
      </trkpt>
      <trkpt lat="47.554715" lon="8.050527">
        <ele>318.824571</ele>
        <time>2021-11-21T16:47:40.471Z</time>
      </trkpt>
      <trkpt lat="47.554988" lon="8.051475">
        <ele>317.934629</ele>
        <time>2021-11-21T16:47:48.396Z</time>
      </trkpt>
      <trkpt lat="47.555259" lon="8.052135">
        <ele>317.579280</ele>
        <time>2021-11-21T16:47:55.170Z</time>
      </trkpt>
      <trkpt lat="47.555603" lon="8.052757">
        <ele>317.209390</ele>
        <time>2021-11-21T16:48:02.660Z</time>
      </trkpt>
      <trkpt lat="47.555773" lon="8.053070">
        <ele>317.024591</ele>
        <time>2021-11-21T16:48:06.508Z</time>
      </trkpt>
      <trkpt lat="47.555890" lon="8.053286">
        <ele>316.950550</ele>
        <time>2021-11-21T16:48:09.116Z</time>
      </trkpt>
      <trkpt lat="47.556032" lon="8.053510">
        <ele>316.964852</ele>
        <time>2021-11-21T16:48:11.781Z</time>
      </trkpt>
      <trkpt lat="47.556239" lon="8.053780">
        <ele>316.983869</ele>
        <time>2021-11-21T16:48:15.731Z</time>
      </trkpt>
      <trkpt lat="47.556494" lon="8.054073">
        <ele>317.006120</ele>
        <time>2021-11-21T16:48:20.974Z</time>
      </trkpt>
      <trkpt lat="47.557019" lon="8.054678">
        <ele>317.051982</ele>
        <time>2021-11-21T16:48:32.095Z</time>
      </trkpt>
      <trkpt lat="47.557097" lon="8.054768">
        <ele>317.058799</ele>
        <time>2021-11-21T16:48:33.332Z</time>
      </trkpt>
      <trkpt lat="47.557273" lon="8.054941">
        <ele>317.068225</ele>
        <time>2021-11-21T16:48:36.656Z</time>
      </trkpt>
      <trkpt lat="47.557500" lon="8.055133">
        <ele>317.061124</ele>
        <time>2021-11-21T16:48:40.222Z</time>
      </trkpt>
      <trkpt lat="47.557710" lon="8.055283">
        <ele>317.054790</ele>
        <time>2021-11-21T16:48:43.375Z</time>
      </trkpt>
      <trkpt lat="47.557918" lon="8.055409">
        <ele>317.048684</ele>
        <time>2021-11-21T16:48:46.654Z</time>
      </trkpt>
      <trkpt lat="47.558012" lon="8.055477">
        <ele>317.045842</ele>
        <time>2021-11-21T16:48:48.029Z</time>
      </trkpt>
      <trkpt lat="47.558239" lon="8.055639">
        <ele>317.038997</ele>
        <time>2021-11-21T16:48:51.861Z</time>
      </trkpt>
      <trkpt lat="47.558447" lon="8.055831">
        <ele>317.032339</ele>
        <time>2021-11-21T16:48:55.444Z</time>
      </trkpt>
      <trkpt lat="47.558662" lon="8.056061">
        <ele>317.025134</ele>
        <time>2021-11-21T16:48:59.871Z</time>
      </trkpt>
      <trkpt lat="47.559116" lon="8.056760">
        <ele>317.129926</ele>
        <time>2021-11-21T16:49:09.980Z</time>
      </trkpt>
      <trkpt lat="47.559294" lon="8.057130">
        <ele>317.197454</ele>
        <time>2021-11-21T16:49:14.649Z</time>
      </trkpt>
      <trkpt lat="47.559447" lon="8.057490">
        <ele>317.260680</ele>
        <time>2021-11-21T16:49:19.013Z</time>
      </trkpt>
      <trkpt lat="47.559548" lon="8.057827">
        <ele>317.315479</ele>
        <time>2021-11-21T16:49:23.004Z</time>
      </trkpt>
      <trkpt lat="47.559579" lon="8.057955">
        <ele>317.335689</ele>
        <time>2021-11-21T16:49:24.447Z</time>
      </trkpt>
      <trkpt lat="47.559654" lon="8.058257">
        <ele>317.383512</ele>
        <time>2021-11-21T16:49:28.051Z</time>
      </trkpt>
      <trkpt lat="47.559725" lon="8.058554">
        <ele>317.441283</ele>
        <time>2021-11-21T16:49:31.446Z</time>
      </trkpt>
      <trkpt lat="47.559859" lon="8.059093">
        <ele>317.596222</ele>
        <time>2021-11-21T16:49:37.564Z</time>
      </trkpt>
      <trkpt lat="47.559979" lon="8.059591">
        <ele>317.738856</ele>
        <time>2021-11-21T16:49:43.152Z</time>
      </trkpt>
      <trkpt lat="47.560019" lon="8.059741">
        <ele>317.782361</ele>
        <time>2021-11-21T16:49:44.961Z</time>
      </trkpt>
      <trkpt lat="47.560040" lon="8.059827">
        <ele>317.807030</ele>
        <time>2021-11-21T16:49:45.903Z</time>
      </trkpt>
      <trkpt lat="47.560069" lon="8.059943">
        <ele>317.840397</ele>
        <time>2021-11-21T16:49:47.148Z</time>
      </trkpt>
      <trkpt lat="47.560130" lon="8.060196">
        <ele>317.912864</ele>
        <time>2021-11-21T16:49:50.193Z</time>
      </trkpt>
      <trkpt lat="47.560262" lon="8.060729">
        <ele>318.066007</ele>
        <time>2021-11-21T16:49:56.450Z</time>
      </trkpt>
      <trkpt lat="47.560293" lon="8.060828">
        <ele>318.095446</ele>
        <time>2021-11-21T16:49:57.731Z</time>
      </trkpt>
      <trkpt lat="47.560335" lon="8.060984">
        <ele>318.145752</ele>
        <time>2021-11-21T16:49:59.764Z</time>
      </trkpt>
      <trkpt lat="47.560570" lon="8.061926">
        <ele>318.693187</ele>
        <time>2021-11-21T16:50:12.435Z</time>
      </trkpt>
      <trkpt lat="47.560765" lon="8.062729">
        <ele>319.158369</ele>
        <time>2021-11-21T16:50:22.606Z</time>
      </trkpt>
      <trkpt lat="47.560673" lon="8.062786">
        <ele>319.238916</ele>
        <time>2021-11-21T16:50:24.977Z</time>
      </trkpt>
      <trkpt lat="47.560580" lon="8.062890">
        <ele>319.333027</ele>
        <time>2021-11-21T16:50:27.716Z</time>
      </trkpt>
      <trkpt lat="47.560545" lon="8.062928">
        <ele>319.368075</ele>
        <time>2021-11-21T16:50:28.505Z</time>
      </trkpt>
      <trkpt lat="47.560443" lon="8.063042">
        <ele>319.471272</ele>
        <time>2021-11-21T16:50:30.928Z</time>
      </trkpt>
      <trkpt lat="47.560335" lon="8.063169">
        <ele>319.582640</ele>
        <time>2021-11-21T16:50:33.523Z</time>
      </trkpt>
      <trkpt lat="47.560392" lon="8.063300">
        <ele>319.634395</ele>
        <time>2021-11-21T16:50:35.370Z</time>
      </trkpt>
      <trkpt lat="47.560719" lon="8.063873">
        <ele>319.871242</ele>
        <time>2021-11-21T16:50:44.683Z</time>
      </trkpt>
      <trkpt lat="47.560806" lon="8.064037">
        <ele>319.937082</ele>
        <time>2021-11-21T16:50:47.185Z</time>
      </trkpt>
      <trkpt lat="47.560887" lon="8.064271">
        <ele>320.020085</ele>
        <time>2021-11-21T16:50:50.316Z</time>
      </trkpt>
      <trkpt lat="47.561017" lon="8.064820">
        <ele>320.203714</ele>
        <time>2021-11-21T16:50:56.929Z</time>
      </trkpt>
      <trkpt lat="47.561108" lon="8.065242">
        <ele>320.343538</ele>
        <time>2021-11-21T16:51:01.173Z</time>
      </trkpt>
      <trkpt lat="47.561253" lon="8.066385">
        <ele>320.584281</ele>
        <time>2021-11-21T16:51:12.165Z</time>
      </trkpt>
      <trkpt lat="47.561276" lon="8.067022">
        <ele>320.694991</ele>
        <time>2021-11-21T16:51:18.417Z</time>
      </trkpt>
      <trkpt lat="47.561265" lon="8.067435">
        <ele>320.766723</ele>
        <time>2021-11-21T16:51:22.799Z</time>
      </trkpt>
      <trkpt lat="47.561229" lon="8.067903">
        <ele>320.848471</ele>
        <time>2021-11-21T16:51:28.543Z</time>
      </trkpt>
      <trkpt lat="47.561187" lon="8.068256">
        <ele>321.029282</ele>
        <time>2021-11-21T16:51:32.949Z</time>
      </trkpt>
      <trkpt lat="47.561130" lon="8.068650">
        <ele>321.556712</ele>
        <time>2021-11-21T16:51:38.193Z</time>
      </trkpt>
      <trkpt lat="47.560998" lon="8.069237">
        <ele>322.366583</ele>
        <time>2021-11-21T16:51:47.340Z</time>
      </trkpt>
      <trkpt lat="47.560904" lon="8.069780">
        <ele>323.100339</ele>
        <time>2021-11-21T16:51:56.299Z</time>
      </trkpt>
      <trkpt lat="47.560864" lon="8.070015">
        <ele>323.417569</ele>
        <time>2021-11-21T16:52:00.332Z</time>
      </trkpt>
      <trkpt lat="47.560739" lon="8.070551">
        <ele>324.159866</ele>
        <time>2021-11-21T16:52:09.946Z</time>
      </trkpt>
      <trkpt lat="47.560584" lon="8.070919">
        <ele>324.743409</ele>
        <time>2021-11-21T16:52:17.259Z</time>
      </trkpt>
      <trkpt lat="47.560553" lon="8.071099">
        <ele>324.997612</ele>
        <time>2021-11-21T16:52:20.450Z</time>
      </trkpt>
      <trkpt lat="47.560524" lon="8.071179">
        <ele>325.121878</ele>
        <time>2021-11-21T16:52:22.210Z</time>
      </trkpt>
      <trkpt lat="47.560318" lon="8.072316">
        <ele>326.732833</ele>
        <time>2021-11-21T16:52:41.111Z</time>
      </trkpt>
      <trkpt lat="47.559811" lon="8.074398">
        <ele>329.294054</ele>
        <time>2021-11-21T16:53:11.951Z</time>
      </trkpt>
      <trkpt lat="47.559426" lon="8.075372">
        <ele>330.421920</ele>
        <time>2021-11-21T16:53:27.401Z</time>
      </trkpt>
      <trkpt lat="47.559046" lon="8.076086">
        <ele>331.398614</ele>
        <time>2021-11-21T16:53:40.426Z</time>
      </trkpt>
      <trkpt lat="47.558613" lon="8.076826">
        <ele>332.481614</ele>
        <time>2021-11-21T16:53:55.009Z</time>
      </trkpt>
      <trkpt lat="47.557793" lon="8.078299">
        <ele>333.453861</ele>
        <time>2021-11-21T16:54:22.767Z</time>
      </trkpt>
      <trkpt lat="47.557256" lon="8.079416">
        <ele>333.159643</ele>
        <time>2021-11-21T16:54:34.615Z</time>
      </trkpt>
      <trkpt lat="47.557099" lon="8.079786">
        <ele>333.050782</ele>
        <time>2021-11-21T16:54:37.853Z</time>
      </trkpt>
      <trkpt lat="47.556853" lon="8.080477">
        <ele>330.946878</ele>
        <time>2021-11-21T16:54:43.238Z</time>
      </trkpt>
      <trkpt lat="47.556470" lon="8.081563">
        <ele>327.647012</ele>
        <time>2021-11-21T16:54:51.253Z</time>
      </trkpt>
      <trkpt lat="47.556083" lon="8.083354">
        <ele>321.677298</ele>
        <time>2021-11-21T16:55:03.057Z</time>
      </trkpt>
      <trkpt lat="47.555956" lon="8.084115">
        <ele>318.988261</ele>
        <time>2021-11-21T16:55:08.060Z</time>
      </trkpt>
      <trkpt lat="47.555899" lon="8.084472">
        <ele>317.729861</ele>
        <time>2021-11-21T16:55:10.380Z</time>
      </trkpt>
      <trkpt lat="47.555764" lon="8.085769">
        <ele>314.229968</ele>
        <time>2021-11-21T16:55:18.845Z</time>
      </trkpt>
      <trkpt lat="47.555733" lon="8.086819">
        <ele>311.650926</ele>
        <time>2021-11-21T16:55:25.773Z</time>
      </trkpt>
      <trkpt lat="47.555737" lon="8.087083">
        <ele>311.002937</ele>
        <time>2021-11-21T16:55:27.571Z</time>
      </trkpt>
      <trkpt lat="47.555780" lon="8.087557">
        <ele>310.359320</ele>
        <time>2021-11-21T16:55:31.062Z</time>
      </trkpt>
      <trkpt lat="47.555809" lon="8.087783">
        <ele>310.585689</ele>
        <time>2021-11-21T16:55:33.496Z</time>
      </trkpt>
      <trkpt lat="47.555829" lon="8.087941">
        <ele>310.743873</ele>
        <time>2021-11-21T16:55:35.093Z</time>
      </trkpt>
      <trkpt lat="47.555887" lon="8.088299">
        <ele>311.106155</ele>
        <time>2021-11-21T16:55:38.658Z</time>
      </trkpt>
      <trkpt lat="47.555939" lon="8.088552">
        <ele>311.366398</ele>
        <time>2021-11-21T16:55:41.453Z</time>
      </trkpt>
      <trkpt lat="47.555991" lon="8.088778">
        <ele>311.601352</ele>
        <time>2021-11-21T16:55:44.888Z</time>
      </trkpt>
      <trkpt lat="47.555997" lon="8.088801">
        <ele>311.625616</ele>
        <time>2021-11-21T16:55:45.481Z</time>
      </trkpt>
      <trkpt lat="47.556065" lon="8.089084">
        <ele>311.921212</ele>
        <time>2021-11-21T16:55:49.774Z</time>
      </trkpt>
      <trkpt lat="47.556111" lon="8.089266">
        <ele>312.112448</ele>
        <time>2021-11-21T16:55:53.582Z</time>
      </trkpt>
      <trkpt lat="47.556151" lon="8.089459">
        <ele>312.311113</ele>
        <time>2021-11-21T16:55:58.224Z</time>
      </trkpt>
      <trkpt lat="47.556137" lon="8.089730">
        <ele>312.578557</ele>
        <time>2021-11-21T16:56:03.442Z</time>
      </trkpt>
      <trkpt lat="47.556110" lon="8.089809">
        <ele>312.665693</ele>
        <time>2021-11-21T16:56:05.714Z</time>
      </trkpt>
      <trkpt lat="47.556193" lon="8.089926">
        <ele>312.838773</ele>
        <time>2021-11-21T16:56:09.692Z</time>
      </trkpt>
      <trkpt lat="47.556259" lon="8.090058">
        <ele>313.381305</ele>
        <time>2021-11-21T16:56:12.735Z</time>
      </trkpt>
      <trkpt lat="47.556527" lon="8.090721">
        <ele>315.933545</ele>
        <time>2021-11-21T16:56:30.990Z</time>
      </trkpt>
      <trkpt lat="47.556692" lon="8.091113">
        <ele>317.459260</ele>
        <time>2021-11-21T16:56:42.773Z</time>
      </trkpt>
      <trkpt lat="47.556850" lon="8.091457">
        <ele>318.833440</ele>
        <time>2021-11-21T16:56:53.282Z</time>
      </trkpt>
      <trkpt lat="47.557677" lon="8.092776">
        <ele>324.096009</ele>
        <time>2021-11-21T16:57:33.335Z</time>
      </trkpt>
      <trkpt lat="47.558531" lon="8.094661">
        <ele>330.352053</ele>
        <time>2021-11-21T16:58:16.518Z</time>
      </trkpt>
      <trkpt lat="47.558776" lon="8.095210">
        <ele>332.508719</ele>
        <time>2021-11-21T16:58:30.857Z</time>
      </trkpt>
      <trkpt lat="47.558857" lon="8.095293">
        <ele>332.986891</ele>
        <time>2021-11-21T16:58:35.679Z</time>
      </trkpt>
      <trkpt lat="47.558983" lon="8.095482">
        <ele>333.857418</ele>
        <time>2021-11-21T16:58:42.415Z</time>
      </trkpt>
      <trkpt lat="47.559606" lon="8.096837">
        <ele>339.144851</ele>
        <time>2021-11-21T16:59:31.359Z</time>
      </trkpt>
      <trkpt lat="47.560171" lon="8.097877">
        <ele>343.331173</ele>
        <time>2021-11-21T17:00:09.154Z</time>
      </trkpt>
      <trkpt lat="47.560787" lon="8.098864">
        <ele>345.394148</ele>
        <time>2021-11-21T17:00:37.401Z</time>
      </trkpt>
      <trkpt lat="47.561466" lon="8.099697">
        <ele>344.928845</ele>
        <time>2021-11-21T17:00:53.691Z</time>
      </trkpt>
      <trkpt lat="47.562207" lon="8.100413">
        <ele>343.414409</ele>
        <time>2021-11-21T17:01:06.284Z</time>
      </trkpt>
      <trkpt lat="47.563031" lon="8.100935">
        <ele>340.493162</ele>
        <time>2021-11-21T17:01:19.186Z</time>
      </trkpt>
      <trkpt lat="47.563202" lon="8.101042">
        <ele>339.888075</ele>
        <time>2021-11-21T17:01:21.773Z</time>
      </trkpt>
      <trkpt lat="47.564165" lon="8.101615">
        <ele>337.380212</ele>
        <time>2021-11-21T17:01:32.736Z</time>
      </trkpt>
      <trkpt lat="47.565727" lon="8.102512">
        <ele>333.867682</ele>
        <time>2021-11-21T17:01:51.923Z</time>
      </trkpt>
      <trkpt lat="47.566684" lon="8.102974">
        <ele>331.606693</ele>
        <time>2021-11-21T17:02:02.524Z</time>
      </trkpt>
      <trkpt lat="47.567683" lon="8.103272">
        <ele>329.117217</ele>
        <time>2021-11-21T17:02:13.144Z</time>
      </trkpt>
      <trkpt lat="47.569557" lon="8.103677">
        <ele>323.945655</ele>
        <time>2021-11-21T17:02:33.376Z</time>
      </trkpt>
      <trkpt lat="47.570159" lon="8.103813">
        <ele>322.124779</ele>
        <time>2021-11-21T17:02:39.681Z</time>
      </trkpt>
      <trkpt lat="47.570286" lon="8.103898">
        <ele>321.708104</ele>
        <time>2021-11-21T17:02:41.060Z</time>
      </trkpt>
      <trkpt lat="47.570517" lon="8.104111">
        <ele>320.775844</ele>
        <time>2021-11-21T17:02:43.623Z</time>
      </trkpt>
      <trkpt lat="47.570786" lon="8.104202">
        <ele>319.687632</ele>
        <time>2021-11-21T17:02:46.214Z</time>
      </trkpt>
      <trkpt lat="47.570863" lon="8.104203">
        <ele>319.383934</ele>
        <time>2021-11-21T17:02:46.969Z</time>
      </trkpt>
      <trkpt lat="47.571140" lon="8.104418">
        <ele>318.150724</ele>
        <time>2021-11-21T17:02:49.927Z</time>
      </trkpt>
      <trkpt lat="47.571149" lon="8.104460">
        <ele>318.033465</ele>
        <time>2021-11-21T17:02:50.242Z</time>
      </trkpt>
      <trkpt lat="47.571165" lon="8.104498">
        <ele>317.914275</ele>
        <time>2021-11-21T17:02:50.579Z</time>
      </trkpt>
      <trkpt lat="47.571190" lon="8.104530">
        <ele>317.783998</ele>
        <time>2021-11-21T17:02:50.895Z</time>
      </trkpt>
      <trkpt lat="47.571252" lon="8.104556">
        <ele>317.529873</ele>
        <time>2021-11-21T17:02:51.536Z</time>
      </trkpt>
      <trkpt lat="47.571285" lon="8.104547">
        <ele>317.397537</ele>
        <time>2021-11-21T17:02:51.853Z</time>
      </trkpt>
      <trkpt lat="47.571319" lon="8.104520">
        <ele>317.245409</ele>
        <time>2021-11-21T17:02:52.218Z</time>
      </trkpt>
      <trkpt lat="47.571345" lon="8.104476">
        <ele>317.089772</ele>
        <time>2021-11-21T17:02:52.581Z</time>
      </trkpt>
      <trkpt lat="47.571404" lon="8.104462">
        <ele>316.854115</ele>
        <time>2021-11-21T17:02:53.123Z</time>
      </trkpt>
      <trkpt lat="47.571506" lon="8.104457">
        <ele>316.451609</ele>
        <time>2021-11-21T17:02:54.168Z</time>
      </trkpt>
      <trkpt lat="47.571606" lon="8.104456">
        <ele>316.057203</ele>
        <time>2021-11-21T17:02:55.145Z</time>
      </trkpt>
      <trkpt lat="47.571788" lon="8.104486">
        <ele>315.334974</ele>
        <time>2021-11-21T17:02:56.848Z</time>
      </trkpt>
      <trkpt lat="47.572479" lon="8.104559">
        <ele>314.187019</ele>
        <time>2021-11-21T17:03:04.218Z</time>
      </trkpt>
      <trkpt lat="47.573291" lon="8.104448">
        <ele>314.215382</ele>
        <time>2021-11-21T17:03:15.652Z</time>
      </trkpt>
      <trkpt lat="47.573366" lon="8.104434">
        <ele>314.218011</ele>
        <time>2021-11-21T17:03:18.120Z</time>
      </trkpt>
      <trkpt lat="47.573446" lon="8.104418">
        <ele>314.220818</ele>
        <time>2021-11-21T17:03:20.373Z</time>
      </trkpt>
      <trkpt lat="47.573480" lon="8.104411">
        <ele>314.222012</ele>
        <time>2021-11-21T17:03:21.241Z</time>
      </trkpt>
      <trkpt lat="47.573668" lon="8.104380">
        <ele>314.228592</ele>
        <time>2021-11-21T17:03:25.046Z</time>
      </trkpt>
      <trkpt lat="47.573831" lon="8.104354">
        <ele>314.234294</ele>
        <time>2021-11-21T17:03:29.903Z</time>
      </trkpt>
      <trkpt lat="47.574232" lon="8.104312">
        <ele>314.810345</ele>
        <time>2021-11-21T17:03:39.592Z</time>
      </trkpt>
      <trkpt lat="47.574708" lon="8.104323">
        <ele>315.568683</ele>
        <time>2021-11-21T17:03:50.597Z</time>
      </trkpt>
      <trkpt lat="47.574899" lon="8.104362">
        <ele>315.875811</ele>
        <time>2021-11-21T17:03:56.159Z</time>
      </trkpt>
      <trkpt lat="47.575253" lon="8.104463">
        <ele>316.450067</ele>
        <time>2021-11-21T17:04:03.324Z</time>
      </trkpt>
      <trkpt lat="47.576181" lon="8.104949">
        <ele>317.040358</ele>
        <time>2021-11-21T17:04:17.894Z</time>
      </trkpt>
      <trkpt lat="47.576601" lon="8.105189">
        <ele>316.993029</ele>
        <time>2021-11-21T17:04:23.766Z</time>
      </trkpt>
      <trkpt lat="47.576841" lon="8.105315">
        <ele>316.966258</ele>
        <time>2021-11-21T17:04:27.142Z</time>
      </trkpt>
      <trkpt lat="47.577500" lon="8.105730">
        <ele>317.108432</ele>
        <time>2021-11-21T17:04:37.621Z</time>
      </trkpt>
      <trkpt lat="47.578068" lon="8.106263">
        <ele>317.777007</ele>
        <time>2021-11-21T17:04:49.134Z</time>
      </trkpt>
      <trkpt lat="47.578187" lon="8.106429">
        <ele>317.939520</ele>
        <time>2021-11-21T17:04:52.338Z</time>
      </trkpt>
      <trkpt lat="47.578335" lon="8.106654">
        <ele>318.150358</ele>
        <time>2021-11-21T17:04:56.496Z</time>
      </trkpt>
      <trkpt lat="47.579759" lon="8.109482">
        <ele>322.186899</ele>
        <time>2021-11-21T17:05:49.953Z</time>
      </trkpt>
      <trkpt lat="47.579823" lon="8.109617">
        <ele>322.405557</ele>
        <time>2021-11-21T17:05:52.767Z</time>
      </trkpt>
      <trkpt lat="47.579991" lon="8.109948">
        <ele>322.954481</ele>
        <time>2021-11-21T17:05:58.742Z</time>
      </trkpt>
      <trkpt lat="47.580212" lon="8.110399">
        <ele>323.693175</ele>
        <time>2021-11-21T17:06:06.923Z</time>
      </trkpt>
      <trkpt lat="47.580364" lon="8.110708">
        <ele>324.199960</ele>
        <time>2021-11-21T17:06:12.735Z</time>
      </trkpt>
      <trkpt lat="47.580670" lon="8.111332">
        <ele>325.222267</ele>
        <time>2021-11-21T17:06:24.622Z</time>
      </trkpt>
      <trkpt lat="47.581045" lon="8.112180">
        <ele>327.062575</ele>
        <time>2021-11-21T17:06:40.921Z</time>
      </trkpt>
      <trkpt lat="47.581182" lon="8.112552">
        <ele>327.933472</ele>
        <time>2021-11-21T17:06:48.362Z</time>
      </trkpt>
      <trkpt lat="47.581277" lon="8.112870">
        <ele>328.648117</ele>
        <time>2021-11-21T17:06:54.794Z</time>
      </trkpt>
      <trkpt lat="47.581391" lon="8.113276">
        <ele>329.551760</ele>
        <time>2021-11-21T17:07:03.726Z</time>
      </trkpt>
      <trkpt lat="47.581427" lon="8.113428">
        <ele>329.882783</ele>
        <time>2021-11-21T17:07:06.838Z</time>
      </trkpt>
      <trkpt lat="47.581503" lon="8.113781">
        <ele>330.644179</ele>
        <time>2021-11-21T17:07:14.293Z</time>
      </trkpt>
      <trkpt lat="47.581610" lon="8.114392">
        <ele>331.884020</ele>
        <time>2021-11-21T17:07:26.615Z</time>
      </trkpt>
      <trkpt lat="47.581698" lon="8.115075">
        <ele>333.210316</ele>
        <time>2021-11-21T17:07:39.655Z</time>
      </trkpt>
      <trkpt lat="47.581747" lon="8.115421">
        <ele>333.884659</ele>
        <time>2021-11-21T17:07:46.127Z</time>
      </trkpt>
      <trkpt lat="47.581851" lon="8.116146">
        <ele>335.298434</ele>
        <time>2021-11-21T17:07:58.788Z</time>
      </trkpt>
      <trkpt lat="47.582058" lon="8.118074">
        <ele>338.878779</ele>
        <time>2021-11-21T17:08:27.780Z</time>
      </trkpt>
      <trkpt lat="47.581997" lon="8.119489">
        <ele>341.588451</ele>
        <time>2021-11-21T17:08:54.995Z</time>
      </trkpt>
      <trkpt lat="47.581925" lon="8.120891">
        <ele>345.071506</ele>
        <time>2021-11-21T17:09:27.346Z</time>
      </trkpt>
      <trkpt lat="47.581872" lon="8.121939">
        <ele>347.656908</ele>
        <time>2021-11-21T17:09:47.954Z</time>
      </trkpt>
      <trkpt lat="47.581853" lon="8.122293">
        <ele>347.514841</ele>
        <time>2021-11-21T17:09:53.697Z</time>
      </trkpt>
      <trkpt lat="47.581616" lon="8.126107">
        <ele>344.123081</ele>
        <time>2021-11-21T17:10:23.306Z</time>
      </trkpt>
      <trkpt lat="47.581682" lon="8.126961">
        <ele>342.731092</ele>
        <time>2021-11-21T17:10:28.901Z</time>
      </trkpt>
      <trkpt lat="47.581995" lon="8.128036">
        <ele>341.815290</ele>
        <time>2021-11-21T17:10:37.238Z</time>
      </trkpt>
      <trkpt lat="47.582054" lon="8.128175">
        <ele>341.730431</ele>
        <time>2021-11-21T17:10:38.427Z</time>
      </trkpt>
      <trkpt lat="47.582271" lon="8.128732">
        <ele>341.398069</ele>
        <time>2021-11-21T17:10:44.433Z</time>
      </trkpt>
      <trkpt lat="47.582333" lon="8.128926">
        <ele>341.287146</ele>
        <time>2021-11-21T17:10:47.079Z</time>
      </trkpt>
      <trkpt lat="47.582383" lon="8.129121">
        <ele>341.179354</ele>
        <time>2021-11-21T17:10:49.032Z</time>
      </trkpt>
      <trkpt lat="47.582452" lon="8.129518">
        <ele>340.967521</ele>
        <time>2021-11-21T17:10:54.569Z</time>
      </trkpt>
      <trkpt lat="47.582476" lon="8.129918">
        <ele>341.232189</ele>
        <time>2021-11-21T17:11:00.073Z</time>
      </trkpt>
      <trkpt lat="47.582502" lon="8.130347">
        <ele>341.777673</ele>
        <time>2021-11-21T17:11:06.541Z</time>
      </trkpt>
      <trkpt lat="47.582401" lon="8.132729">
        <ele>343.557454</ele>
        <time>2021-11-21T17:11:46.059Z</time>
      </trkpt>
      <trkpt lat="47.582405" lon="8.133220">
        <ele>342.711321</ele>
        <time>2021-11-21T17:11:49.945Z</time>
      </trkpt>
      <trkpt lat="47.582445" lon="8.133813">
        <ele>341.684392</ele>
        <time>2021-11-21T17:11:54.111Z</time>
      </trkpt>
      <trkpt lat="47.582702" lon="8.135441">
        <ele>337.549403</ele>
        <time>2021-11-21T17:12:04.748Z</time>
      </trkpt>
      <trkpt lat="47.582869" lon="8.136025">
        <ele>334.891248</ele>
        <time>2021-11-21T17:12:08.558Z</time>
      </trkpt>
      <trkpt lat="47.582934" lon="8.136254">
        <ele>333.850097</ele>
        <time>2021-11-21T17:12:10.073Z</time>
      </trkpt>
      <trkpt lat="47.583161" lon="8.137044">
        <ele>330.251666</ele>
        <time>2021-11-21T17:12:15.297Z</time>
      </trkpt>
      <trkpt lat="47.583437" lon="8.137880">
        <ele>327.365400</ele>
        <time>2021-11-21T17:12:21.079Z</time>
      </trkpt>
      <trkpt lat="47.583514" lon="8.138100">
        <ele>326.815935</ele>
        <time>2021-11-21T17:12:22.683Z</time>
      </trkpt>
      <trkpt lat="47.583879" lon="8.139148">
        <ele>324.201215</ele>
        <time>2021-11-21T17:12:30.648Z</time>
      </trkpt>
      <trkpt lat="47.584040" lon="8.139585">
        <ele>323.097351</ele>
        <time>2021-11-21T17:12:34.398Z</time>
      </trkpt>
      <trkpt lat="47.584064" lon="8.139642">
        <ele>322.948391</ele>
        <time>2021-11-21T17:12:34.982Z</time>
      </trkpt>
      <trkpt lat="47.585261" lon="8.142529">
        <ele>322.747501</ele>
        <time>2021-11-21T17:13:13.377Z</time>
      </trkpt>
      <trkpt lat="47.585413" lon="8.142895">
        <ele>322.607953</ele>
        <time>2021-11-21T17:13:17.084Z</time>
      </trkpt>
      <trkpt lat="47.585796" lon="8.143867">
        <ele>322.242470</ele>
        <time>2021-11-21T17:13:26.728Z</time>
      </trkpt>
      <trkpt lat="47.585856" lon="8.144060">
        <ele>322.173473</ele>
        <time>2021-11-21T17:13:28.083Z</time>
      </trkpt>
      <trkpt lat="47.585989" lon="8.144423">
        <ele>322.075035</ele>
        <time>2021-11-21T17:13:33.952Z</time>
      </trkpt>
      <trkpt lat="47.586002" lon="8.144470">
        <ele>322.082275</ele>
        <time>2021-11-21T17:13:34.246Z</time>
      </trkpt>
      <trkpt lat="47.586071" lon="8.144677">
        <ele>322.115182</ele>
        <time>2021-11-21T17:13:36.951Z</time>
      </trkpt>
      <trkpt lat="47.586082" lon="8.144714">
        <ele>322.120945</ele>
        <time>2021-11-21T17:13:37.952Z</time>
      </trkpt>
      <trkpt lat="47.586191" lon="8.145057">
        <ele>322.174983</ele>
        <time>2021-11-21T17:13:40.525Z</time>
      </trkpt>
      <trkpt lat="47.586286" lon="8.145363">
        <ele>322.222991</ele>
        <time>2021-11-21T17:13:46.777Z</time>
      </trkpt>
      <trkpt lat="47.586304" lon="8.145415">
        <ele>322.231321</ele>
        <time>2021-11-21T17:13:47.124Z</time>
      </trkpt>
      <trkpt lat="47.586444" lon="8.145833">
        <ele>322.297833</ele>
        <time>2021-11-21T17:13:52.823Z</time>
      </trkpt>
      <trkpt lat="47.586480" lon="8.145943">
        <ele>322.315258</ele>
        <time>2021-11-21T17:13:53.572Z</time>
      </trkpt>
      <trkpt lat="47.586747" lon="8.146748">
        <ele>322.443105</ele>
        <time>2021-11-21T17:14:05.424Z</time>
      </trkpt>
      <trkpt lat="47.586812" lon="8.146941">
        <ele>323.012040</ele>
        <time>2021-11-21T17:14:06.959Z</time>
      </trkpt>
      <trkpt lat="47.586874" lon="8.147126">
        <ele>323.575938</ele>
        <time>2021-11-21T17:14:12.678Z</time>
      </trkpt>
      <trkpt lat="47.587271" lon="8.148318">
        <ele>327.204801</ele>
        <time>2021-11-21T17:14:39.921Z</time>
      </trkpt>
      <trkpt lat="47.587348" lon="8.148547">
        <ele>327.903268</ele>
        <time>2021-11-21T17:14:46.341Z</time>
      </trkpt>
      <trkpt lat="47.587422" lon="8.148776">
        <ele>328.596403</ele>
        <time>2021-11-21T17:14:52.122Z</time>
      </trkpt>
      <trkpt lat="47.587515" lon="8.149064">
        <ele>329.468003</ele>
        <time>2021-11-21T17:15:01.300Z</time>
      </trkpt>
      <trkpt lat="47.587893" lon="8.150269">
        <ele>334.510878</ele>
        <time>2021-11-21T17:15:36.248Z</time>
      </trkpt>
      <trkpt lat="47.588139" lon="8.151059">
        <ele>337.882919</ele>
        <time>2021-11-21T17:16:00.160Z</time>
      </trkpt>
      <trkpt lat="47.588281" lon="8.151539">
        <ele>339.914134</ele>
        <time>2021-11-21T17:16:12.551Z</time>
      </trkpt>
      <trkpt lat="47.588498" lon="8.152664">
        <ele>341.073266</ele>
        <time>2021-11-21T17:16:36.866Z</time>
      </trkpt>
      <trkpt lat="47.588556" lon="8.153527">
        <ele>341.850263</ele>
        <time>2021-11-21T17:16:46.383Z</time>
      </trkpt>
      <trkpt lat="47.588564" lon="8.154322">
        <ele>342.141847</ele>
        <time>2021-11-21T17:16:52.610Z</time>
      </trkpt>
      <trkpt lat="47.588527" lon="8.156347">
        <ele>337.321003</ele>
        <time>2021-11-21T17:17:05.911Z</time>
      </trkpt>
      <trkpt lat="47.588525" lon="8.156604">
        <ele>336.709356</ele>
        <time>2021-11-21T17:17:07.547Z</time>
      </trkpt>
      <trkpt lat="47.588519" lon="8.157044">
        <ele>336.063050</ele>
        <time>2021-11-21T17:17:10.395Z</time>
      </trkpt>
      <trkpt lat="47.588513" lon="8.157629">
        <ele>335.942623</ele>
        <time>2021-11-21T17:17:14.382Z</time>
      </trkpt>
      <trkpt lat="47.588496" lon="8.162682">
        <ele>337.538709</ele>
        <time>2021-11-21T17:18:22.477Z</time>
      </trkpt>
      <trkpt lat="47.588650" lon="8.165152">
        <ele>336.546094</ele>
        <time>2021-11-21T17:18:43.597Z</time>
      </trkpt>
      <trkpt lat="47.588804" lon="8.166249">
        <ele>335.240239</ele>
        <time>2021-11-21T17:18:51.771Z</time>
      </trkpt>
      <trkpt lat="47.588886" lon="8.166773">
        <ele>334.613343</ele>
        <time>2021-11-21T17:18:55.776Z</time>
      </trkpt>
      <trkpt lat="47.588936" lon="8.167065">
        <ele>334.262249</ele>
        <time>2021-11-21T17:18:57.999Z</time>
      </trkpt>
      <trkpt lat="47.589090" lon="8.168074">
        <ele>333.904806</ele>
        <time>2021-11-21T17:19:05.787Z</time>
      </trkpt>
      <trkpt lat="47.589109" lon="8.168214">
        <ele>333.930640</ele>
        <time>2021-11-21T17:19:07.110Z</time>
      </trkpt>
      <trkpt lat="47.589149" lon="8.168412">
        <ele>333.968031</ele>
        <time>2021-11-21T17:19:08.769Z</time>
      </trkpt>
      <trkpt lat="47.589265" lon="8.169049">
        <ele>334.087392</ele>
        <time>2021-11-21T17:19:16.213Z</time>
      </trkpt>
      <trkpt lat="47.589280" lon="8.169122">
        <ele>334.101198</ele>
        <time>2021-11-21T17:19:17.378Z</time>
      </trkpt>
      <trkpt lat="47.589338" lon="8.169503">
        <ele>334.171855</ele>
        <time>2021-11-21T17:19:23.262Z</time>
      </trkpt>
      <trkpt lat="47.589422" lon="8.169985">
        <ele>334.261914</ele>
        <time>2021-11-21T17:19:30.748Z</time>
      </trkpt>
      <trkpt lat="47.589432" lon="8.170029">
        <ele>334.270313</ele>
        <time>2021-11-21T17:19:31.427Z</time>
      </trkpt>
      <trkpt lat="47.589507" lon="8.170514">
        <ele>335.074918</ele>
        <time>2021-11-21T17:19:39.247Z</time>
      </trkpt>
      <trkpt lat="47.589603" lon="8.171150">
        <ele>336.160653</ele>
        <time>2021-11-21T17:19:49.322Z</time>
      </trkpt>
      <trkpt lat="47.589628" lon="8.171343">
        <ele>336.488052</ele>
        <time>2021-11-21T17:19:52.494Z</time>
      </trkpt>
      <trkpt lat="47.589692" lon="8.171703">
        <ele>337.108267</ele>
        <time>2021-11-21T17:19:59.048Z</time>
      </trkpt>
      <trkpt lat="47.589753" lon="8.172071">
        <ele>337.739568</ele>
        <time>2021-11-21T17:20:05.636Z</time>
      </trkpt>
      <trkpt lat="47.589801" lon="8.172357">
        <ele>338.230550</ele>
        <time>2021-11-21T17:20:11.399Z</time>
      </trkpt>
      <trkpt lat="47.589842" lon="8.172596">
        <ele>338.641380</ele>
        <time>2021-11-21T17:20:15.661Z</time>
      </trkpt>
      <trkpt lat="47.589911" lon="8.172969">
        <ele>339.105005</ele>
        <time>2021-11-21T17:20:22.757Z</time>
      </trkpt>
      <trkpt lat="47.589945" lon="8.173167">
        <ele>339.337398</ele>
        <time>2021-11-21T17:20:26.208Z</time>
      </trkpt>
      <trkpt lat="47.589895" lon="8.173206">
        <ele>339.432678</ele>
        <time>2021-11-21T17:20:27.797Z</time>
      </trkpt>
      <trkpt lat="47.589843" lon="8.173241">
        <ele>339.528987</ele>
        <time>2021-11-21T17:20:29.246Z</time>
      </trkpt>
      <trkpt lat="47.589770" lon="8.173440">
        <ele>339.786648</ele>
        <time>2021-11-21T17:20:32.959Z</time>
      </trkpt>
      <trkpt lat="47.589693" lon="8.173800">
        <ele>340.216217</ele>
        <time>2021-11-21T17:20:39.039Z</time>
      </trkpt>
      <trkpt lat="47.589501" lon="8.174623">
        <ele>341.206735</ele>
        <time>2021-11-21T17:20:50.107Z</time>
      </trkpt>
      <trkpt lat="47.589478" lon="8.175262">
        <ele>341.667749</ele>
        <time>2021-11-21T17:20:57.743Z</time>
      </trkpt>
      <trkpt lat="47.589490" lon="8.175383">
        <ele>341.606356</ele>
        <time>2021-11-21T17:20:59.643Z</time>
      </trkpt>
      <trkpt lat="47.589515" lon="8.175608">
        <ele>341.491886</ele>
        <time>2021-11-21T17:21:01.564Z</time>
      </trkpt>
      <trkpt lat="47.589566" lon="8.176002">
        <ele>341.290494</ele>
        <time>2021-11-21T17:21:05.557Z</time>
      </trkpt>
      <trkpt lat="47.589591" lon="8.176143">
        <ele>341.217309</ele>
        <time>2021-11-21T17:21:06.635Z</time>
      </trkpt>
      <trkpt lat="47.589977" lon="8.177608">
        <ele>340.427775</ele>
        <time>2021-11-21T17:21:19.331Z</time>
      </trkpt>
      <trkpt lat="47.590057" lon="8.177917">
        <ele>340.274510</ele>
        <time>2021-11-21T17:21:21.785Z</time>
      </trkpt>
      <trkpt lat="47.590102" lon="8.178128">
        <ele>340.173022</ele>
        <time>2021-11-21T17:21:23.385Z</time>
      </trkpt>
      <trkpt lat="47.590215" lon="8.178972">
        <ele>339.778408</ele>
        <time>2021-11-21T17:21:30.328Z</time>
      </trkpt>
      <trkpt lat="47.590303" lon="8.179625">
        <ele>339.473021</ele>
        <time>2021-11-21T17:21:36.370Z</time>
      </trkpt>
      <trkpt lat="47.590351" lon="8.179884">
        <ele>339.349840</ele>
        <time>2021-11-21T17:21:39.124Z</time>
      </trkpt>
      <trkpt lat="47.590375" lon="8.179996">
        <ele>339.295946</ele>
        <time>2021-11-21T17:21:40.537Z</time>
      </trkpt>
      <trkpt lat="47.590434" lon="8.180243">
        <ele>339.206154</ele>
        <time>2021-11-21T17:21:43.289Z</time>
      </trkpt>
      <trkpt lat="47.590832" lon="8.181817">
        <ele>340.405298</ele>
        <time>2021-11-21T17:22:03.795Z</time>
      </trkpt>
      <trkpt lat="47.590880" lon="8.182008">
        <ele>340.550700</ele>
        <time>2021-11-21T17:22:06.769Z</time>
      </trkpt>
      <trkpt lat="47.591195" lon="8.183419">
        <ele>342.020260</ele>
        <time>2021-11-21T17:22:28.476Z</time>
      </trkpt>
      <trkpt lat="47.591305" lon="8.183971">
        <ele>342.753551</ele>
        <time>2021-11-21T17:22:37.133Z</time>
      </trkpt>
      <trkpt lat="47.591334" lon="8.184128">
        <ele>342.960930</ele>
        <time>2021-11-21T17:22:39.338Z</time>
      </trkpt>
      <trkpt lat="47.591379" lon="8.184371">
        <ele>343.281964</ele>
        <time>2021-11-21T17:22:43.091Z</time>
      </trkpt>
      <trkpt lat="47.591501" lon="8.185172">
        <ele>344.328113</ele>
        <time>2021-11-21T17:22:55.507Z</time>
      </trkpt>
      <trkpt lat="47.591518" lon="8.185304">
        <ele>344.503879</ele>
        <time>2021-11-21T17:22:57.977Z</time>
      </trkpt>
      <trkpt lat="47.591548" lon="8.185696">
        <ele>345.205357</ele>
        <time>2021-11-21T17:23:04.089Z</time>
      </trkpt>
      <trkpt lat="47.591536" lon="8.186531">
        <ele>346.690385</ele>
        <time>2021-11-21T17:23:18.766Z</time>
      </trkpt>
      <trkpt lat="47.591523" lon="8.186704">
        <ele>346.999895</ele>
        <time>2021-11-21T17:23:21.782Z</time>
      </trkpt>
      <trkpt lat="47.591476" lon="8.187134">
        <ele>347.774443</ele>
        <time>2021-11-21T17:23:29.168Z</time>
      </trkpt>
      <trkpt lat="47.591345" lon="8.188163">
        <ele>349.879295</ele>
        <time>2021-11-21T17:23:46.965Z</time>
      </trkpt>
      <trkpt lat="47.591307" lon="8.188502">
        <ele>350.855425</ele>
        <time>2021-11-21T17:23:53.575Z</time>
      </trkpt>
      <trkpt lat="47.591268" lon="8.189184">
        <ele>352.799581</ele>
        <time>2021-11-21T17:24:07.308Z</time>
      </trkpt>
      <trkpt lat="47.591267" lon="8.189812">
        <ele>354.583405</ele>
        <time>2021-11-21T17:24:20.043Z</time>
      </trkpt>
      <trkpt lat="47.591278" lon="8.189994">
        <ele>355.102443</ele>
        <time>2021-11-21T17:24:24.129Z</time>
      </trkpt>
      <trkpt lat="47.591285" lon="8.190112">
        <ele>355.438914</ele>
        <time>2021-11-21T17:24:26.756Z</time>
      </trkpt>
      <trkpt lat="47.591368" lon="8.190744">
        <ele>357.650835</ele>
        <time>2021-11-21T17:24:43.060Z</time>
      </trkpt>
      <trkpt lat="47.591378" lon="8.190799">
        <ele>357.946643</ele>
        <time>2021-11-21T17:24:44.800Z</time>
      </trkpt>
      <trkpt lat="47.591489" lon="8.191403">
        <ele>361.197527</ele>
        <time>2021-11-21T17:25:03.332Z</time>
      </trkpt>
      <trkpt lat="47.591703" lon="8.192411">
        <ele>366.685197</ele>
        <time>2021-11-21T17:25:38.763Z</time>
      </trkpt>
      <trkpt lat="47.591937" lon="8.193546">
        <ele>372.373556</ele>
        <time>2021-11-21T17:26:17.385Z</time>
      </trkpt>
      <trkpt lat="47.592186" lon="8.194589">
        <ele>376.875457</ele>
        <time>2021-11-21T17:26:49.026Z</time>
      </trkpt>
      <trkpt lat="47.592260" lon="8.194792">
        <ele>377.814379</ele>
        <time>2021-11-21T17:26:56.043Z</time>
      </trkpt>
      <trkpt lat="47.592364" lon="8.194991">
        <ele>378.838748</ele>
        <time>2021-11-21T17:27:00.880Z</time>
      </trkpt>
      <trkpt lat="47.592631" lon="8.195513">
        <ele>381.504473</ele>
        <time>2021-11-21T17:27:14.081Z</time>
      </trkpt>
      <trkpt lat="47.592748" lon="8.196079">
        <ele>382.124554</ele>
        <time>2021-11-21T17:27:25.105Z</time>
      </trkpt>
      <trkpt lat="47.592733" lon="8.196307">
        <ele>382.363935</ele>
        <time>2021-11-21T17:27:29.177Z</time>
      </trkpt>
      <trkpt lat="47.592346" lon="8.197513">
        <ele>383.759549</ele>
        <time>2021-11-21T17:27:46.297Z</time>
      </trkpt>
      <trkpt lat="47.592326" lon="8.197660">
        <ele>383.916253</ele>
        <time>2021-11-21T17:27:48.480Z</time>
      </trkpt>
      <trkpt lat="47.592316" lon="8.197909">
        <ele>384.176911</ele>
        <time>2021-11-21T17:27:51.300Z</time>
      </trkpt>
      <trkpt lat="47.592467" lon="8.199013">
        <ele>383.013160</ele>
        <time>2021-11-21T17:28:00.953Z</time>
      </trkpt>
      <trkpt lat="47.592515" lon="8.199406">
        <ele>382.509396</ele>
        <time>2021-11-21T17:28:04.126Z</time>
      </trkpt>
      <trkpt lat="47.592520" lon="8.199514">
        <ele>382.372852</ele>
        <time>2021-11-21T17:28:04.955Z</time>
      </trkpt>
      <trkpt lat="47.592521" lon="8.199660">
        <ele>382.188689</ele>
        <time>2021-11-21T17:28:05.904Z</time>
      </trkpt>
      <trkpt lat="47.592468" lon="8.200119">
        <ele>381.601317</ele>
        <time>2021-11-21T17:28:09.371Z</time>
      </trkpt>
      <trkpt lat="47.592354" lon="8.200494">
        <ele>381.082485</ele>
        <time>2021-11-21T17:28:12.179Z</time>
      </trkpt>
      <trkpt lat="47.592030" lon="8.200989">
        <ele>379.008596</ele>
        <time>2021-11-21T17:28:16.647Z</time>
      </trkpt>
      <trkpt lat="47.591683" lon="8.201242">
        <ele>377.071158</ele>
        <time>2021-11-21T17:28:20.216Z</time>
      </trkpt>
      <trkpt lat="47.590598" lon="8.201738">
        <ele>371.362842</ele>
        <time>2021-11-21T17:28:30.830Z</time>
      </trkpt>
      <trkpt lat="47.590444" lon="8.201859">
        <ele>370.457783</ele>
        <time>2021-11-21T17:28:32.450Z</time>
      </trkpt>
      <trkpt lat="47.590356" lon="8.201937">
        <ele>369.925376</ele>
        <time>2021-11-21T17:28:33.370Z</time>
      </trkpt>
      <trkpt lat="47.589912" lon="8.202359">
        <ele>367.186666</ele>
        <time>2021-11-21T17:28:38.333Z</time>
      </trkpt>
      <trkpt lat="47.589702" lon="8.202598">
        <ele>365.811931</ele>
        <time>2021-11-21T17:28:40.776Z</time>
      </trkpt>
      <trkpt lat="47.589482" lon="8.202879">
        <ele>364.304033</ele>
        <time>2021-11-21T17:28:43.456Z</time>
      </trkpt>
      <trkpt lat="47.588922" lon="8.203709">
        <ele>361.059254</ele>
        <time>2021-11-21T17:28:51.103Z</time>
      </trkpt>
      <trkpt lat="47.588784" lon="8.203936">
        <ele>360.378036</ele>
        <time>2021-11-21T17:28:53.113Z</time>
      </trkpt>
      <trkpt lat="47.588659" lon="8.204154">
        <ele>359.740218</ele>
        <time>2021-11-21T17:28:55.056Z</time>
      </trkpt>
      <trkpt lat="47.588406" lon="8.204601">
        <ele>358.439450</ele>
        <time>2021-11-21T17:28:59.096Z</time>
      </trkpt>
      <trkpt lat="47.588289" lon="8.204799">
        <ele>357.852656</ele>
        <time>2021-11-21T17:29:00.992Z</time>
      </trkpt>
      <trkpt lat="47.588073" lon="8.205142">
        <ele>356.806607</ele>
        <time>2021-11-21T17:29:04.373Z</time>
      </trkpt>
      <trkpt lat="47.587909" lon="8.205353">
        <ele>356.276000</ele>
        <time>2021-11-21T17:29:06.720Z</time>
      </trkpt>
      <trkpt lat="47.587760" lon="8.205520">
        <ele>355.871085</ele>
        <time>2021-11-21T17:29:08.745Z</time>
      </trkpt>
      <trkpt lat="47.587567" lon="8.205704">
        <ele>355.373660</ele>
        <time>2021-11-21T17:29:11.319Z</time>
      </trkpt>
      <trkpt lat="47.587417" lon="8.205824">
        <ele>355.004167</ele>
        <time>2021-11-21T17:29:13.307Z</time>
      </trkpt>
      <trkpt lat="47.587275" lon="8.205923">
        <ele>354.663998</ele>
        <time>2021-11-21T17:29:15.018Z</time>
      </trkpt>
      <trkpt lat="47.586388" lon="8.206416">
        <ele>352.608597</ele>
        <time>2021-11-21T17:29:25.225Z</time>
      </trkpt>
      <trkpt lat="47.586035" lon="8.206675">
        <ele>351.741935</ele>
        <time>2021-11-21T17:29:29.348Z</time>
      </trkpt>
      <trkpt lat="47.585834" lon="8.206877">
        <ele>351.207616</ele>
        <time>2021-11-21T17:29:31.900Z</time>
      </trkpt>
      <trkpt lat="47.585598" lon="8.207197">
        <ele>350.503887</ele>
        <time>2021-11-21T17:29:35.325Z</time>
      </trkpt>
      <trkpt lat="47.585368" lon="8.207566">
        <ele>349.758188</ele>
        <time>2021-11-21T17:29:38.993Z</time>
      </trkpt>
      <trkpt lat="47.585211" lon="8.207810">
        <ele>349.257696</ele>
        <time>2021-11-21T17:29:41.429Z</time>
      </trkpt>
      <trkpt lat="47.585064" lon="8.208024">
        <ele>348.804367</ele>
        <time>2021-11-21T17:29:43.721Z</time>
      </trkpt>
      <trkpt lat="47.585009" lon="8.208106">
        <ele>348.708174</ele>
        <time>2021-11-21T17:29:44.576Z</time>
      </trkpt>
      <trkpt lat="47.584907" lon="8.208222">
        <ele>348.574695</ele>
        <time>2021-11-21T17:29:45.940Z</time>
      </trkpt>
      <trkpt lat="47.583036" lon="8.209956">
        <ele>346.705146</ele>
        <time>2021-11-21T17:30:13.668Z</time>
      </trkpt>
      <trkpt lat="47.582928" lon="8.210081">
        <ele>346.658923</ele>
        <time>2021-11-21T17:30:15.719Z</time>
      </trkpt>
      <trkpt lat="47.582721" lon="8.210336">
        <ele>346.568126</ele>
        <time>2021-11-21T17:30:19.555Z</time>
      </trkpt>
      <trkpt lat="47.582264" lon="8.211191">
        <ele>346.319883</ele>
        <time>2021-11-21T17:30:30.434Z</time>
      </trkpt>
      <trkpt lat="47.581926" lon="8.212145">
        <ele>346.316500</ele>
        <time>2021-11-21T17:30:41.115Z</time>
      </trkpt>
      <trkpt lat="47.581683" lon="8.212808">
        <ele>346.328086</ele>
        <time>2021-11-21T17:30:48.622Z</time>
      </trkpt>
      <trkpt lat="47.581569" lon="8.213125">
        <ele>346.333601</ele>
        <time>2021-11-21T17:30:52.279Z</time>
      </trkpt>
      <trkpt lat="47.581497" lon="8.213306">
        <ele>346.336828</ele>
        <time>2021-11-21T17:30:54.539Z</time>
      </trkpt>
      <trkpt lat="47.581346" lon="8.213669">
        <ele>346.342117</ele>
        <time>2021-11-21T17:30:58.865Z</time>
      </trkpt>
      <trkpt lat="47.581280" lon="8.213836">
        <ele>346.342021</ele>
        <time>2021-11-21T17:31:00.816Z</time>
      </trkpt>
      <trkpt lat="47.581242" lon="8.213807">
        <ele>346.341989</ele>
        <time>2021-11-21T17:31:01.422Z</time>
      </trkpt>
      <trkpt lat="47.581137" lon="8.213368">
        <ele>346.341758</ele>
        <time>2021-11-21T17:31:06.190Z</time>
      </trkpt>
      <trkpt lat="47.581118" lon="8.213205">
        <ele>346.341676</ele>
        <time>2021-11-21T17:31:07.796Z</time>
      </trkpt>
      <trkpt lat="47.581013" lon="8.212368">
        <ele>346.341254</ele>
        <time>2021-11-21T17:31:16.224Z</time>
      </trkpt>
      <trkpt lat="47.581013" lon="8.212368">
        <ele>346.341254</ele>
        <time>2021-11-21T17:31:16.238Z</time>
      </trkpt>
      <trkpt lat="47.581266" lon="8.212331">
        <ele>346.341067</ele>
        <time>2021-11-21T17:31:44.470Z</time>
      </trkpt>
      <trkpt lat="47.581519" lon="8.212388">
        <ele>346.340879</ele>
        <time>2021-11-21T17:32:12.792Z</time>
      </trkpt>
      <trkpt lat="47.581552" lon="8.212564">
        <ele>346.368462</ele>
        <time>2021-11-21T17:32:26.539Z</time>
      </trkpt>
      <trkpt lat="47.581504" lon="8.212987">
        <ele>346.498123</ele>
        <time>2021-11-21T17:32:58.893Z</time>
      </trkpt>
      <trkpt lat="47.581569" lon="8.213125">
        <ele>346.549001</ele>
        <time>2021-11-21T17:33:11.639Z</time>
      </trkpt>
      <trkpt lat="47.581497" lon="8.213306">
        <ele>346.612519</ele>
        <time>2021-11-21T17:33:13.889Z</time>
      </trkpt>
      <trkpt lat="47.581346" lon="8.213669">
        <ele>346.741434</ele>
        <time>2021-11-21T17:33:18.682Z</time>
      </trkpt>
      <trkpt lat="47.581280" lon="8.213836">
        <ele>346.799941</ele>
        <time>2021-11-21T17:33:20.833Z</time>
      </trkpt>
      <trkpt lat="47.581242" lon="8.213807">
        <ele>346.819094</ele>
        <time>2021-11-21T17:33:21.525Z</time>
      </trkpt>
      <trkpt lat="47.581137" lon="8.213368">
        <ele>346.959891</ele>
        <time>2021-11-21T17:33:26.872Z</time>
      </trkpt>
      <trkpt lat="47.581118" lon="8.213205">
        <ele>347.009893</ele>
        <time>2021-11-21T17:33:28.748Z</time>
      </trkpt>
      <trkpt lat="47.581013" lon="8.212368">
        <ele>347.603830</ele>
        <time>2021-11-21T17:33:39.014Z</time>
      </trkpt>
      <trkpt lat="47.580963" lon="8.211892">
        <ele>348.156590</ele>
        <time>2021-11-21T17:33:45.322Z</time>
      </trkpt>
      <trkpt lat="47.580836" lon="8.210234">
        <ele>350.071262</ele>
        <time>2021-11-21T17:34:11.180Z</time>
      </trkpt>
      <trkpt lat="47.580785" lon="8.209548">
        <ele>351.223871</ele>
        <time>2021-11-21T17:34:22.911Z</time>
      </trkpt>
      <trkpt lat="47.580727" lon="8.208870">
        <ele>352.438761</ele>
        <time>2021-11-21T17:34:34.239Z</time>
      </trkpt>
      <trkpt lat="47.580689" lon="8.208458">
        <ele>353.177962</ele>
        <time>2021-11-21T17:34:41.445Z</time>
      </trkpt>
      <trkpt lat="47.580409" lon="8.205773">
        <ele>358.066381</ele>
        <time>2021-11-21T17:35:29.754Z</time>
      </trkpt>
      <trkpt lat="47.580399" lon="8.205653">
        <ele>358.285445</ele>
        <time>2021-11-21T17:35:31.838Z</time>
      </trkpt>
      <trkpt lat="47.580352" lon="8.205210">
        <ele>359.097923</ele>
        <time>2021-11-21T17:35:39.119Z</time>
      </trkpt>
      <trkpt lat="47.580165" lon="8.203774">
        <ele>361.381263</ele>
        <time>2021-11-21T17:36:02.684Z</time>
      </trkpt>
      <trkpt lat="47.579829" lon="8.202861">
        <ele>362.915186</ele>
        <time>2021-11-21T17:36:19.048Z</time>
      </trkpt>
      <trkpt lat="47.579523" lon="8.202175">
        <ele>364.163748</ele>
        <time>2021-11-21T17:36:31.557Z</time>
      </trkpt>
      <trkpt lat="47.579408" lon="8.201917">
        <ele>364.658645</ele>
        <time>2021-11-21T17:36:36.870Z</time>
      </trkpt>
      <trkpt lat="47.579131" lon="8.201438">
        <ele>365.668363</ele>
        <time>2021-11-21T17:36:46.594Z</time>
      </trkpt>
      <trkpt lat="47.578817" lon="8.201076">
        <ele>366.612075</ele>
        <time>2021-11-21T17:36:56.290Z</time>
      </trkpt>
      <trkpt lat="47.578441" lon="8.200648">
        <ele>367.736769</ele>
        <time>2021-11-21T17:37:08.524Z</time>
      </trkpt>
      <trkpt lat="47.578334" lon="8.200508">
        <ele>368.085603</ele>
        <time>2021-11-21T17:37:12.308Z</time>
      </trkpt>
      <trkpt lat="47.577966" lon="8.199918">
        <ele>369.505673</ele>
        <time>2021-11-21T17:37:26.455Z</time>
      </trkpt>
      <trkpt lat="47.577833" lon="8.199696">
        <ele>370.030387</ele>
        <time>2021-11-21T17:37:30.792Z</time>
      </trkpt>
      <trkpt lat="47.577794" lon="8.199631">
        <ele>370.184121</ele>
        <time>2021-11-21T17:37:32.468Z</time>
      </trkpt>
      <trkpt lat="47.577488" lon="8.199356">
        <ele>371.121579</ele>
        <time>2021-11-21T17:37:41.613Z</time>
      </trkpt>
      <trkpt lat="47.577432" lon="8.199320">
        <ele>371.281487</ele>
        <time>2021-11-21T17:37:43.279Z</time>
      </trkpt>
      <trkpt lat="47.577283" lon="8.199241">
        <ele>371.696047</ele>
        <time>2021-11-21T17:37:46.727Z</time>
      </trkpt>
      <trkpt lat="47.577220" lon="8.199207">
        <ele>371.871689</ele>
        <time>2021-11-21T17:37:48.442Z</time>
      </trkpt>
      <trkpt lat="47.577129" lon="8.199176">
        <ele>372.116301</ele>
        <time>2021-11-21T17:37:50.767Z</time>
      </trkpt>
      <trkpt lat="47.576993" lon="8.199134">
        <ele>372.480237</ele>
        <time>2021-11-21T17:37:54.462Z</time>
      </trkpt>
      <trkpt lat="47.576952" lon="8.199107">
        <ele>372.597769</ele>
        <time>2021-11-21T17:37:55.240Z</time>
      </trkpt>
      <trkpt lat="47.576579" lon="8.198621">
        <ele>374.368962</ele>
        <time>2021-11-21T17:38:08.473Z</time>
      </trkpt>
      <trkpt lat="47.576517" lon="8.198560">
        <ele>374.639684</ele>
        <time>2021-11-21T17:38:10.968Z</time>
      </trkpt>
      <trkpt lat="47.576449" lon="8.198516">
        <ele>374.909614</ele>
        <time>2021-11-21T17:38:13.194Z</time>
      </trkpt>
      <trkpt lat="47.576404" lon="8.198504">
        <ele>375.075954</ele>
        <time>2021-11-21T17:38:14.138Z</time>
      </trkpt>
      <trkpt lat="47.576370" lon="8.198512">
        <ele>375.201197</ele>
        <time>2021-11-21T17:38:14.766Z</time>
      </trkpt>
      <trkpt lat="47.576353" lon="8.198518">
        <ele>375.264773</ele>
        <time>2021-11-21T17:38:15.682Z</time>
      </trkpt>
      <trkpt lat="47.576243" lon="8.198668">
        <ele>375.808534</ele>
        <time>2021-11-21T17:38:19.442Z</time>
      </trkpt>
      <trkpt lat="47.576040" lon="8.199164">
        <ele>377.232362</ele>
        <time>2021-11-21T17:38:30.062Z</time>
      </trkpt>
      <trkpt lat="47.575997" lon="8.199245">
        <ele>377.485329</ele>
        <time>2021-11-21T17:38:32.221Z</time>
      </trkpt>
      <trkpt lat="47.575939" lon="8.199309">
        <ele>377.748381</ele>
        <time>2021-11-21T17:38:33.740Z</time>
      </trkpt>
      <trkpt lat="47.575835" lon="8.199428">
        <ele>378.226349</ele>
        <time>2021-11-21T17:38:37.220Z</time>
      </trkpt>
      <trkpt lat="47.575594" lon="8.199685">
        <ele>379.375627</ele>
        <time>2021-11-21T17:38:47.709Z</time>
      </trkpt>
      <trkpt lat="47.575461" lon="8.199807">
        <ele>380.478306</ele>
        <time>2021-11-21T17:38:53.404Z</time>
      </trkpt>
      <trkpt lat="47.574616" lon="8.200755">
        <ele>387.949560</ele>
        <time>2021-11-21T17:39:42.228Z</time>
      </trkpt>
      <trkpt lat="47.574515" lon="8.200813">
        <ele>388.713189</ele>
        <time>2021-11-21T17:39:47.753Z</time>
      </trkpt>
      <trkpt lat="47.574450" lon="8.200829">
        <ele>389.177722</ele>
        <time>2021-11-21T17:39:51.692Z</time>
      </trkpt>
      <trkpt lat="47.574356" lon="8.200811">
        <ele>389.845939</ele>
        <time>2021-11-21T17:39:54.723Z</time>
      </trkpt>
      <trkpt lat="47.574247" lon="8.200781">
        <ele>390.627535</ele>
        <time>2021-11-21T17:39:59.867Z</time>
      </trkpt>
      <trkpt lat="47.574089" lon="8.200695">
        <ele>391.814178</ele>
        <time>2021-11-21T17:40:08.967Z</time>
      </trkpt>
      <trkpt lat="47.572804" lon="8.199969">
        <ele>397.881096</ele>
        <time>2021-11-21T17:41:00.849Z</time>
      </trkpt>
      <trkpt lat="47.572312" lon="8.199751">
        <ele>399.741573</ele>
        <time>2021-11-21T17:41:08.835Z</time>
      </trkpt>
      <trkpt lat="47.572250" lon="8.199723">
        <ele>399.692261</ele>
        <time>2021-11-21T17:41:09.603Z</time>
      </trkpt>
      <trkpt lat="47.571863" lon="8.199549">
        <ele>399.384571</ele>
        <time>2021-11-21T17:41:14.513Z</time>
      </trkpt>
      <trkpt lat="47.571416" lon="8.199356">
        <ele>399.030345</ele>
        <time>2021-11-21T17:41:19.858Z</time>
      </trkpt>
      <trkpt lat="47.571180" lon="8.199253">
        <ele>398.843166</ele>
        <time>2021-11-21T17:41:22.600Z</time>
      </trkpt>
      <trkpt lat="47.570594" lon="8.199059">
        <ele>398.598361</ele>
        <time>2021-11-21T17:41:29.789Z</time>
      </trkpt>
      <trkpt lat="47.570363" lon="8.199052">
        <ele>399.258364</ele>
        <time>2021-11-21T17:41:32.995Z</time>
      </trkpt>
      <trkpt lat="47.569934" lon="8.199154">
        <ele>400.499496</ele>
        <time>2021-11-21T17:41:41.080Z</time>
      </trkpt>
      <trkpt lat="47.569792" lon="8.199218">
        <ele>400.923468</ele>
        <time>2021-11-21T17:41:44.562Z</time>
      </trkpt>
      <trkpt lat="47.569710" lon="8.199256">
        <ele>401.168888</ele>
        <time>2021-11-21T17:41:46.532Z</time>
      </trkpt>
      <trkpt lat="47.569668" lon="8.199275">
        <ele>401.294328</ele>
        <time>2021-11-21T17:41:47.540Z</time>
      </trkpt>
      <trkpt lat="47.569431" lon="8.199372">
        <ele>401.996671</ele>
        <time>2021-11-21T17:41:54.371Z</time>
      </trkpt>
      <trkpt lat="47.568571" lon="8.199729">
        <ele>406.394696</ele>
        <time>2021-11-21T17:42:30.018Z</time>
      </trkpt>
      <trkpt lat="47.567931" lon="8.199770">
        <ele>411.676699</ele>
        <time>2021-11-21T17:43:01.896Z</time>
      </trkpt>
      <trkpt lat="47.567733" lon="8.199741">
        <ele>413.317246</ele>
        <time>2021-11-21T17:43:12.450Z</time>
      </trkpt>
      <trkpt lat="47.567549" lon="8.199701">
        <ele>414.850639</ele>
        <time>2021-11-21T17:43:21.168Z</time>
      </trkpt>
      <trkpt lat="47.567494" lon="8.199692">
        <ele>415.306894</ele>
        <time>2021-11-21T17:43:24.088Z</time>
      </trkpt>
      <trkpt lat="47.567182" lon="8.199624">
        <ele>417.907135</ele>
        <time>2021-11-21T17:43:39.568Z</time>
      </trkpt>
      <trkpt lat="47.566549" lon="8.199512">
        <ele>423.670337</ele>
        <time>2021-11-21T17:44:14.023Z</time>
      </trkpt>
      <trkpt lat="47.565402" lon="8.199270">
        <ele>434.239385</ele>
        <time>2021-11-21T17:45:17.198Z</time>
      </trkpt>
      <trkpt lat="47.565276" lon="8.199206">
        <ele>435.016484</ele>
        <time>2021-11-21T17:45:24.392Z</time>
      </trkpt>
      <trkpt lat="47.565203" lon="8.199174">
        <ele>435.240711</ele>
        <time>2021-11-21T17:45:27.768Z</time>
      </trkpt>
      <trkpt lat="47.565092" lon="8.199089">
        <ele>435.608722</ele>
        <time>2021-11-21T17:45:29.970Z</time>
      </trkpt>
      <trkpt lat="47.564963" lon="8.198970">
        <ele>436.056280</ele>
        <time>2021-11-21T17:45:36.700Z</time>
      </trkpt>
      <trkpt lat="47.564900" lon="8.198893">
        <ele>436.296808</ele>
        <time>2021-11-21T17:45:39.639Z</time>
      </trkpt>
      <trkpt lat="47.564786" lon="8.198730">
        <ele>436.763389</ele>
        <time>2021-11-21T17:45:41.835Z</time>
      </trkpt>
      <trkpt lat="47.564717" lon="8.198585">
        <ele>437.116028</ele>
        <time>2021-11-21T17:45:46.570Z</time>
      </trkpt>
      <trkpt lat="47.564682" lon="8.198489">
        <ele>437.332895</ele>
        <time>2021-11-21T17:45:48.296Z</time>
      </trkpt>
      <trkpt lat="47.564571" lon="8.198114">
        <ele>438.146755</ele>
        <time>2021-11-21T17:45:54.066Z</time>
      </trkpt>
      <trkpt lat="47.564411" lon="8.197395">
        <ele>439.651458</ele>
        <time>2021-11-21T17:46:04.275Z</time>
      </trkpt>
      <trkpt lat="47.564252" lon="8.196687">
        <ele>439.925101</ele>
        <time>2021-11-21T17:46:10.923Z</time>
      </trkpt>
      <trkpt lat="47.564213" lon="8.196452">
        <ele>439.840793</ele>
        <time>2021-11-21T17:46:12.486Z</time>
      </trkpt>
      <trkpt lat="47.564170" lon="8.196214">
        <ele>439.754959</ele>
        <time>2021-11-21T17:46:14.251Z</time>
      </trkpt>
      <trkpt lat="47.564110" lon="8.195703">
        <ele>439.574264</ele>
        <time>2021-11-21T17:46:17.886Z</time>
      </trkpt>
      <trkpt lat="47.564107" lon="8.195673">
        <ele>439.563698</ele>
        <time>2021-11-21T17:46:18.778Z</time>
      </trkpt>
      <trkpt lat="47.564079" lon="8.195206">
        <ele>439.400366</ele>
        <time>2021-11-21T17:46:22.428Z</time>
      </trkpt>
      <trkpt lat="47.564061" lon="8.194828">
        <ele>439.268352</ele>
        <time>2021-11-21T17:46:26.367Z</time>
      </trkpt>
      <trkpt lat="47.564028" lon="8.194134">
        <ele>440.136371</ele>
        <time>2021-11-21T17:46:37.966Z</time>
      </trkpt>
      <trkpt lat="47.564019" lon="8.193989">
        <ele>440.459006</ele>
        <time>2021-11-21T17:46:41.668Z</time>
      </trkpt>
      <trkpt lat="47.563969" lon="8.193666">
        <ele>441.193275</ele>
        <time>2021-11-21T17:46:48.879Z</time>
      </trkpt>
      <trkpt lat="47.563876" lon="8.193308">
        <ele>442.043257</ele>
        <time>2021-11-21T17:46:57.606Z</time>
      </trkpt>
      <trkpt lat="47.563699" lon="8.192817">
        <ele>443.276700</ele>
        <time>2021-11-21T17:47:08.769Z</time>
      </trkpt>
      <trkpt lat="47.563580" lon="8.192549">
        <ele>443.987552</ele>
        <time>2021-11-21T17:47:14.396Z</time>
      </trkpt>
      <trkpt lat="47.563443" lon="8.192289">
        <ele>444.718483</ele>
        <time>2021-11-21T17:47:20.891Z</time>
      </trkpt>
      <trkpt lat="47.563220" lon="8.191911">
        <ele>445.630070</ele>
        <time>2021-11-21T17:47:30.310Z</time>
      </trkpt>
      <trkpt lat="47.563121" lon="8.191765">
        <ele>445.965490</ele>
        <time>2021-11-21T17:47:33.793Z</time>
      </trkpt>
      <trkpt lat="47.562742" lon="8.191268">
        <ele>447.180867</ele>
        <time>2021-11-21T17:47:47.442Z</time>
      </trkpt>
      <trkpt lat="47.562600" lon="8.191109">
        <ele>447.608290</ele>
        <time>2021-11-21T17:47:51.696Z</time>
      </trkpt>
      <trkpt lat="47.562270" lon="8.190771">
        <ele>448.571678</ele>
        <time>2021-11-21T17:48:00.776Z</time>
      </trkpt>
      <trkpt lat="47.561339" lon="8.190034">
        <ele>450.934539</ele>
        <time>2021-11-21T17:48:22.289Z</time>
      </trkpt>
      <trkpt lat="47.560917" lon="8.189786">
        <ele>451.914725</ele>
        <time>2021-11-21T17:48:31.542Z</time>
      </trkpt>
      <trkpt lat="47.560801" lon="8.189726">
        <ele>452.180002</ele>
        <time>2021-11-21T17:48:35.685Z</time>
      </trkpt>
      <trkpt lat="47.560673" lon="8.189659">
        <ele>452.473105</ele>
        <time>2021-11-21T17:48:39.014Z</time>
      </trkpt>
      <trkpt lat="47.560109" lon="8.189498">
        <ele>454.218916</ele>
        <time>2021-11-21T17:48:55.114Z</time>
      </trkpt>
      <trkpt lat="47.559834" lon="8.189566">
        <ele>455.533551</ele>
        <time>2021-11-21T17:49:02.557Z</time>
      </trkpt>
      <trkpt lat="47.559559" lon="8.189740">
        <ele>456.943513</ele>
        <time>2021-11-21T17:49:12.295Z</time>
      </trkpt>
      <trkpt lat="47.559488" lon="8.189816">
        <ele>457.356508</ele>
        <time>2021-11-21T17:49:14.739Z</time>
      </trkpt>
      <trkpt lat="47.559378" lon="8.189953">
        <ele>458.034055</ele>
        <time>2021-11-21T17:49:20.825Z</time>
      </trkpt>
      <trkpt lat="47.558371" lon="8.192047">
        <ele>467.061893</ele>
        <time>2021-11-21T17:50:25.704Z</time>
      </trkpt>
      <trkpt lat="47.558109" lon="8.192336">
        <ele>468.894837</ele>
        <time>2021-11-21T17:50:37.622Z</time>
      </trkpt>
      <trkpt lat="47.557808" lon="8.192484">
        <ele>470.674571</ele>
        <time>2021-11-21T17:50:49.041Z</time>
      </trkpt>
      <trkpt lat="47.557714" lon="8.192494">
        <ele>471.203443</ele>
        <time>2021-11-21T17:50:53.885Z</time>
      </trkpt>
      <trkpt lat="47.557539" lon="8.192482">
        <ele>472.181169</ele>
        <time>2021-11-21T17:50:59.648Z</time>
      </trkpt>
      <trkpt lat="47.557188" lon="8.192350">
        <ele>474.179662</ele>
        <time>2021-11-21T17:51:13.375Z</time>
      </trkpt>
      <trkpt lat="47.556798" lon="8.191880">
        <ele>476.953926</ele>
        <time>2021-11-21T17:51:32.802Z</time>
      </trkpt>
      <trkpt lat="47.556132" lon="8.189993">
        <ele>484.231041</ele>
        <time>2021-11-21T17:52:24.258Z</time>
      </trkpt>
      <trkpt lat="47.555272" lon="8.187188">
        <ele>491.347646</ele>
        <time>2021-11-21T17:53:27.811Z</time>
      </trkpt>
      <trkpt lat="47.554972" lon="8.186525">
        <ele>492.454370</ele>
        <time>2021-11-21T17:53:38.773Z</time>
      </trkpt>
      <trkpt lat="47.554800" lon="8.186250">
        <ele>492.974213</ele>
        <time>2021-11-21T17:53:43.221Z</time>
      </trkpt>
      <trkpt lat="47.554367" lon="8.185749">
        <ele>492.287428</ele>
        <time>2021-11-21T17:53:50.249Z</time>
      </trkpt>
      <trkpt lat="47.553859" lon="8.185383">
        <ele>490.779839</ele>
        <time>2021-11-21T17:53:55.949Z</time>
      </trkpt>
      <trkpt lat="47.553316" lon="8.185187">
        <ele>489.288238</ele>
        <time>2021-11-21T17:54:01.566Z</time>
      </trkpt>
      <trkpt lat="47.553227" lon="8.185177">
        <ele>489.050023</ele>
        <time>2021-11-21T17:54:02.398Z</time>
      </trkpt>
      <trkpt lat="47.552981" lon="8.185161">
        <ele>488.377456</ele>
        <time>2021-11-21T17:54:04.904Z</time>
      </trkpt>
      <trkpt lat="47.552746" lon="8.185180">
        <ele>487.668796</ele>
        <time>2021-11-21T17:54:07.156Z</time>
      </trkpt>
      <trkpt lat="47.552101" lon="8.185355">
        <ele>485.694347</ele>
        <time>2021-11-21T17:54:13.592Z</time>
      </trkpt>
      <trkpt lat="47.550775" lon="8.185862">
        <ele>483.254558</ele>
        <time>2021-11-21T17:54:28.426Z</time>
      </trkpt>
      <trkpt lat="47.550661" lon="8.185911">
        <ele>483.291474</ele>
        <time>2021-11-21T17:54:30.057Z</time>
      </trkpt>
      <trkpt lat="47.550396" lon="8.185961">
        <ele>483.374557</ele>
        <time>2021-11-21T17:54:33.880Z</time>
      </trkpt>
      <trkpt lat="47.550243" lon="8.185976">
        <ele>483.422245</ele>
        <time>2021-11-21T17:54:36.471Z</time>
      </trkpt>
      <trkpt lat="47.550129" lon="8.185964">
        <ele>483.457790</ele>
        <time>2021-11-21T17:54:38.644Z</time>
      </trkpt>
      <trkpt lat="47.549993" lon="8.185950">
        <ele>483.500189</ele>
        <time>2021-11-21T17:54:41.864Z</time>
      </trkpt>
      <trkpt lat="47.549476" lon="8.185911">
        <ele>483.702971</ele>
        <time>2021-11-21T17:54:54.515Z</time>
      </trkpt>
      <trkpt lat="47.549047" lon="8.186089">
        <ele>485.031522</ele>
        <time>2021-11-21T17:55:06.180Z</time>
      </trkpt>
      <trkpt lat="47.548879" lon="8.186258">
        <ele>485.637087</ele>
        <time>2021-11-21T17:55:11.433Z</time>
      </trkpt>
      <trkpt lat="47.548674" lon="8.186493">
        <ele>486.410049</ele>
        <time>2021-11-21T17:55:18.630Z</time>
      </trkpt>
      <trkpt lat="47.548532" lon="8.186641">
        <ele>486.927797</ele>
        <time>2021-11-21T17:55:23.392Z</time>
      </trkpt>
      <trkpt lat="47.548282" lon="8.186836">
        <ele>487.770337</ele>
        <time>2021-11-21T17:55:30.205Z</time>
      </trkpt>
      <trkpt lat="47.548192" lon="8.186871">
        <ele>488.047819</ele>
        <time>2021-11-21T17:55:33.462Z</time>
      </trkpt>
      <trkpt lat="47.548052" lon="8.186907">
        <ele>488.471558</ele>
        <time>2021-11-21T17:55:37.270Z</time>
      </trkpt>
      <trkpt lat="47.547919" lon="8.186917">
        <ele>488.868690</ele>
        <time>2021-11-21T17:55:40.733Z</time>
      </trkpt>
      <trkpt lat="47.547833" lon="8.186908">
        <ele>489.126980</ele>
        <time>2021-11-21T17:55:43.936Z</time>
      </trkpt>
      <trkpt lat="47.547688" lon="8.186873">
        <ele>489.570014</ele>
        <time>2021-11-21T17:55:48.100Z</time>
      </trkpt>
      <trkpt lat="47.547662" lon="8.186864">
        <ele>489.650533</ele>
        <time>2021-11-21T17:55:48.830Z</time>
      </trkpt>
      <trkpt lat="47.547530" lon="8.186777">
        <ele>490.086211</ele>
        <time>2021-11-21T17:55:53.039Z</time>
      </trkpt>
      <trkpt lat="47.547458" lon="8.186711">
        <ele>490.341538</ele>
        <time>2021-11-21T17:55:55.716Z</time>
      </trkpt>
      <trkpt lat="47.547308" lon="8.186546">
        <ele>490.904937</ele>
        <time>2021-11-21T17:56:00.520Z</time>
      </trkpt>
      <trkpt lat="47.547190" lon="8.186389">
        <ele>491.383220</ele>
        <time>2021-11-21T17:56:04.832Z</time>
      </trkpt>
      <trkpt lat="47.547154" lon="8.186335">
        <ele>491.537712</ele>
        <time>2021-11-21T17:56:06.113Z</time>
      </trkpt>
      <trkpt lat="47.547016" lon="8.186095">
        <ele>492.179462</ele>
        <time>2021-11-21T17:56:10.343Z</time>
      </trkpt>
      <trkpt lat="47.546993" lon="8.186066">
        <ele>492.270541</ele>
        <time>2021-11-21T17:56:11.325Z</time>
      </trkpt>
      <trkpt lat="47.546914" lon="8.186002">
        <ele>492.542069</ele>
        <time>2021-11-21T17:56:13.578Z</time>
      </trkpt>
      <trkpt lat="47.546791" lon="8.185915">
        <ele>492.953099</ele>
        <time>2021-11-21T17:56:16.895Z</time>
      </trkpt>
      <trkpt lat="47.546751" lon="8.185869">
        <ele>493.105801</ele>
        <time>2021-11-21T17:56:17.922Z</time>
      </trkpt>
      <trkpt lat="47.546713" lon="8.185804">
        <ele>493.280837</ele>
        <time>2021-11-21T17:56:19.007Z</time>
      </trkpt>
      <trkpt lat="47.546702" lon="8.185736">
        <ele>493.423172</ele>
        <time>2021-11-21T17:56:20.516Z</time>
      </trkpt>
      <trkpt lat="47.546710" lon="8.185525">
        <ele>493.853346</ele>
        <time>2021-11-21T17:56:24.299Z</time>
      </trkpt>
      <trkpt lat="47.546754" lon="8.184671">
        <ele>496.554602</ele>
        <time>2021-11-21T17:56:41.032Z</time>
      </trkpt>
      <trkpt lat="47.546713" lon="8.184384">
        <ele>497.647994</ele>
        <time>2021-11-21T17:56:48.446Z</time>
      </trkpt>
      <trkpt lat="47.546597" lon="8.184061">
        <ele>499.011666</ele>
        <time>2021-11-21T17:56:57.342Z</time>
      </trkpt>
      <trkpt lat="47.546552" lon="8.183986">
        <ele>499.385678</ele>
        <time>2021-11-21T17:57:01.031Z</time>
      </trkpt>
      <trkpt lat="47.546484" lon="8.183925">
        <ele>499.824631</ele>
        <time>2021-11-21T17:57:03.859Z</time>
      </trkpt>
      <trkpt lat="47.546418" lon="8.183901">
        <ele>500.199889</ele>
        <time>2021-11-21T17:57:05.781Z</time>
      </trkpt>
      <trkpt lat="47.546327" lon="8.183903">
        <ele>500.702430</ele>
        <time>2021-11-21T17:57:09.327Z</time>
      </trkpt>
      <trkpt lat="47.546078" lon="8.183925">
        <ele>502.079806</ele>
        <time>2021-11-21T17:57:20.246Z</time>
      </trkpt>
      <trkpt lat="47.545985" lon="8.183902">
        <ele>502.600442</ele>
        <time>2021-11-21T17:57:23.689Z</time>
      </trkpt>
      <trkpt lat="47.545828" lon="8.183838">
        <ele>503.499588</ele>
        <time>2021-11-21T17:57:31.524Z</time>
      </trkpt>
      <trkpt lat="47.545667" lon="8.183774">
        <ele>504.433357</ele>
        <time>2021-11-21T17:57:37.405Z</time>
      </trkpt>
      <trkpt lat="47.545614" lon="8.183745">
        <ele>504.839495</ele>
        <time>2021-11-21T17:57:39.400Z</time>
      </trkpt>
      <trkpt lat="47.545545" lon="8.183735">
        <ele>505.337858</ele>
        <time>2021-11-21T17:57:42.958Z</time>
      </trkpt>
      <trkpt lat="47.545370" lon="8.183783">
        <ele>506.617197</ele>
        <time>2021-11-21T17:57:50.302Z</time>
      </trkpt>
      <trkpt lat="47.545233" lon="8.183913">
        <ele>507.786694</ele>
        <time>2021-11-21T17:57:56.689Z</time>
      </trkpt>
      <trkpt lat="47.545189" lon="8.183981">
        <ele>508.243754</ele>
        <time>2021-11-21T17:58:00.290Z</time>
      </trkpt>
      <trkpt lat="47.545189" lon="8.183981">
        <ele>508.243754</ele>
        <time>2021-11-21T17:58:00.394Z</time>
      </trkpt>
      <trkpt lat="47.545131" lon="8.184113">
        <ele>509.007988</ele>
        <time>2021-11-21T17:58:04.720Z</time>
      </trkpt>
      <trkpt lat="47.545071" lon="8.184309">
        <ele>510.052249</ele>
        <time>2021-11-21T17:58:10.880Z</time>
      </trkpt>
      <trkpt lat="47.545020" lon="8.184519">
        <ele>511.135155</ele>
        <time>2021-11-21T17:58:19.134Z</time>
      </trkpt>
      <trkpt lat="47.545007" lon="8.184603">
        <ele>511.553316</ele>
        <time>2021-11-21T17:58:21.800Z</time>
      </trkpt>
      <trkpt lat="47.544872" lon="8.185362">
        <ele>515.361856</ele>
        <time>2021-11-21T17:58:44.431Z</time>
      </trkpt>
      <trkpt lat="47.544810" lon="8.186087">
        <ele>518.703640</ele>
        <time>2021-11-21T17:59:06.124Z</time>
      </trkpt>
      <trkpt lat="47.544725" lon="8.186193">
        <ele>519.400548</ele>
        <time>2021-11-21T17:59:10.574Z</time>
      </trkpt>
      <trkpt lat="47.544619" lon="8.186213">
        <ele>520.070797</ele>
        <time>2021-11-21T17:59:14.187Z</time>
      </trkpt>
      <trkpt lat="47.544507" lon="8.186163">
        <ele>520.804515</ele>
        <time>2021-11-21T17:59:19.067Z</time>
      </trkpt>
      <trkpt lat="47.544424" lon="8.186024">
        <ele>521.590265</ele>
        <time>2021-11-21T17:59:23.906Z</time>
      </trkpt>
      <trkpt lat="47.544403" lon="8.185862">
        <ele>522.288708</ele>
        <time>2021-11-21T17:59:27.655Z</time>
      </trkpt>
      <trkpt lat="47.544353" lon="8.185471">
        <ele>523.973654</ele>
        <time>2021-11-21T17:59:36.936Z</time>
      </trkpt>
      <trkpt lat="47.544212" lon="8.184972">
        <ele>526.264073</ele>
        <time>2021-11-21T17:59:51.591Z</time>
      </trkpt>
      <trkpt lat="47.544138" lon="8.184789">
        <ele>527.167292</ele>
        <time>2021-11-21T17:59:58.231Z</time>
      </trkpt>
      <trkpt lat="47.544044" lon="8.184606">
        <ele>528.140945</ele>
        <time>2021-11-21T18:00:04.790Z</time>
      </trkpt>
      <trkpt lat="47.543634" lon="8.183625">
        <ele>532.927694</ele>
        <time>2021-11-21T18:00:36.380Z</time>
      </trkpt>
      <trkpt lat="47.543590" lon="8.183476">
        <ele>533.601011</ele>
        <time>2021-11-21T18:00:41.861Z</time>
      </trkpt>
      <trkpt lat="47.543565" lon="8.183342">
        <ele>534.176582</ele>
        <time>2021-11-21T18:00:45.623Z</time>
      </trkpt>
      <trkpt lat="47.543480" lon="8.182935">
        <ele>535.940400</ele>
        <time>2021-11-21T18:00:56.677Z</time>
      </trkpt>
      <trkpt lat="47.543406" lon="8.182573">
        <ele>537.506328</ele>
        <time>2021-11-21T18:01:05.417Z</time>
      </trkpt>
      <trkpt lat="47.543392" lon="8.182519">
        <ele>537.745815</ele>
        <time>2021-11-21T18:01:07.900Z</time>
      </trkpt>
      <trkpt lat="47.543096" lon="8.180990">
        <ele>544.350779</ele>
        <time>2021-11-21T18:01:45.987Z</time>
      </trkpt>
      <trkpt lat="47.543154" lon="8.180425">
        <ele>546.726660</ele>
        <time>2021-11-21T18:01:59.601Z</time>
      </trkpt>
      <trkpt lat="47.543305" lon="8.179775">
        <ele>549.584443</ele>
        <time>2021-11-21T18:02:18.854Z</time>
      </trkpt>
      <trkpt lat="47.543293" lon="8.179736">
        <ele>549.762626</ele>
        <time>2021-11-21T18:02:21.242Z</time>
      </trkpt>
      <trkpt lat="47.543176" lon="8.179544">
        <ele>550.948029</ele>
        <time>2021-11-21T18:02:29.757Z</time>
      </trkpt>
      <trkpt lat="47.543118" lon="8.179531">
        <ele>551.588894</ele>
        <time>2021-11-21T18:02:32.165Z</time>
      </trkpt>
      <trkpt lat="47.542849" lon="8.179744">
        <ele>554.921208</ele>
        <time>2021-11-21T18:02:54.479Z</time>
      </trkpt>
      <trkpt lat="47.542427" lon="8.180153">
        <ele>560.430633</ele>
        <time>2021-11-21T18:03:30.779Z</time>
      </trkpt>
      <trkpt lat="47.542393" lon="8.180200">
        <ele>560.938690</ele>
        <time>2021-11-21T18:03:35.916Z</time>
      </trkpt>
      <trkpt lat="47.542275" lon="8.180404">
        <ele>562.919951</ele>
        <time>2021-11-21T18:03:47.155Z</time>
      </trkpt>
      <trkpt lat="47.541775" lon="8.182085">
        <ele>577.558040</ele>
        <time>2021-11-21T18:05:12.237Z</time>
      </trkpt>
      <trkpt lat="47.541555" lon="8.182888">
        <ele>585.088102</ele>
        <time>2021-11-21T18:05:54.237Z</time>
      </trkpt>
      <trkpt lat="47.541456" lon="8.183299">
        <ele>588.879857</ele>
        <time>2021-11-21T18:06:12.688Z</time>
      </trkpt>
      <trkpt lat="47.541372" lon="8.183706">
        <ele>592.577913</ele>
        <time>2021-11-21T18:06:29.834Z</time>
      </trkpt>
      <trkpt lat="47.541337" lon="8.183941">
        <ele>594.132755</ele>
        <time>2021-11-21T18:06:40.595Z</time>
      </trkpt>
      <trkpt lat="47.541253" lon="8.184529">
        <ele>596.964638</ele>
        <time>2021-11-21T18:07:04.201Z</time>
      </trkpt>
      <trkpt lat="47.541144" lon="8.185829">
        <ele>603.137026</ele>
        <time>2021-11-21T18:07:42.597Z</time>
      </trkpt>
      <trkpt lat="47.541134" lon="8.187007">
        <ele>605.204690</ele>
        <time>2021-11-21T18:08:03.165Z</time>
      </trkpt>
      <trkpt lat="47.541314" lon="8.190468">
        <ele>595.693564</ele>
        <time>2021-11-21T18:08:25.947Z</time>
      </trkpt>
      <trkpt lat="47.541303" lon="8.190582">
        <ele>595.160518</ele>
        <time>2021-11-21T18:08:26.610Z</time>
      </trkpt>
      <trkpt lat="47.541254" lon="8.190715">
        <ele>594.459170</ele>
        <time>2021-11-21T18:08:29.045Z</time>
      </trkpt>
      <trkpt lat="47.541136" lon="8.190956">
        <ele>593.081092</ele>
        <time>2021-11-21T18:08:34.362Z</time>
      </trkpt>
      <trkpt lat="47.541095" lon="8.191058">
        <ele>592.531592</ele>
        <time>2021-11-21T18:08:36.374Z</time>
      </trkpt>
      <trkpt lat="47.541065" lon="8.191152">
        <ele>592.050307</ele>
        <time>2021-11-21T18:08:36.949Z</time>
      </trkpt>
      <trkpt lat="47.541049" lon="8.191467">
        <ele>590.588107</ele>
        <time>2021-11-21T18:08:38.863Z</time>
      </trkpt>
      <trkpt lat="47.541411" lon="8.193836">
        <ele>573.684740</ele>
        <time>2021-11-21T18:08:52.863Z</time>
      </trkpt>
      <trkpt lat="47.541450" lon="8.194441">
        <ele>569.471151</ele>
        <time>2021-11-21T18:08:56.373Z</time>
      </trkpt>
      <trkpt lat="47.541449" lon="8.194943">
        <ele>566.270915</ele>
        <time>2021-11-21T18:08:59.278Z</time>
      </trkpt>
      <trkpt lat="47.541424" lon="8.196416">
        <ele>556.877653</ele>
        <time>2021-11-21T18:09:07.862Z</time>
      </trkpt>
      <trkpt lat="47.541371" lon="8.199351">
        <ele>541.816958</ele>
        <time>2021-11-21T18:09:25.520Z</time>
      </trkpt>
      <trkpt lat="47.541339" lon="8.199690">
        <ele>540.219074</ele>
        <time>2021-11-21T18:09:27.676Z</time>
      </trkpt>
      <trkpt lat="47.541246" lon="8.200575">
        <ele>536.456378</ele>
        <time>2021-11-21T18:09:44.167Z</time>
      </trkpt>
      <trkpt lat="47.541150" lon="8.201242">
        <ele>533.591300</ele>
        <time>2021-11-21T18:09:56.451Z</time>
      </trkpt>
      <trkpt lat="47.540912" lon="8.201699">
        <ele>531.166493</ele>
        <time>2021-11-21T18:10:06.691Z</time>
      </trkpt>
      <trkpt lat="47.540817" lon="8.201780">
        <ele>530.484350</ele>
        <time>2021-11-21T18:10:09.398Z</time>
      </trkpt>
      <trkpt lat="47.540724" lon="8.201834">
        <ele>529.862717</ele>
        <time>2021-11-21T18:10:12.151Z</time>
      </trkpt>
      <trkpt lat="47.540495" lon="8.201931">
        <ele>528.131132</ele>
        <time>2021-11-21T18:10:18.308Z</time>
      </trkpt>
      <trkpt lat="47.540267" lon="8.201983">
        <ele>526.362273</ele>
        <time>2021-11-21T18:10:24.569Z</time>
      </trkpt>
      <trkpt lat="47.540245" lon="8.201988">
        <ele>526.191607</ele>
        <time>2021-11-21T18:10:25.145Z</time>
      </trkpt>
      <trkpt lat="47.540161" lon="8.202010">
        <ele>525.537522</ele>
        <time>2021-11-21T18:10:25.874Z</time>
      </trkpt>
      <trkpt lat="47.539686" lon="8.202173">
        <ele>521.798860</ele>
        <time>2021-11-21T18:10:30.217Z</time>
      </trkpt>
      <trkpt lat="47.539057" lon="8.202818">
        <ele>515.932916</ele>
        <time>2021-11-21T18:10:36.936Z</time>
      </trkpt>
      <trkpt lat="47.538542" lon="8.203042">
        <ele>512.088648</ele>
        <time>2021-11-21T18:10:41.672Z</time>
      </trkpt>
      <trkpt lat="47.538311" lon="8.203259">
        <ele>510.139227</ele>
        <time>2021-11-21T18:10:44.129Z</time>
      </trkpt>
      <trkpt lat="47.538192" lon="8.203678">
        <ele>507.952188</ele>
        <time>2021-11-21T18:10:46.904Z</time>
      </trkpt>
      <trkpt lat="47.537847" lon="8.206596">
        <ele>493.400671</ele>
        <time>2021-11-21T18:11:05.055Z</time>
      </trkpt>
      <trkpt lat="47.537822" lon="8.206799">
        <ele>492.375451</ele>
        <time>2021-11-21T18:11:06.274Z</time>
      </trkpt>
      <trkpt lat="47.537696" lon="8.207798">
        <ele>486.407119</ele>
        <time>2021-11-21T18:11:12.224Z</time>
      </trkpt>
      <trkpt lat="47.537630" lon="8.208383">
        <ele>482.273219</ele>
        <time>2021-11-21T18:11:15.689Z</time>
      </trkpt>
      <trkpt lat="47.537541" lon="8.209218">
        <ele>476.381307</ele>
        <time>2021-11-21T18:11:20.508Z</time>
      </trkpt>
      <trkpt lat="47.537525" lon="8.209530">
        <ele>474.200446</ele>
        <time>2021-11-21T18:11:22.326Z</time>
      </trkpt>
      <trkpt lat="47.537624" lon="8.210296">
        <ele>468.957932</ele>
        <time>2021-11-21T18:11:26.851Z</time>
      </trkpt>
      <trkpt lat="47.537582" lon="8.210504">
        <ele>467.573421</ele>
        <time>2021-11-21T18:11:28.135Z</time>
      </trkpt>
      <trkpt lat="47.537542" lon="8.210584">
        <ele>466.938563</ele>
        <time>2021-11-21T18:11:28.695Z</time>
      </trkpt>
      <trkpt lat="47.537481" lon="8.210648">
        <ele>466.232445</ele>
        <time>2021-11-21T18:11:29.349Z</time>
      </trkpt>
      <trkpt lat="47.537432" lon="8.210679">
        <ele>465.729132</ele>
        <time>2021-11-21T18:11:29.813Z</time>
      </trkpt>
      <trkpt lat="47.537388" lon="8.210688">
        <ele>465.309557</ele>
        <time>2021-11-21T18:11:30.213Z</time>
      </trkpt>
      <trkpt lat="47.537267" lon="8.210668">
        <ele>464.159477</ele>
        <time>2021-11-21T18:11:31.284Z</time>
      </trkpt>
      <trkpt lat="47.537143" lon="8.210508">
        <ele>462.606054</ele>
        <time>2021-11-21T18:11:32.696Z</time>
      </trkpt>
      <trkpt lat="47.537043" lon="8.210202">
        <ele>460.438018</ele>
        <time>2021-11-21T18:11:34.713Z</time>
      </trkpt>
      <trkpt lat="47.536956" lon="8.209884">
        <ele>458.249866</ele>
        <time>2021-11-21T18:11:36.758Z</time>
      </trkpt>
      <trkpt lat="47.536921" lon="8.209778">
        <ele>457.497359</ele>
        <time>2021-11-21T18:11:37.448Z</time>
      </trkpt>
      <trkpt lat="47.536874" lon="8.209678">
        <ele>456.720312</ele>
        <time>2021-11-21T18:11:38.140Z</time>
      </trkpt>
      <trkpt lat="47.536687" lon="8.209592">
        <ele>454.870698</ele>
        <time>2021-11-21T18:11:39.872Z</time>
      </trkpt>
      <trkpt lat="47.536563" lon="8.209636">
        <ele>453.659001</ele>
        <time>2021-11-21T18:11:40.957Z</time>
      </trkpt>
      <trkpt lat="47.535970" lon="8.210248">
        <ele>446.702512</ele>
        <time>2021-11-21T18:11:47.216Z</time>
      </trkpt>
      <trkpt lat="47.534948" lon="8.210478">
        <ele>436.752796</ele>
        <time>2021-11-21T18:11:56.107Z</time>
      </trkpt>
      <trkpt lat="47.534400" lon="8.210289">
        <ele>432.017037</ele>
        <time>2021-11-21T18:12:01.046Z</time>
      </trkpt>
      <trkpt lat="47.533949" lon="8.209720">
        <ele>427.032897</ele>
        <time>2021-11-21T18:12:06.249Z</time>
      </trkpt>
      <trkpt lat="47.533279" lon="8.208606">
        <ele>418.756601</ele>
        <time>2021-11-21T18:12:15.155Z</time>
      </trkpt>
      <trkpt lat="47.533191" lon="8.208445">
        <ele>417.656426</ele>
        <time>2021-11-21T18:12:16.445Z</time>
      </trkpt>
      <trkpt lat="47.533120" lon="8.208342">
        <ele>416.874633</ele>
        <time>2021-11-21T18:12:17.292Z</time>
      </trkpt>
      <trkpt lat="47.532835" lon="8.207933">
        <ele>413.752938</ele>
        <time>2021-11-21T18:12:20.841Z</time>
      </trkpt>
      <trkpt lat="47.532597" lon="8.207774">
        <ele>411.699084</ele>
        <time>2021-11-21T18:12:23.167Z</time>
      </trkpt>
      <trkpt lat="47.532270" lon="8.207712">
        <ele>409.105768</ele>
        <time>2021-11-21T18:12:26.053Z</time>
      </trkpt>
      <trkpt lat="47.531300" lon="8.207688">
        <ele>403.546066</ele>
        <time>2021-11-21T18:12:34.619Z</time>
      </trkpt>
      <trkpt lat="47.531043" lon="8.207684">
        <ele>402.224639</ele>
        <time>2021-11-21T18:12:37.004Z</time>
      </trkpt>
      <trkpt lat="47.530948" lon="8.207681">
        <ele>401.736090</ele>
        <time>2021-11-21T18:12:37.936Z</time>
      </trkpt>
      <trkpt lat="47.530748" lon="8.207682">
        <ele>400.707793</ele>
        <time>2021-11-21T18:12:39.840Z</time>
      </trkpt>
      <trkpt lat="47.530570" lon="8.207684">
        <ele>399.792588</ele>
        <time>2021-11-21T18:12:41.740Z</time>
      </trkpt>
      <trkpt lat="47.530081" lon="8.207671">
        <ele>398.309554</ele>
        <time>2021-11-21T18:12:47.448Z</time>
      </trkpt>
      <trkpt lat="47.529704" lon="8.207736">
        <ele>398.523862</ele>
        <time>2021-11-21T18:12:53.427Z</time>
      </trkpt>
      <trkpt lat="47.529530" lon="8.207845">
        <ele>398.630538</ele>
        <time>2021-11-21T18:12:57.351Z</time>
      </trkpt>
      <trkpt lat="47.529351" lon="8.208087">
        <ele>398.767388</ele>
        <time>2021-11-21T18:13:03.522Z</time>
      </trkpt>
      <trkpt lat="47.529201" lon="8.208382">
        <ele>398.908182</ele>
        <time>2021-11-21T18:13:09.301Z</time>
      </trkpt>
      <trkpt lat="47.528988" lon="8.208838">
        <ele>399.119582</ele>
        <time>2021-11-21T18:13:16.744Z</time>
      </trkpt>
      <trkpt lat="47.528477" lon="8.209843">
        <ele>397.616081</ele>
        <time>2021-11-21T18:13:29.221Z</time>
      </trkpt>
      <trkpt lat="47.528294" lon="8.210278">
        <ele>396.781301</ele>
        <time>2021-11-21T18:13:33.070Z</time>
      </trkpt>
      <trkpt lat="47.528109" lon="8.210725">
        <ele>395.927357</ele>
        <time>2021-11-21T18:13:36.602Z</time>
      </trkpt>
      <trkpt lat="47.527904" lon="8.211051">
        <ele>395.201772</ele>
        <time>2021-11-21T18:13:39.504Z</time>
      </trkpt>
      <trkpt lat="47.527792" lon="8.211675">
        <ele>392.419188</ele>
        <time>2021-11-21T18:13:43.490Z</time>
      </trkpt>
      <trkpt lat="47.527628" lon="8.212063">
        <ele>389.916060</ele>
        <time>2021-11-21T18:13:46.217Z</time>
      </trkpt>
      <trkpt lat="47.527568" lon="8.212167">
        <ele>389.168040</ele>
        <time>2021-11-21T18:13:47.000Z</time>
      </trkpt>
      <trkpt lat="47.527492" lon="8.212260">
        <ele>388.369636</ele>
        <time>2021-11-21T18:13:47.894Z</time>
      </trkpt>
      <trkpt lat="47.527174" lon="8.212657">
        <ele>385.001371</ele>
        <time>2021-11-21T18:13:51.546Z</time>
      </trkpt>
      <trkpt lat="47.527086" lon="8.212822">
        <ele>383.851584</ele>
        <time>2021-11-21T18:13:52.795Z</time>
      </trkpt>
      <trkpt lat="47.526996" lon="8.212989">
        <ele>382.683159</ele>
        <time>2021-11-21T18:13:54.029Z</time>
      </trkpt>
      <trkpt lat="47.526966" lon="8.213055">
        <ele>382.248089</ele>
        <time>2021-11-21T18:13:55.272Z</time>
      </trkpt>
      <trkpt lat="47.526755" lon="8.213551">
        <ele>379.025867</ele>
        <time>2021-11-21T18:14:05.111Z</time>
      </trkpt>
      <trkpt lat="47.526750" lon="8.213563">
        <ele>378.947762</ele>
        <time>2021-11-21T18:14:05.343Z</time>
      </trkpt>
      <trkpt lat="47.526721" lon="8.213721">
        <ele>378.040823</ele>
        <time>2021-11-21T18:14:08.128Z</time>
      </trkpt>
      <trkpt lat="47.526668" lon="8.213870">
        <ele>377.107981</ele>
        <time>2021-11-21T18:14:10.930Z</time>
      </trkpt>
      <trkpt lat="47.526455" lon="8.214221">
        <ele>374.493975</ele>
        <time>2021-11-21T18:14:18.956Z</time>
      </trkpt>
      <trkpt lat="47.526337" lon="8.214415">
        <ele>373.047694</ele>
        <time>2021-11-21T18:14:23.293Z</time>
      </trkpt>
      <trkpt lat="47.526233" lon="8.214701">
        <ele>371.248379</ele>
        <time>2021-11-21T18:14:28.947Z</time>
      </trkpt>
      <trkpt lat="47.526245" lon="8.214785">
        <ele>370.772789</ele>
        <time>2021-11-21T18:14:30.293Z</time>
      </trkpt>
      <trkpt lat="47.526124" lon="8.214905">
        <ele>369.578199</ele>
        <time>2021-11-21T18:14:31.590Z</time>
      </trkpt>
      <trkpt lat="47.526053" lon="8.214977">
        <ele>368.872313</ele>
        <time>2021-11-21T18:14:32.359Z</time>
      </trkpt>
      <trkpt lat="47.526002" lon="8.215031">
        <ele>368.358021</ele>
        <time>2021-11-21T18:14:32.918Z</time>
      </trkpt>
      <trkpt lat="47.525955" lon="8.215079">
        <ele>367.889683</ele>
        <time>2021-11-21T18:14:33.403Z</time>
      </trkpt>
      <trkpt lat="47.525912" lon="8.215115">
        <ele>367.484484</ele>
        <time>2021-11-21T18:14:33.864Z</time>
      </trkpt>
      <trkpt lat="47.525837" lon="8.215146">
        <ele>366.845734</ele>
        <time>2021-11-21T18:14:34.579Z</time>
      </trkpt>
      <trkpt lat="47.525749" lon="8.215166">
        <ele>366.115407</ele>
        <time>2021-11-21T18:14:35.372Z</time>
      </trkpt>
      <trkpt lat="47.525630" lon="8.215165">
        <ele>365.364021</ele>
        <time>2021-11-21T18:14:36.408Z</time>
      </trkpt>
      <trkpt lat="47.525397" lon="8.215170">
        <ele>364.464894</ele>
        <time>2021-11-21T18:14:38.629Z</time>
      </trkpt>
      <trkpt lat="47.524496" lon="8.215283">
        <ele>360.975933</ele>
        <time>2021-11-21T18:14:47.465Z</time>
      </trkpt>
      <trkpt lat="47.523967" lon="8.215368">
        <ele>358.922801</ele>
        <time>2021-11-21T18:14:53.232Z</time>
      </trkpt>
      <trkpt lat="47.523628" lon="8.215398">
        <ele>358.428905</ele>
        <time>2021-11-21T18:14:57.065Z</time>
      </trkpt>
      <trkpt lat="47.523463" lon="8.215416">
        <ele>358.305994</ele>
        <time>2021-11-21T18:14:59.121Z</time>
      </trkpt>
      <trkpt lat="47.523322" lon="8.215449">
        <ele>358.199943</ele>
        <time>2021-11-21T18:15:00.733Z</time>
      </trkpt>
      <trkpt lat="47.523295" lon="8.215459">
        <ele>358.179267</ele>
        <time>2021-11-21T18:15:01.044Z</time>
      </trkpt>
      <trkpt lat="47.523252" lon="8.215477">
        <ele>358.146070</ele>
        <time>2021-11-21T18:15:01.562Z</time>
      </trkpt>
      <trkpt lat="47.523184" lon="8.215512">
        <ele>358.092588</ele>
        <time>2021-11-21T18:15:02.463Z</time>
      </trkpt>
      <trkpt lat="47.523040" lon="8.215616">
        <ele>357.973564</ele>
        <time>2021-11-21T18:15:04.459Z</time>
      </trkpt>
      <trkpt lat="47.522953" lon="8.215700">
        <ele>357.896407</ele>
        <time>2021-11-21T18:15:05.683Z</time>
      </trkpt>
      <trkpt lat="47.522589" lon="8.216064">
        <ele>357.570104</ele>
        <time>2021-11-21T18:15:11.577Z</time>
      </trkpt>
      <trkpt lat="47.522426" lon="8.216233">
        <ele>357.422279</ele>
        <time>2021-11-21T18:15:14.862Z</time>
      </trkpt>
      <trkpt lat="47.522326" lon="8.216356">
        <ele>357.325703</ele>
        <time>2021-11-21T18:15:16.882Z</time>
      </trkpt>
      <trkpt lat="47.522226" lon="8.216299">
        <ele>357.327987</ele>
        <time>2021-11-21T18:15:19.668Z</time>
      </trkpt>
      <trkpt lat="47.521917" lon="8.216174">
        <ele>357.562231</ele>
        <time>2021-11-21T18:15:26.702Z</time>
      </trkpt>
      <trkpt lat="47.521839" lon="8.216142">
        <ele>357.621419</ele>
        <time>2021-11-21T18:15:28.761Z</time>
      </trkpt>
      <trkpt lat="47.521761" lon="8.216165">
        <ele>357.679578</ele>
        <time>2021-11-21T18:15:30.451Z</time>
      </trkpt>
      <trkpt lat="47.521586" lon="8.216258">
        <ele>357.815542</ele>
        <time>2021-11-21T18:15:34.758Z</time>
      </trkpt>
      <trkpt lat="47.521527" lon="8.216269">
        <ele>357.859028</ele>
        <time>2021-11-21T18:15:36.494Z</time>
      </trkpt>
      <trkpt lat="47.521239" lon="8.216193">
        <ele>358.072953</ele>
        <time>2021-11-21T18:15:43.157Z</time>
      </trkpt>
      <trkpt lat="47.521196" lon="8.216177">
        <ele>358.105375</ele>
        <time>2021-11-21T18:15:44.474Z</time>
      </trkpt>
      <trkpt lat="47.521086" lon="8.216135">
        <ele>358.188447</ele>
        <time>2021-11-21T18:15:47.106Z</time>
      </trkpt>
      <trkpt lat="47.520786" lon="8.215911">
        <ele>358.434141</ele>
        <time>2021-11-21T18:15:55.188Z</time>
      </trkpt>
      <trkpt lat="47.520540" lon="8.215681">
        <ele>358.637655</ele>
        <time>2021-11-21T18:16:01.915Z</time>
      </trkpt>
      <trkpt lat="47.520315" lon="8.215590">
        <ele>358.772594</ele>
        <time>2021-11-21T18:16:07.054Z</time>
      </trkpt>
      <trkpt lat="47.520146" lon="8.215572">
        <ele>358.870619</ele>
        <time>2021-11-21T18:16:11.170Z</time>
      </trkpt>
      <trkpt lat="47.520124" lon="8.215569">
        <ele>358.883401</ele>
        <time>2021-11-21T18:16:11.622Z</time>
      </trkpt>
      <trkpt lat="47.519944" lon="8.215530">
        <ele>358.988646</ele>
        <time>2021-11-21T18:16:15.701Z</time>
      </trkpt>
      <trkpt lat="47.519670" lon="8.215440">
        <ele>359.151019</ele>
        <time>2021-11-21T18:16:22.049Z</time>
      </trkpt>
      <trkpt lat="47.519391" lon="8.215293">
        <ele>359.322344</ele>
        <time>2021-11-21T18:16:28.773Z</time>
      </trkpt>
      <trkpt lat="47.519148" lon="8.215131">
        <ele>359.476520</ele>
        <time>2021-11-21T18:16:34.678Z</time>
      </trkpt>
      <trkpt lat="47.518955" lon="8.215007">
        <ele>359.598235</ele>
        <time>2021-11-21T18:16:39.309Z</time>
      </trkpt>
      <trkpt lat="47.518727" lon="8.214908">
        <ele>359.779984</ele>
        <time>2021-11-21T18:16:44.426Z</time>
      </trkpt>
      <trkpt lat="47.518581" lon="8.214863">
        <ele>359.907592</ele>
        <time>2021-11-21T18:16:47.697Z</time>
      </trkpt>
      <trkpt lat="47.518146" lon="8.214775">
        <ele>360.283273</ele>
        <time>2021-11-21T18:16:57.591Z</time>
      </trkpt>
      <trkpt lat="47.518033" lon="8.214737">
        <ele>360.382428</ele>
        <time>2021-11-21T18:17:00.225Z</time>
      </trkpt>
      <trkpt lat="47.517918" lon="8.214716">
        <ele>360.481578</ele>
        <time>2021-11-21T18:17:03.349Z</time>
      </trkpt>
      <trkpt lat="47.517865" lon="8.214707">
        <ele>360.527226</ele>
        <time>2021-11-21T18:17:04.653Z</time>
      </trkpt>
      <trkpt lat="47.517727" lon="8.214690">
        <ele>360.645719</ele>
        <time>2021-11-21T18:17:08.066Z</time>
      </trkpt>
      <trkpt lat="47.517598" lon="8.214691">
        <ele>360.756104</ele>
        <time>2021-11-21T18:17:11.283Z</time>
      </trkpt>
      <trkpt lat="47.517061" lon="8.214737">
        <ele>361.212029</ele>
        <time>2021-11-21T18:17:24.532Z</time>
      </trkpt>
      <trkpt lat="47.516927" lon="8.214681">
        <ele>361.315961</ele>
        <time>2021-11-21T18:17:27.824Z</time>
      </trkpt>
      <trkpt lat="47.516853" lon="8.214613">
        <ele>361.380972</ele>
        <time>2021-11-21T18:17:30.065Z</time>
      </trkpt>
      <trkpt lat="47.516592" lon="8.214194">
        <ele>361.668332</ele>
        <time>2021-11-21T18:17:38.982Z</time>
      </trkpt>
      <trkpt lat="47.516450" lon="8.213978">
        <ele>361.820297</ele>
        <time>2021-11-21T18:17:43.507Z</time>
      </trkpt>
      <trkpt lat="47.516357" lon="8.213867">
        <ele>361.909463</ele>
        <time>2021-11-21T18:17:46.284Z</time>
      </trkpt>
      <trkpt lat="47.515439" lon="8.213200">
        <ele>362.602874</ele>
        <time>2021-11-21T18:18:09.916Z</time>
      </trkpt>
      <trkpt lat="47.515199" lon="8.213043">
        <ele>362.706138</ele>
        <time>2021-11-21T18:18:15.729Z</time>
      </trkpt>
      <trkpt lat="47.515044" lon="8.212902">
        <ele>362.777734</ele>
        <time>2021-11-21T18:18:19.682Z</time>
      </trkpt>
      <trkpt lat="47.514567" lon="8.212469">
        <ele>362.997938</ele>
        <time>2021-11-21T18:18:31.392Z</time>
      </trkpt>
      <trkpt lat="47.514469" lon="8.212440">
        <ele>363.037269</ele>
        <time>2021-11-21T18:18:33.663Z</time>
      </trkpt>
      <trkpt lat="47.514119" lon="8.212384">
        <ele>363.175819</ele>
        <time>2021-11-21T18:18:41.123Z</time>
      </trkpt>
      <trkpt lat="47.513868" lon="8.212369">
        <ele>363.310055</ele>
        <time>2021-11-21T18:18:46.420Z</time>
      </trkpt>
      <trkpt lat="47.513882" lon="8.211739">
        <ele>363.619134</ele>
        <time>2021-11-21T18:18:53.566Z</time>
      </trkpt>
      <trkpt lat="47.513892" lon="8.211277">
        <ele>363.845786</ele>
        <time>2021-11-21T18:18:59.123Z</time>
      </trkpt>
      <trkpt lat="47.513892" lon="8.210732">
        <ele>364.113020</ele>
        <time>2021-11-21T18:19:06.208Z</time>
      </trkpt>
      <trkpt lat="47.513886" lon="8.210522">
        <ele>364.216083</ele>
        <time>2021-11-21T18:19:08.864Z</time>
      </trkpt>
      <trkpt lat="47.513875" lon="8.210161">
        <ele>364.393275</ele>
        <time>2021-11-21T18:19:13.334Z</time>
      </trkpt>
      <trkpt lat="47.513828" lon="8.209683">
        <ele>364.613181</ele>
        <time>2021-11-21T18:19:19.169Z</time>
      </trkpt>
      <trkpt lat="47.513775" lon="8.209324">
        <ele>364.760011</ele>
        <time>2021-11-21T18:19:23.560Z</time>
      </trkpt>
      <trkpt lat="47.513709" lon="8.208886">
        <ele>364.939323</ele>
        <time>2021-11-21T18:19:28.995Z</time>
      </trkpt>
      <trkpt lat="47.513709" lon="8.208886">
        <ele>364.939323</ele>
        <time>2021-11-21T18:19:28.997Z</time>
      </trkpt>
      <trkpt lat="47.513508" lon="8.208805">
        <ele>365.062557</ele>
        <time>2021-11-21T18:19:32.550Z</time>
      </trkpt>
      <trkpt lat="47.512464" lon="8.208323">
        <ele>365.763870</ele>
        <time>2021-11-21T18:19:50.865Z</time>
      </trkpt>
      <trkpt lat="47.512289" lon="8.208244">
        <ele>365.927165</ele>
        <time>2021-11-21T18:19:53.813Z</time>
      </trkpt>
      <trkpt lat="47.511830" lon="8.207951">
        <ele>366.373301</ele>
        <time>2021-11-21T18:20:01.669Z</time>
      </trkpt>
      <trkpt lat="47.511545" lon="8.207730">
        <ele>366.660455</ele>
        <time>2021-11-21T18:20:07.032Z</time>
      </trkpt>
      <trkpt lat="47.511287" lon="8.207539">
        <ele>366.917917</ele>
        <time>2021-11-21T18:20:12.443Z</time>
      </trkpt>
      <trkpt lat="47.511087" lon="8.207326">
        <ele>367.137814</ele>
        <time>2021-11-21T18:20:17.879Z</time>
      </trkpt>
      <trkpt lat="47.510868" lon="8.206975">
        <ele>368.143396</ele>
        <time>2021-11-21T18:20:25.429Z</time>
      </trkpt>
      <trkpt lat="47.510799" lon="8.206834">
        <ele>368.594056</ele>
        <time>2021-11-21T18:20:28.756Z</time>
      </trkpt>
      <trkpt lat="47.510746" lon="8.206745">
        <ele>368.901156</ele>
        <time>2021-11-21T18:20:30.695Z</time>
      </trkpt>
      <trkpt lat="47.510696" lon="8.206660">
        <ele>369.192894</ele>
        <time>2021-11-21T18:20:32.978Z</time>
      </trkpt>
      <trkpt lat="47.510310" lon="8.206228">
        <ele>371.047089</ele>
        <time>2021-11-21T18:20:47.447Z</time>
      </trkpt>
      <trkpt lat="47.510110" lon="8.206036">
        <ele>371.960494</ele>
        <time>2021-11-21T18:20:55.515Z</time>
      </trkpt>
      <trkpt lat="47.509957" lon="8.205884">
        <ele>372.666548</ele>
        <time>2021-11-21T18:21:02.085Z</time>
      </trkpt>
      <trkpt lat="47.509781" lon="8.205702">
        <ele>373.489197</ele>
        <time>2021-11-21T18:21:09.100Z</time>
      </trkpt>
      <trkpt lat="47.509576" lon="8.205502">
        <ele>374.474131</ele>
        <time>2021-11-21T18:21:18.444Z</time>
      </trkpt>
      <trkpt lat="47.509425" lon="8.205362">
        <ele>375.248298</ele>
        <time>2021-11-21T18:21:24.474Z</time>
      </trkpt>
      <trkpt lat="47.509289" lon="8.205248">
        <ele>375.927389</ele>
        <time>2021-11-21T18:21:30.244Z</time>
      </trkpt>
      <trkpt lat="47.509149" lon="8.205132">
        <ele>376.624507</ele>
        <time>2021-11-21T18:21:34.923Z</time>
      </trkpt>
      <trkpt lat="47.509032" lon="8.205060">
        <ele>377.175063</ele>
        <time>2021-11-21T18:21:39.868Z</time>
      </trkpt>
      <trkpt lat="47.509021" lon="8.204884">
        <ele>377.693837</ele>
        <time>2021-11-21T18:21:44.519Z</time>
      </trkpt>
      <trkpt lat="47.508985" lon="8.204741">
        <ele>378.141751</ele>
        <time>2021-11-21T18:21:48.003Z</time>
      </trkpt>
      <trkpt lat="47.508917" lon="8.204543">
        <ele>378.793692</ele>
        <time>2021-11-21T18:21:54.553Z</time>
      </trkpt>
      <trkpt lat="47.508917" lon="8.204543">
        <ele>378.793692</ele>
        <time>2021-11-21T18:21:54.593Z</time>
      </trkpt>
      <trkpt lat="47.508917" lon="8.204543">
        <ele>378.793692</ele>
        <time>2021-11-21T18:21:54.662Z</time>
      </trkpt>
      <trkpt lat="47.508821" lon="8.204282">
        <ele>379.665950</ele>
        <time>2021-11-21T18:22:01.419Z</time>
      </trkpt>
      <trkpt lat="47.508829" lon="8.203955">
        <ele>380.626343</ele>
        <time>2021-11-21T18:22:09.981Z</time>
      </trkpt>
      <trkpt lat="47.508866" lon="8.203850">
        <ele>380.973938</ele>
        <time>2021-11-21T18:22:12.680Z</time>
      </trkpt>
      <trkpt lat="47.509150" lon="8.203272">
        <ele>382.557569</ele>
        <time>2021-11-21T18:22:28.380Z</time>
      </trkpt>
      <trkpt lat="47.509269" lon="8.202990">
        <ele>383.099439</ele>
        <time>2021-11-21T18:22:35.720Z</time>
      </trkpt>
      <trkpt lat="47.509353" lon="8.202637">
        <ele>383.709358</ele>
        <time>2021-11-21T18:22:43.349Z</time>
      </trkpt>
      <trkpt lat="47.509592" lon="8.200917">
        <ele>386.448923</ele>
        <time>2021-11-21T18:23:16.610Z</time>
      </trkpt>
      <trkpt lat="47.509681" lon="8.200064">
        <ele>387.311844</ele>
        <time>2021-11-21T18:23:32.319Z</time>
      </trkpt>
      <trkpt lat="47.509914" lon="8.198214">
        <ele>389.059524</ele>
        <time>2021-11-21T18:24:04.908Z</time>
      </trkpt>
      <trkpt lat="47.509922" lon="8.198171">
        <ele>389.082501</ele>
        <time>2021-11-21T18:24:05.702Z</time>
      </trkpt>
      <trkpt lat="47.510011" lon="8.197478">
        <ele>389.445911</ele>
        <time>2021-11-21T18:24:16.525Z</time>
      </trkpt>
      <trkpt lat="47.510331" lon="8.194861">
        <ele>391.135931</ele>
        <time>2021-11-21T18:24:57.367Z</time>
      </trkpt>
      <trkpt lat="47.510685" lon="8.192072">
        <ele>394.524117</ele>
        <time>2021-11-21T18:25:48.415Z</time>
      </trkpt>
      <trkpt lat="47.510696" lon="8.191960">
        <ele>394.715965</ele>
        <time>2021-11-21T18:25:50.736Z</time>
      </trkpt>
      <trkpt lat="47.510861" lon="8.191928">
        <ele>395.133583</ele>
        <time>2021-11-21T18:25:54.604Z</time>
      </trkpt>
      <trkpt lat="47.511365" lon="8.191770">
        <ele>396.426457</ele>
        <time>2021-11-21T18:26:08.883Z</time>
      </trkpt>
      <trkpt lat="47.511365" lon="8.191770">
        <ele>396.426457</ele>
        <time>2021-11-21T18:26:08.910Z</time>
      </trkpt>
      <trkpt lat="47.511473" lon="8.191711">
        <ele>396.715354</ele>
        <time>2021-11-21T18:26:11.992Z</time>
      </trkpt>
      <trkpt lat="47.511548" lon="8.191673">
        <ele>396.914289</ele>
        <time>2021-11-21T18:26:14.367Z</time>
      </trkpt>
      <trkpt lat="47.511503" lon="8.191538">
        <ele>397.340980</ele>
        <time>2021-11-21T18:26:17.632Z</time>
      </trkpt>
      <trkpt lat="47.511480" lon="8.191489">
        <ele>397.549348</ele>
        <time>2021-11-21T18:26:19.298Z</time>
      </trkpt>
      <trkpt lat="47.511195" lon="8.190842">
        <ele>400.246684</ele>
        <time>2021-11-21T18:26:38.694Z</time>
      </trkpt>
      <trkpt lat="47.511107" lon="8.190519">
        <ele>401.462909</ele>
        <time>2021-11-21T18:26:48.574Z</time>
      </trkpt>
      <trkpt lat="47.511047" lon="8.190214">
        <ele>402.572233</ele>
        <time>2021-11-21T18:26:57.935Z</time>
      </trkpt>
      <trkpt lat="47.510882" lon="8.189435">
        <ele>405.423150</ele>
        <time>2021-11-21T18:27:22.046Z</time>
      </trkpt>
      <trkpt lat="47.510767" lon="8.188976">
        <ele>407.354040</ele>
        <time>2021-11-21T18:27:36.644Z</time>
      </trkpt>
      <trkpt lat="47.510603" lon="8.188275">
        <ele>410.638700</ele>
        <time>2021-11-21T18:28:00.301Z</time>
      </trkpt>
      <trkpt lat="47.510377" lon="8.187197">
        <ele>415.636303</ele>
        <time>2021-11-21T18:28:36.228Z</time>
      </trkpt>
      <trkpt lat="47.510128" lon="8.186327">
        <ele>419.999499</ele>
        <time>2021-11-21T18:29:06.446Z</time>
      </trkpt>
      <trkpt lat="47.510052" lon="8.186096">
        <ele>421.255747</ele>
        <time>2021-11-21T18:29:14.594Z</time>
      </trkpt>
      <trkpt lat="47.509919" lon="8.185768">
        <ele>423.126167</ele>
        <time>2021-11-21T18:29:25.711Z</time>
      </trkpt>
      <trkpt lat="47.509786" lon="8.185474">
        <ele>424.856184</ele>
        <time>2021-11-21T18:29:36.885Z</time>
      </trkpt>
      <trkpt lat="47.509617" lon="8.184928">
        <ele>427.792620</ele>
        <time>2021-11-21T18:29:57.114Z</time>
      </trkpt>
      <trkpt lat="47.509381" lon="8.183901">
        <ele>433.715916</ele>
        <time>2021-11-21T18:30:36.354Z</time>
      </trkpt>
      <trkpt lat="47.509183" lon="8.183139">
        <ele>438.956099</ele>
        <time>2021-11-21T18:31:07.045Z</time>
      </trkpt>
      <trkpt lat="47.508585" lon="8.181852">
        <ele>449.105794</ele>
        <time>2021-11-21T18:32:11.229Z</time>
      </trkpt>
      <trkpt lat="47.508201" lon="8.181335">
        <ele>454.823550</ele>
        <time>2021-11-21T18:32:45.533Z</time>
      </trkpt>
      <trkpt lat="47.507652" lon="8.180805">
        <ele>462.043489</ele>
        <time>2021-11-21T18:33:26.020Z</time>
      </trkpt>
      <trkpt lat="47.507553" lon="8.180721">
        <ele>463.300477</ele>
        <time>2021-11-21T18:33:34.200Z</time>
      </trkpt>
      <trkpt lat="47.507430" lon="8.180615">
        <ele>464.868280</ele>
        <time>2021-11-21T18:33:42.734Z</time>
      </trkpt>
      <trkpt lat="47.506365" lon="8.179981">
        <ele>477.899048</ele>
        <time>2021-11-21T18:35:01.486Z</time>
      </trkpt>
      <trkpt lat="47.506131" lon="8.179709">
        <ele>481.309657</ele>
        <time>2021-11-21T18:35:24.412Z</time>
      </trkpt>
      <trkpt lat="47.505832" lon="8.179262">
        <ele>486.181050</ele>
        <time>2021-11-21T18:35:50.928Z</time>
      </trkpt>
      <trkpt lat="47.505251" lon="8.178301">
        <ele>492.335468</ele>
        <time>2021-11-21T18:36:40.412Z</time>
      </trkpt>
      <trkpt lat="47.504903" lon="8.177799">
        <ele>495.070160</ele>
        <time>2021-11-21T18:37:03.065Z</time>
      </trkpt>
      <trkpt lat="47.504359" lon="8.176727">
        <ele>498.141826</ele>
        <time>2021-11-21T18:37:29.125Z</time>
      </trkpt>
      <trkpt lat="47.503578" lon="8.174407">
        <ele>494.093599</ele>
        <time>2021-11-21T18:37:53.824Z</time>
      </trkpt>
      <trkpt lat="47.503241" lon="8.173095">
        <ele>493.142566</ele>
        <time>2021-11-21T18:38:08.432Z</time>
      </trkpt>
      <trkpt lat="47.503046" lon="8.172726">
        <ele>492.825140</ele>
        <time>2021-11-21T18:38:15.864Z</time>
      </trkpt>
      <trkpt lat="47.502811" lon="8.172326">
        <ele>492.618762</ele>
        <time>2021-11-21T18:38:26.096Z</time>
      </trkpt>
      <trkpt lat="47.502619" lon="8.171809">
        <ele>494.527727</ele>
        <time>2021-11-21T18:38:38.944Z</time>
      </trkpt>
      <trkpt lat="47.502508" lon="8.171201">
        <ele>496.565609</ele>
        <time>2021-11-21T18:38:55.224Z</time>
      </trkpt>
      <trkpt lat="47.502485" lon="8.170923">
        <ele>497.471857</ele>
        <time>2021-11-21T18:39:02.847Z</time>
      </trkpt>
      <trkpt lat="47.502484" lon="8.170679">
        <ele>498.261385</ele>
        <time>2021-11-21T18:39:10.389Z</time>
      </trkpt>
      <trkpt lat="47.502671" lon="8.169362">
        <ele>503.050042</ele>
        <time>2021-11-21T18:39:51.886Z</time>
      </trkpt>
      <trkpt lat="47.502683" lon="8.169092">
        <ele>504.177522</ele>
        <time>2021-11-21T18:40:01.170Z</time>
      </trkpt>
      <trkpt lat="47.502673" lon="8.169021">
        <ele>504.479730</ele>
        <time>2021-11-21T18:40:03.878Z</time>
      </trkpt>
      <trkpt lat="47.502592" lon="8.168598">
        <ele>506.311747</ele>
        <time>2021-11-21T18:40:18.109Z</time>
      </trkpt>
      <trkpt lat="47.502442" lon="8.168297">
        <ele>507.870298</ele>
        <time>2021-11-21T18:40:28.378Z</time>
      </trkpt>
      <trkpt lat="47.502350" lon="8.168167">
        <ele>508.654798</ele>
        <time>2021-11-21T18:40:34.370Z</time>
      </trkpt>
      <trkpt lat="47.502034" lon="8.167757">
        <ele>511.246647</ele>
        <time>2021-11-21T18:40:52.881Z</time>
      </trkpt>
      <trkpt lat="47.500134" lon="8.165378">
        <ele>523.871094</ele>
        <time>2021-11-21T18:42:35.857Z</time>
      </trkpt>
      <trkpt lat="47.499926" lon="8.165012">
        <ele>525.166015</ele>
        <time>2021-11-21T18:42:47.195Z</time>
      </trkpt>
      <trkpt lat="47.499842" lon="8.164848">
        <ele>525.723229</ele>
        <time>2021-11-21T18:42:52.579Z</time>
      </trkpt>
      <trkpt lat="47.499759" lon="8.164579">
        <ele>526.523910</ele>
        <time>2021-11-21T18:42:58.682Z</time>
      </trkpt>
      <trkpt lat="47.499702" lon="8.164369">
        <ele>527.136658</ele>
        <time>2021-11-21T18:43:04.450Z</time>
      </trkpt>
      <trkpt lat="47.499674" lon="8.164221">
        <ele>527.552784</ele>
        <time>2021-11-21T18:43:07.455Z</time>
      </trkpt>
      <trkpt lat="47.499606" lon="8.163585">
        <ele>529.166909</ele>
        <time>2021-11-21T18:43:21.281Z</time>
      </trkpt>
      <trkpt lat="47.499593" lon="8.163439">
        <ele>529.423045</ele>
        <time>2021-11-21T18:43:24.950Z</time>
      </trkpt>
      <trkpt lat="47.499570" lon="8.163256">
        <ele>529.746801</ele>
        <time>2021-11-21T18:43:29.228Z</time>
      </trkpt>
      <trkpt lat="47.499561" lon="8.163178">
        <ele>529.884432</ele>
        <time>2021-11-21T18:43:30.737Z</time>
      </trkpt>
      <trkpt lat="47.499529" lon="8.163016">
        <ele>530.177998</ele>
        <time>2021-11-21T18:43:34.010Z</time>
      </trkpt>
      <trkpt lat="47.499421" lon="8.162591">
        <ele>530.967771</ele>
        <time>2021-11-21T18:43:43.943Z</time>
      </trkpt>
      <trkpt lat="47.499404" lon="8.162533">
        <ele>531.077737</ele>
        <time>2021-11-21T18:43:45.073Z</time>
      </trkpt>
      <trkpt lat="47.499391" lon="8.162488">
        <ele>531.162861</ele>
        <time>2021-11-21T18:43:46.399Z</time>
      </trkpt>
      <trkpt lat="47.499263" lon="8.162040">
        <ele>532.008895</ele>
        <time>2021-11-21T18:43:55.700Z</time>
      </trkpt>
      <trkpt lat="47.499203" lon="8.161843">
        <ele>532.384752</ele>
        <time>2021-11-21T18:44:00.421Z</time>
      </trkpt>
      <trkpt lat="47.499088" lon="8.161438">
        <ele>533.148869</ele>
        <time>2021-11-21T18:44:08.995Z</time>
      </trkpt>
      <trkpt lat="47.498981" lon="8.161060">
        <ele>533.770094</ele>
        <time>2021-11-21T18:44:16.621Z</time>
      </trkpt>
      <trkpt lat="47.498881" lon="8.160699">
        <ele>534.238994</ele>
        <time>2021-11-21T18:44:23.022Z</time>
      </trkpt>
      <trkpt lat="47.498832" lon="8.160548">
        <ele>534.440313</ele>
        <time>2021-11-21T18:44:25.506Z</time>
      </trkpt>
      <trkpt lat="47.498784" lon="8.160412">
        <ele>534.624717</ele>
        <time>2021-11-21T18:44:28.241Z</time>
      </trkpt>
      <trkpt lat="47.498722" lon="8.160237">
        <ele>534.862195</ele>
        <time>2021-11-21T18:44:31.175Z</time>
      </trkpt>
      <trkpt lat="47.498560" lon="8.159790">
        <ele>535.471813</ele>
        <time>2021-11-21T18:44:38.769Z</time>
      </trkpt>
      <trkpt lat="47.498196" lon="8.158878">
        <ele>536.744834</ele>
        <time>2021-11-21T18:44:53.234Z</time>
      </trkpt>
      <trkpt lat="47.497875" lon="8.158014">
        <ele>538.380817</ele>
        <time>2021-11-21T18:45:06.531Z</time>
      </trkpt>
      <trkpt lat="47.497827" lon="8.157898">
        <ele>538.607576</ele>
        <time>2021-11-21T18:45:09.374Z</time>
      </trkpt>
      <trkpt lat="47.497717" lon="8.157596">
        <ele>539.179514</ele>
        <time>2021-11-21T18:45:14.887Z</time>
      </trkpt>
      <trkpt lat="47.497677" lon="8.157483">
        <ele>539.392175</ele>
        <time>2021-11-21T18:45:17.279Z</time>
      </trkpt>
      <trkpt lat="47.497620" lon="8.157313">
        <ele>539.708547</ele>
        <time>2021-11-21T18:45:20.427Z</time>
      </trkpt>
      <trkpt lat="47.497556" lon="8.157098">
        <ele>540.100201</ele>
        <time>2021-11-21T18:45:24.732Z</time>
      </trkpt>
      <trkpt lat="47.497515" lon="8.156974">
        <ele>540.330338</ele>
        <time>2021-11-21T18:45:27.700Z</time>
      </trkpt>
      <trkpt lat="47.497410" lon="8.156510">
        <ele>541.146069</ele>
        <time>2021-11-21T18:45:36.820Z</time>
      </trkpt>
      <trkpt lat="47.497401" lon="8.156439">
        <ele>541.285863</ele>
        <time>2021-11-21T18:45:38.685Z</time>
      </trkpt>
      <trkpt lat="47.497395" lon="8.156369">
        <ele>541.439211</ele>
        <time>2021-11-21T18:45:39.906Z</time>
      </trkpt>
      <trkpt lat="47.497390" lon="8.156282">
        <ele>541.628968</ele>
        <time>2021-11-21T18:45:41.241Z</time>
      </trkpt>
      <trkpt lat="47.497386" lon="8.156131">
        <ele>541.957383</ele>
        <time>2021-11-21T18:45:44.466Z</time>
      </trkpt>
      <trkpt lat="47.497388" lon="8.155994">
        <ele>542.255189</ele>
        <time>2021-11-21T18:45:47.349Z</time>
      </trkpt>
      <trkpt lat="47.497390" lon="8.155891">
        <ele>542.479127</ele>
        <time>2021-11-21T18:45:49.847Z</time>
      </trkpt>
      <trkpt lat="47.497382" lon="8.155739">
        <ele>542.810464</ele>
        <time>2021-11-21T18:45:52.211Z</time>
      </trkpt>
      <trkpt lat="47.497376" lon="8.155653">
        <ele>542.998359</ele>
        <time>2021-11-21T18:45:54.119Z</time>
      </trkpt>
      <trkpt lat="47.497351" lon="8.155541">
        <ele>543.254704</ele>
        <time>2021-11-21T18:45:56.732Z</time>
      </trkpt>
      <trkpt lat="47.497215" lon="8.155097">
        <ele>544.314171</ele>
        <time>2021-11-21T18:46:06.696Z</time>
      </trkpt>
      <trkpt lat="47.497059" lon="8.154725">
        <ele>545.265700</ele>
        <time>2021-11-21T18:46:15.565Z</time>
      </trkpt>
      <trkpt lat="47.497011" lon="8.154633">
        <ele>545.518318</ele>
        <time>2021-11-21T18:46:17.687Z</time>
      </trkpt>
      <trkpt lat="47.496927" lon="8.154519">
        <ele>545.884911</ele>
        <time>2021-11-21T18:46:20.851Z</time>
      </trkpt>
      <trkpt lat="47.496872" lon="8.154444">
        <ele>546.125468</ele>
        <time>2021-11-21T18:46:22.709Z</time>
      </trkpt>
      <trkpt lat="47.496673" lon="8.154171">
        <ele>546.991178</ele>
        <time>2021-11-21T18:46:29.438Z</time>
      </trkpt>
      <trkpt lat="47.496607" lon="8.154090">
        <ele>547.069774</ele>
        <time>2021-11-21T18:46:31.208Z</time>
      </trkpt>
      <trkpt lat="47.496354" lon="8.153743">
        <ele>547.385967</ele>
        <time>2021-11-21T18:46:37.957Z</time>
      </trkpt>
      <trkpt lat="47.496295" lon="8.153600">
        <ele>547.489743</ele>
        <time>2021-11-21T18:46:40.508Z</time>
      </trkpt>
      <trkpt lat="47.496252" lon="8.153481">
        <ele>547.573325</ele>
        <time>2021-11-21T18:46:41.632Z</time>
      </trkpt>
      <trkpt lat="47.496043" lon="8.152517">
        <ele>548.200373</ele>
        <time>2021-11-21T18:46:52.871Z</time>
      </trkpt>
      <trkpt lat="47.496031" lon="8.152401">
        <ele>548.273056</ele>
        <time>2021-11-21T18:46:53.875Z</time>
      </trkpt>
      <trkpt lat="47.496013" lon="8.152224">
        <ele>548.383918</ele>
        <time>2021-11-21T18:46:55.788Z</time>
      </trkpt>
      <trkpt lat="47.495980" lon="8.151500">
        <ele>548.909077</ele>
        <time>2021-11-21T18:47:04.637Z</time>
      </trkpt>
      <trkpt lat="47.495926" lon="8.150795">
        <ele>549.518141</ele>
        <time>2021-11-21T18:47:13.767Z</time>
      </trkpt>
      <trkpt lat="47.495907" lon="8.150548">
        <ele>549.731541</ele>
        <time>2021-11-21T18:47:17.477Z</time>
      </trkpt>
      <trkpt lat="47.495916" lon="8.150228">
        <ele>550.006474</ele>
        <time>2021-11-21T18:47:21.733Z</time>
      </trkpt>
      <trkpt lat="47.496064" lon="8.149222">
        <ele>550.890281</ele>
        <time>2021-11-21T18:47:36.589Z</time>
      </trkpt>
      <trkpt lat="47.496100" lon="8.148965">
        <ele>551.026998</ele>
        <time>2021-11-21T18:47:40.472Z</time>
      </trkpt>
      <trkpt lat="47.496114" lon="8.148836">
        <ele>551.087723</ele>
        <time>2021-11-21T18:47:42.435Z</time>
      </trkpt>
      <trkpt lat="47.496081" lon="8.148674">
        <ele>551.166366</ele>
        <time>2021-11-21T18:47:44.696Z</time>
      </trkpt>
      <trkpt lat="47.496048" lon="8.148514">
        <ele>551.244120</ele>
        <time>2021-11-21T18:47:47.031Z</time>
      </trkpt>
      <trkpt lat="47.495811" lon="8.147525">
        <ele>551.731850</ele>
        <time>2021-11-21T18:48:00.310Z</time>
      </trkpt>
      <trkpt lat="47.495531" lon="8.146431">
        <ele>552.172171</ele>
        <time>2021-11-21T18:48:11.402Z</time>
      </trkpt>
      <trkpt lat="47.495330" lon="8.146238">
        <ele>552.189891</ele>
        <time>2021-11-21T18:48:14.417Z</time>
      </trkpt>
      <trkpt lat="47.495291" lon="8.146216">
        <ele>552.192978</ele>
        <time>2021-11-21T18:48:15.009Z</time>
      </trkpt>
      <trkpt lat="47.495291" lon="8.146216">
        <ele>552.192978</ele>
        <time>2021-11-21T18:48:15.038Z</time>
      </trkpt>
      <trkpt lat="47.495291" lon="8.146216">
        <ele>552.192978</ele>
        <time>2021-11-21T18:48:15.209Z</time>
      </trkpt>
      <trkpt lat="47.495167" lon="8.146162">
        <ele>552.202537</ele>
        <time>2021-11-21T18:48:16.849Z</time>
      </trkpt>
      <trkpt lat="47.494550" lon="8.146113">
        <ele>552.248235</ele>
        <time>2021-11-21T18:48:25.595Z</time>
      </trkpt>
      <trkpt lat="47.494476" lon="8.146116">
        <ele>552.253710</ele>
        <time>2021-11-21T18:48:26.612Z</time>
      </trkpt>
      <trkpt lat="47.494351" lon="8.146113">
        <ele>552.262956</ele>
        <time>2021-11-21T18:48:28.361Z</time>
      </trkpt>
      <trkpt lat="47.492464" lon="8.146635">
        <ele>554.661134</ele>
        <time>2021-11-21T18:49:05.861Z</time>
      </trkpt>
      <trkpt lat="47.492241" lon="8.146624">
        <ele>555.009484</ele>
        <time>2021-11-21T18:49:11.193Z</time>
      </trkpt>
      <trkpt lat="47.492125" lon="8.146571">
        <ele>555.383330</ele>
        <time>2021-11-21T18:49:14.926Z</time>
      </trkpt>
      <trkpt lat="47.492088" lon="8.146482">
        <ele>555.700522</ele>
        <time>2021-11-21T18:49:16.762Z</time>
      </trkpt>
      <trkpt lat="47.492083" lon="8.146208">
        <ele>556.532535</ele>
        <time>2021-11-21T18:49:21.782Z</time>
      </trkpt>
      <trkpt lat="47.492079" lon="8.146009">
        <ele>557.136854</ele>
        <time>2021-11-21T18:49:26.135Z</time>
      </trkpt>
      <trkpt lat="47.492082" lon="8.145838">
        <ele>557.656088</ele>
        <time>2021-11-21T18:49:29.410Z</time>
      </trkpt>
      <trkpt lat="47.492088" lon="8.145254">
        <ele>559.428988</ele>
        <time>2021-11-21T18:49:42.338Z</time>
      </trkpt>
      <trkpt lat="47.492088" lon="8.145158">
        <ele>559.720390</ele>
        <time>2021-11-21T18:49:44.566Z</time>
      </trkpt>
      <trkpt lat="47.492088" lon="8.144557">
        <ele>561.544687</ele>
        <time>2021-11-21T18:49:59.720Z</time>
      </trkpt>
      <trkpt lat="47.492087" lon="8.144186">
        <ele>562.670843</ele>
        <time>2021-11-21T18:50:09.266Z</time>
      </trkpt>
      <trkpt lat="47.492087" lon="8.143971">
        <ele>563.349827</ele>
        <time>2021-11-21T18:50:14.746Z</time>
      </trkpt>
      <trkpt lat="47.492053" lon="8.143800">
        <ele>563.991003</ele>
        <time>2021-11-21T18:50:18.832Z</time>
      </trkpt>
      <trkpt lat="47.492011" lon="8.143597">
        <ele>564.754671</ele>
        <time>2021-11-21T18:50:24.604Z</time>
      </trkpt>
      <trkpt lat="47.491965" lon="8.143321">
        <ele>565.777217</ele>
        <time>2021-11-21T18:50:31.339Z</time>
      </trkpt>
      <trkpt lat="47.491953" lon="8.143034">
        <ele>566.811551</ele>
        <time>2021-11-21T18:50:38.754Z</time>
      </trkpt>
      <trkpt lat="47.491957" lon="8.142795">
        <ele>567.671515</ele>
        <time>2021-11-21T18:50:45.663Z</time>
      </trkpt>
      <trkpt lat="47.491977" lon="8.142556">
        <ele>568.537782</ele>
        <time>2021-11-21T18:50:51.637Z</time>
      </trkpt>
      <trkpt lat="47.492031" lon="8.142263">
        <ele>569.630224</ele>
        <time>2021-11-21T18:50:59.640Z</time>
      </trkpt>
      <trkpt lat="47.492091" lon="8.142144">
        <ele>570.164313</ele>
        <time>2021-11-21T18:51:03.115Z</time>
      </trkpt>
      <trkpt lat="47.492178" lon="8.141991">
        <ele>570.883611</ele>
        <time>2021-11-21T18:51:08.006Z</time>
      </trkpt>
      <trkpt lat="47.492604" lon="8.141229">
        <ele>573.480704</ele>
        <time>2021-11-21T18:51:29.656Z</time>
      </trkpt>
      <trkpt lat="47.492634" lon="8.141132">
        <ele>573.645721</ele>
        <time>2021-11-21T18:51:32.021Z</time>
      </trkpt>
      <trkpt lat="47.492651" lon="8.141002">
        <ele>573.850543</ele>
        <time>2021-11-21T18:51:35.030Z</time>
      </trkpt>
      <trkpt lat="47.492396" lon="8.138752">
        <ele>576.772486</ele>
        <time>2021-11-21T18:52:07.283Z</time>
      </trkpt>
      <trkpt lat="47.492379" lon="8.138603">
        <ele>576.725701</ele>
        <time>2021-11-21T18:52:08.869Z</time>
      </trkpt>
      <trkpt lat="47.492359" lon="8.138479">
        <ele>576.686230</ele>
        <time>2021-11-21T18:52:09.939Z</time>
      </trkpt>
      <trkpt lat="47.492359" lon="8.138479">
        <ele>576.686230</ele>
        <time>2021-11-21T18:52:09.942Z</time>
      </trkpt>
      <trkpt lat="47.492313" lon="8.138377">
        <ele>576.648261</ele>
        <time>2021-11-21T18:52:10.994Z</time>
      </trkpt>
      <trkpt lat="47.492211" lon="8.138284">
        <ele>576.593365</ele>
        <time>2021-11-21T18:52:12.537Z</time>
      </trkpt>
      <trkpt lat="47.492088" lon="8.138269">
        <ele>576.536812</ele>
        <time>2021-11-21T18:52:14.149Z</time>
      </trkpt>
      <trkpt lat="47.491600" lon="8.138244">
        <ele>576.313066</ele>
        <time>2021-11-21T18:52:20.034Z</time>
      </trkpt>
      <trkpt lat="47.491438" lon="8.138230">
        <ele>576.238708</ele>
        <time>2021-11-21T18:52:22.088Z</time>
      </trkpt>
      <trkpt lat="47.490906" lon="8.138091">
        <ele>576.052500</ele>
        <time>2021-11-21T18:52:28.492Z</time>
      </trkpt>
      <trkpt lat="47.490479" lon="8.137973">
        <ele>576.062523</ele>
        <time>2021-11-21T18:52:33.923Z</time>
      </trkpt>
      <trkpt lat="47.490265" lon="8.137935">
        <ele>576.067496</ele>
        <time>2021-11-21T18:52:36.906Z</time>
      </trkpt>
      <trkpt lat="47.489423" lon="8.137655">
        <ele>576.087408</ele>
        <time>2021-11-21T18:52:51.286Z</time>
      </trkpt>
      <trkpt lat="47.488954" lon="8.137431">
        <ele>576.556114</ele>
        <time>2021-11-21T18:53:00.687Z</time>
      </trkpt>
      <trkpt lat="47.488837" lon="8.137371">
        <ele>576.728254</ele>
        <time>2021-11-21T18:53:03.116Z</time>
      </trkpt>
      <trkpt lat="47.488649" lon="8.137254">
        <ele>577.011777</ele>
        <time>2021-11-21T18:53:07.498Z</time>
      </trkpt>
      <trkpt lat="47.488465" lon="8.137151">
        <ele>577.285259</ele>
        <time>2021-11-21T18:53:11.542Z</time>
      </trkpt>
      <trkpt lat="47.488213" lon="8.137151">
        <ele>577.635584</ele>
        <time>2021-11-21T18:53:16.941Z</time>
      </trkpt>
      <trkpt lat="47.487735" lon="8.137374">
        <ele>578.332328</ele>
        <time>2021-11-21T18:53:28.138Z</time>
      </trkpt>
      <trkpt lat="47.487220" lon="8.137494">
        <ele>578.848306</ele>
        <time>2021-11-21T18:53:39.155Z</time>
      </trkpt>
      <trkpt lat="47.486647" lon="8.137734">
        <ele>579.304935</ele>
        <time>2021-11-21T18:53:48.996Z</time>
      </trkpt>
      <trkpt lat="47.486625" lon="8.137748">
        <ele>579.323298</ele>
        <time>2021-11-21T18:53:49.772Z</time>
      </trkpt>
      <trkpt lat="47.486500" lon="8.137887">
        <ele>579.443192</ele>
        <time>2021-11-21T18:53:52.429Z</time>
      </trkpt>
      <trkpt lat="47.486480" lon="8.137926">
        <ele>579.468560</ele>
        <time>2021-11-21T18:53:53.692Z</time>
      </trkpt>
      <trkpt lat="47.486385" lon="8.138090">
        <ele>579.580488</ele>
        <time>2021-11-21T18:53:58.982Z</time>
      </trkpt>
      <trkpt lat="47.486244" lon="8.138406">
        <ele>579.776703</ele>
        <time>2021-11-21T18:54:09.135Z</time>
      </trkpt>
      <trkpt lat="47.486150" lon="8.138614">
        <ele>579.906363</ele>
        <time>2021-11-21T18:54:15.793Z</time>
      </trkpt>
      <trkpt lat="47.485914" lon="8.138973">
        <ele>579.994434</ele>
        <time>2021-11-21T18:54:28.946Z</time>
      </trkpt>
      <trkpt lat="47.485769" lon="8.139093">
        <ele>580.009940</ele>
        <time>2021-11-21T18:54:35.472Z</time>
      </trkpt>
      <trkpt lat="47.485679" lon="8.139129">
        <ele>580.018642</ele>
        <time>2021-11-21T18:54:38.639Z</time>
      </trkpt>
      <trkpt lat="47.485614" lon="8.139130">
        <ele>580.024709</ele>
        <time>2021-11-21T18:54:39.968Z</time>
      </trkpt>
      <trkpt lat="47.485351" lon="8.139077">
        <ele>580.049483</ele>
        <time>2021-11-21T18:54:44.706Z</time>
      </trkpt>
      <trkpt lat="47.485087" lon="8.139024">
        <ele>580.074350</ele>
        <time>2021-11-21T18:54:48.675Z</time>
      </trkpt>
      <trkpt lat="47.484611" lon="8.138600">
        <ele>580.126207</ele>
        <time>2021-11-21T18:54:57.618Z</time>
      </trkpt>
      <trkpt lat="47.484101" lon="8.138667">
        <ele>579.218316</ele>
        <time>2021-11-21T18:55:03.764Z</time>
      </trkpt>
      <trkpt lat="47.483932" lon="8.138672">
        <ele>578.808705</ele>
        <time>2021-11-21T18:55:05.633Z</time>
      </trkpt>
      <trkpt lat="47.483799" lon="8.138672">
        <ele>578.486413</ele>
        <time>2021-11-21T18:55:07.208Z</time>
      </trkpt>
      <trkpt lat="47.483055" lon="8.138704">
        <ele>576.682754</ele>
        <time>2021-11-21T18:55:14.706Z</time>
      </trkpt>
      <trkpt lat="47.482993" lon="8.138736">
        <ele>576.523635</ele>
        <time>2021-11-21T18:55:15.444Z</time>
      </trkpt>
      <trkpt lat="47.482938" lon="8.138763">
        <ele>576.383214</ele>
        <time>2021-11-21T18:55:15.941Z</time>
      </trkpt>
      <trkpt lat="47.482382" lon="8.139311">
        <ele>574.718080</ele>
        <time>2021-11-21T18:55:23.152Z</time>
      </trkpt>
      <trkpt lat="47.482314" lon="8.139339">
        <ele>574.539243</ele>
        <time>2021-11-21T18:55:23.758Z</time>
      </trkpt>
      <trkpt lat="47.482269" lon="8.139354">
        <ele>574.422371</ele>
        <time>2021-11-21T18:55:24.222Z</time>
      </trkpt>
      <trkpt lat="47.481930" lon="8.139364">
        <ele>573.563286</ele>
        <time>2021-11-21T18:55:27.645Z</time>
      </trkpt>
      <trkpt lat="47.481795" lon="8.139350">
        <ele>573.220401</ele>
        <time>2021-11-21T18:55:29.055Z</time>
      </trkpt>
      <trkpt lat="47.481570" lon="8.139330">
        <ele>572.649297</ele>
        <time>2021-11-21T18:55:31.311Z</time>
      </trkpt>
      <trkpt lat="47.481334" lon="8.139233">
        <ele>572.028711</ele>
        <time>2021-11-21T18:55:34.754Z</time>
      </trkpt>
      <trkpt lat="47.481211" lon="8.139188">
        <ele>571.707684</ele>
        <time>2021-11-21T18:55:36.010Z</time>
      </trkpt>
      <trkpt lat="47.481047" lon="8.139151">
        <ele>571.287360</ele>
        <time>2021-11-21T18:55:38.279Z</time>
      </trkpt>
      <trkpt lat="47.480997" lon="8.139156">
        <ele>571.176956</ele>
        <time>2021-11-21T18:55:39.593Z</time>
      </trkpt>
      <trkpt lat="47.480931" lon="8.138738">
        <ele>570.636995</ele>
        <time>2021-11-21T18:55:42.713Z</time>
      </trkpt>
      <trkpt lat="47.480926" lon="8.138706">
        <ele>570.595681</ele>
        <time>2021-11-21T18:55:43.948Z</time>
      </trkpt>
      <trkpt lat="47.480849" lon="8.138227">
        <ele>569.976336</ele>
        <time>2021-11-21T18:55:48.591Z</time>
      </trkpt>
      <trkpt lat="47.480729" lon="8.137479">
        <ele>569.009279</ele>
        <time>2021-11-21T18:55:55.788Z</time>
      </trkpt>
      <trkpt lat="47.480611" lon="8.136738">
        <ele>568.051645</ele>
        <time>2021-11-21T18:56:00.864Z</time>
      </trkpt>
      <trkpt lat="47.480497" lon="8.136071">
        <ele>565.719429</ele>
        <time>2021-11-21T18:56:05.353Z</time>
      </trkpt>
      <trkpt lat="47.480445" lon="8.135745">
        <ele>564.400954</ele>
        <time>2021-11-21T18:56:07.427Z</time>
      </trkpt>
      <trkpt lat="47.480428" lon="8.135495">
        <ele>563.411921</ele>
        <time>2021-11-21T18:56:09.024Z</time>
      </trkpt>
      <trkpt lat="47.480431" lon="8.135333">
        <ele>562.774007</ele>
        <time>2021-11-21T18:56:09.977Z</time>
      </trkpt>
      <trkpt lat="47.480460" lon="8.135036">
        <ele>561.592800</ele>
        <time>2021-11-21T18:56:11.894Z</time>
      </trkpt>
      <trkpt lat="47.480608" lon="8.134090">
        <ele>557.770638</ele>
        <time>2021-11-21T18:56:17.797Z</time>
      </trkpt>
      <trkpt lat="47.480724" lon="8.133367">
        <ele>554.879497</ele>
        <time>2021-11-21T18:56:22.319Z</time>
      </trkpt>
      <trkpt lat="47.480899" lon="8.132641">
        <ele>551.885695</ele>
        <time>2021-11-21T18:56:27.031Z</time>
      </trkpt>
      <trkpt lat="47.481323" lon="8.131382">
        <ele>546.678717</ele>
        <time>2021-11-21T18:56:36.018Z</time>
      </trkpt>
      <trkpt lat="47.481421" lon="8.131045">
        <ele>545.824572</ele>
        <time>2021-11-21T18:56:38.491Z</time>
      </trkpt>
      <trkpt lat="47.481509" lon="8.130687">
        <ele>544.937668</ele>
        <time>2021-11-21T18:56:41.229Z</time>
      </trkpt>
      <trkpt lat="47.481589" lon="8.129851">
        <ele>542.971906</ele>
        <time>2021-11-21T18:56:46.984Z</time>
      </trkpt>
      <trkpt lat="47.481607" lon="8.129456">
        <ele>542.050193</ele>
        <time>2021-11-21T18:56:49.628Z</time>
      </trkpt>
      <trkpt lat="47.481655" lon="8.128429">
        <ele>540.260584</ele>
        <time>2021-11-21T18:56:56.704Z</time>
      </trkpt>
      <trkpt lat="47.481690" lon="8.127694">
        <ele>539.403801</ele>
        <time>2021-11-21T18:57:02.197Z</time>
      </trkpt>
      <trkpt lat="47.481722" lon="8.127177">
        <ele>538.800114</ele>
        <time>2021-11-21T18:57:06.283Z</time>
      </trkpt>
      <trkpt lat="47.481779" lon="8.126701">
        <ele>538.237997</ele>
        <time>2021-11-21T18:57:10.548Z</time>
      </trkpt>
      <trkpt lat="47.481879" lon="8.126325">
        <ele>537.771523</ele>
        <time>2021-11-21T18:57:13.952Z</time>
      </trkpt>
      <trkpt lat="47.481997" lon="8.125997">
        <ele>537.751509</ele>
        <time>2021-11-21T18:57:16.722Z</time>
      </trkpt>
      <trkpt lat="47.482507" lon="8.124964">
        <ele>537.682604</ele>
        <time>2021-11-21T18:57:30.219Z</time>
      </trkpt>
      <trkpt lat="47.482747" lon="8.124448">
        <ele>537.648866</ele>
        <time>2021-11-21T18:57:37.289Z</time>
      </trkpt>
      <trkpt lat="47.482968" lon="8.123897">
        <ele>537.638069</ele>
        <time>2021-11-21T18:57:44.296Z</time>
      </trkpt>
      <trkpt lat="47.483204" lon="8.123277">
        <ele>537.664744</ele>
        <time>2021-11-21T18:57:51.054Z</time>
      </trkpt>
      <trkpt lat="47.483395" lon="8.122774">
        <ele>537.686373</ele>
        <time>2021-11-21T18:57:56.762Z</time>
      </trkpt>
      <trkpt lat="47.483715" lon="8.122061">
        <ele>537.718459</ele>
        <time>2021-11-21T18:58:05.141Z</time>
      </trkpt>
      <trkpt lat="47.483747" lon="8.122015">
        <ele>537.720933</ele>
        <time>2021-11-21T18:58:05.610Z</time>
      </trkpt>
      <trkpt lat="47.483830" lon="8.121913">
        <ele>537.726918</ele>
        <time>2021-11-21T18:58:07.810Z</time>
      </trkpt>
      <trkpt lat="47.483946" lon="8.121799">
        <ele>537.749621</ele>
        <time>2021-11-21T18:58:10.504Z</time>
      </trkpt>
      <trkpt lat="47.484027" lon="8.121739">
        <ele>537.766165</ele>
        <time>2021-11-21T18:58:11.699Z</time>
      </trkpt>
      <trkpt lat="47.484058" lon="8.121717">
        <ele>537.772444</ele>
        <time>2021-11-21T18:58:12.096Z</time>
      </trkpt>
      <trkpt lat="47.484367" lon="8.121479">
        <ele>537.836065</ele>
        <time>2021-11-21T18:58:17.684Z</time>
      </trkpt>
      <trkpt lat="47.484520" lon="8.121330">
        <ele>537.869517</ele>
        <time>2021-11-21T18:58:21.254Z</time>
      </trkpt>
      <trkpt lat="47.484688" lon="8.121120">
        <ele>537.909682</ele>
        <time>2021-11-21T18:58:24.528Z</time>
      </trkpt>
      <trkpt lat="47.484812" lon="8.120917">
        <ele>537.943455</ele>
        <time>2021-11-21T18:58:28.033Z</time>
      </trkpt>
      <trkpt lat="47.484889" lon="8.120748">
        <ele>537.968611</ele>
        <time>2021-11-21T18:58:29.699Z</time>
      </trkpt>
      <trkpt lat="47.485011" lon="8.120456">
        <ele>538.010982</ele>
        <time>2021-11-21T18:58:33.861Z</time>
      </trkpt>
      <trkpt lat="47.485363" lon="8.119586">
        <ele>536.441119</ele>
        <time>2021-11-21T18:58:43.346Z</time>
      </trkpt>
      <trkpt lat="47.485564" lon="8.119205">
        <ele>535.229313</ele>
        <time>2021-11-21T18:58:47.227Z</time>
      </trkpt>
      <trkpt lat="47.486268" lon="8.118191">
        <ele>531.584578</ele>
        <time>2021-11-21T18:58:56.497Z</time>
      </trkpt>
      <trkpt lat="47.486571" lon="8.117656">
        <ele>526.821636</ele>
        <time>2021-11-21T18:59:00.619Z</time>
      </trkpt>
      <trkpt lat="47.486845" lon="8.117095">
        <ele>521.711406</ele>
        <time>2021-11-21T18:59:04.590Z</time>
      </trkpt>
      <trkpt lat="47.487583" lon="8.115667">
        <ele>508.170949</ele>
        <time>2021-11-21T18:59:14.820Z</time>
      </trkpt>
      <trkpt lat="47.487657" lon="8.115463">
        <ele>506.322390</ele>
        <time>2021-11-21T18:59:16.126Z</time>
      </trkpt>
      <trkpt lat="47.487880" lon="8.114431">
        <ele>497.671959</ele>
        <time>2021-11-21T18:59:22.314Z</time>
      </trkpt>
      <trkpt lat="47.487946" lon="8.113698">
        <ele>491.768025</ele>
        <time>2021-11-21T18:59:26.580Z</time>
      </trkpt>
      <trkpt lat="47.487928" lon="8.112601">
        <ele>484.046283</ele>
        <time>2021-11-21T18:59:32.953Z</time>
      </trkpt>
      <trkpt lat="47.487873" lon="8.112054">
        <ele>480.244779</ele>
        <time>2021-11-21T18:59:36.170Z</time>
      </trkpt>
      <trkpt lat="47.487816" lon="8.111427">
        <ele>475.895915</ele>
        <time>2021-11-21T18:59:39.845Z</time>
      </trkpt>
      <trkpt lat="47.487784" lon="8.111079">
        <ele>473.481693</ele>
        <time>2021-11-21T18:59:41.886Z</time>
      </trkpt>
      <trkpt lat="47.487750" lon="8.110724">
        <ele>471.109608</ele>
        <time>2021-11-21T18:59:43.973Z</time>
      </trkpt>
      <trkpt lat="47.487704" lon="8.110209">
        <ele>467.821568</ele>
        <time>2021-11-21T18:59:46.994Z</time>
      </trkpt>
      <trkpt lat="47.487592" lon="8.108945">
        <ele>459.752594</ele>
        <time>2021-11-21T18:59:54.432Z</time>
      </trkpt>
      <trkpt lat="47.487522" lon="8.108181">
        <ele>455.027525</ele>
        <time>2021-11-21T18:59:59.002Z</time>
      </trkpt>
      <trkpt lat="47.487488" lon="8.107690">
        <ele>452.942090</ele>
        <time>2021-11-21T19:00:01.967Z</time>
      </trkpt>
      <trkpt lat="47.487493" lon="8.107281">
        <ele>451.213701</ele>
        <time>2021-11-21T19:00:04.444Z</time>
      </trkpt>
      <trkpt lat="47.487526" lon="8.106968">
        <ele>449.875216</ele>
        <time>2021-11-21T19:00:06.355Z</time>
      </trkpt>
      <trkpt lat="47.487723" lon="8.106230">
        <ele>446.522555</ele>
        <time>2021-11-21T19:00:11.261Z</time>
      </trkpt>
      <trkpt lat="47.488025" lon="8.105557">
        <ele>443.726367</ele>
        <time>2021-11-21T19:00:16.434Z</time>
      </trkpt>
      <trkpt lat="47.488623" lon="8.104263">
        <ele>441.260565</ele>
        <time>2021-11-21T19:00:29.632Z</time>
      </trkpt>
      <trkpt lat="47.488766" lon="8.103832">
        <ele>440.505336</ele>
        <time>2021-11-21T19:00:32.802Z</time>
      </trkpt>
      <trkpt lat="47.488863" lon="8.103453">
        <ele>439.834073</ele>
        <time>2021-11-21T19:00:36.295Z</time>
      </trkpt>
      <trkpt lat="47.488961" lon="8.102990">
        <ele>438.389276</ele>
        <time>2021-11-21T19:00:39.534Z</time>
      </trkpt>
      <trkpt lat="47.489160" lon="8.101908">
        <ele>435.050049</ele>
        <time>2021-11-21T19:00:47.264Z</time>
      </trkpt>
      <trkpt lat="47.489218" lon="8.101622">
        <ele>434.160863</ele>
        <time>2021-11-21T19:00:49.152Z</time>
      </trkpt>
      <trkpt lat="47.489406" lon="8.100900">
        <ele>431.865040</ele>
        <time>2021-11-21T19:00:53.784Z</time>
      </trkpt>
      <trkpt lat="47.489497" lon="8.100620">
        <ele>431.002182</ele>
        <time>2021-11-21T19:00:55.673Z</time>
      </trkpt>
      <trkpt lat="47.489550" lon="8.100488">
        <ele>430.575770</ele>
        <time>2021-11-21T19:00:56.629Z</time>
      </trkpt>
      <trkpt lat="47.489698" lon="8.100128">
        <ele>429.405515</ele>
        <time>2021-11-21T19:00:59.300Z</time>
      </trkpt>
      <trkpt lat="47.489912" lon="8.099621">
        <ele>427.745404</ele>
        <time>2021-11-21T19:01:03.336Z</time>
      </trkpt>
      <trkpt lat="47.489995" lon="8.099422">
        <ele>427.095963</ele>
        <time>2021-11-21T19:01:04.948Z</time>
      </trkpt>
      <trkpt lat="47.490321" lon="8.098647">
        <ele>424.575092</ele>
        <time>2021-11-21T19:01:11.353Z</time>
      </trkpt>
      <trkpt lat="47.490966" lon="8.097142">
        <ele>422.299341</ele>
        <time>2021-11-21T19:01:24.655Z</time>
      </trkpt>
      <trkpt lat="47.491531" lon="8.095826">
        <ele>420.457031</ele>
        <time>2021-11-21T19:01:36.888Z</time>
      </trkpt>
      <trkpt lat="47.491852" lon="8.094991">
        <ele>419.437562</ele>
        <time>2021-11-21T19:01:44.508Z</time>
      </trkpt>
      <trkpt lat="47.492222" lon="8.094030">
        <ele>418.232218</ele>
        <time>2021-11-21T19:01:52.866Z</time>
      </trkpt>
      <trkpt lat="47.492561" lon="8.093030">
        <ele>416.668309</ele>
        <time>2021-11-21T19:02:01.046Z</time>
      </trkpt>
      <trkpt lat="47.492785" lon="8.092387">
        <ele>415.657071</ele>
        <time>2021-11-21T19:02:06.399Z</time>
      </trkpt>
      <trkpt lat="47.492908" lon="8.092021">
        <ele>415.085678</ele>
        <time>2021-11-21T19:02:09.349Z</time>
      </trkpt>
      <trkpt lat="47.492943" lon="8.091916">
        <ele>414.922017</ele>
        <time>2021-11-21T19:02:10.243Z</time>
      </trkpt>
      <trkpt lat="47.493004" lon="8.091715">
        <ele>414.617919</ele>
        <time>2021-11-21T19:02:11.965Z</time>
      </trkpt>
      <trkpt lat="47.493013" lon="8.091685">
        <ele>414.578332</ele>
        <time>2021-11-21T19:02:12.204Z</time>
      </trkpt>
      <trkpt lat="47.493111" lon="8.091365">
        <ele>414.154609</ele>
        <time>2021-11-21T19:02:14.728Z</time>
      </trkpt>
      <trkpt lat="47.493176" lon="8.091152">
        <ele>413.872740</ele>
        <time>2021-11-21T19:02:16.464Z</time>
      </trkpt>
      <trkpt lat="47.493199" lon="8.091055">
        <ele>413.748760</ele>
        <time>2021-11-21T19:02:17.161Z</time>
      </trkpt>
      <trkpt lat="47.493278" lon="8.090706">
        <ele>413.304863</ele>
        <time>2021-11-21T19:02:19.989Z</time>
      </trkpt>
      <trkpt lat="47.493318" lon="8.090521">
        <ele>413.070603</ele>
        <time>2021-11-21T19:02:21.322Z</time>
      </trkpt>
      <trkpt lat="47.493362" lon="8.090313">
        <ele>412.807742</ele>
        <time>2021-11-21T19:02:23.106Z</time>
      </trkpt>
      <trkpt lat="47.493381" lon="8.090217">
        <ele>412.687099</ele>
        <time>2021-11-21T19:02:23.877Z</time>
      </trkpt>
      <trkpt lat="47.493453" lon="8.089837">
        <ele>412.211130</ele>
        <time>2021-11-21T19:02:26.809Z</time>
      </trkpt>
      <trkpt lat="47.493523" lon="8.089470">
        <ele>411.751222</ele>
        <time>2021-11-21T19:02:29.764Z</time>
      </trkpt>
      <trkpt lat="47.493532" lon="8.089427">
        <ele>411.696932</ele>
        <time>2021-11-21T19:02:30.143Z</time>
      </trkpt>
      <trkpt lat="47.493802" lon="8.088286">
        <ele>410.493949</ele>
        <time>2021-11-21T19:02:40.126Z</time>
      </trkpt>
      <trkpt lat="47.493891" lon="8.087911">
        <ele>410.117067</ele>
        <time>2021-11-21T19:02:43.223Z</time>
      </trkpt>
      <trkpt lat="47.494042" lon="8.087271">
        <ele>409.474270</ele>
        <time>2021-11-21T19:02:48.525Z</time>
      </trkpt>
      <trkpt lat="47.494237" lon="8.086449">
        <ele>408.561472</ele>
        <time>2021-11-21T19:02:55.185Z</time>
      </trkpt>
      <trkpt lat="47.494445" lon="8.085612">
        <ele>407.433423</ele>
        <time>2021-11-21T19:03:02.008Z</time>
      </trkpt>
      <trkpt lat="47.494640" lon="8.084828">
        <ele>406.376697</ele>
        <time>2021-11-21T19:03:08.331Z</time>
      </trkpt>
      <trkpt lat="47.494652" lon="8.084779">
        <ele>406.310772</ele>
        <time>2021-11-21T19:03:08.720Z</time>
      </trkpt>
      <trkpt lat="47.494666" lon="8.084717">
        <ele>406.228086</ele>
        <time>2021-11-21T19:03:09.191Z</time>
      </trkpt>
      <trkpt lat="47.494730" lon="8.084449">
        <ele>405.868548</ele>
        <time>2021-11-21T19:03:11.281Z</time>
      </trkpt>
      <trkpt lat="47.494749" lon="8.084368">
        <ele>405.760094</ele>
        <time>2021-11-21T19:03:11.892Z</time>
      </trkpt>
      <trkpt lat="47.494822" lon="8.084015">
        <ele>405.307891</ele>
        <time>2021-11-21T19:03:14.531Z</time>
      </trkpt>
      <trkpt lat="47.494822" lon="8.084015">
        <ele>405.307891</ele>
        <time>2021-11-21T19:03:14.579Z</time>
      </trkpt>
      <trkpt lat="47.494822" lon="8.084015">
        <ele>405.307891</ele>
        <time>2021-11-21T19:03:14.583Z</time>
      </trkpt>
      <trkpt lat="47.494898" lon="8.083514">
        <ele>404.697101</ele>
        <time>2021-11-21T19:03:18.263Z</time>
      </trkpt>
      <trkpt lat="47.494933" lon="8.083243">
        <ele>404.368903</ele>
        <time>2021-11-21T19:03:20.299Z</time>
      </trkpt>
      <trkpt lat="47.494963" lon="8.083009">
        <ele>404.085588</ele>
        <time>2021-11-21T19:03:22.020Z</time>
      </trkpt>
      <trkpt lat="47.494982" lon="8.082826">
        <ele>403.865349</ele>
        <time>2021-11-21T19:03:23.416Z</time>
      </trkpt>
      <trkpt lat="47.495018" lon="8.082502">
        <ele>403.474767</ele>
        <time>2021-11-21T19:03:25.934Z</time>
      </trkpt>
      <trkpt lat="47.495034" lon="8.082354">
        <ele>403.296478</ele>
        <time>2021-11-21T19:03:27.127Z</time>
      </trkpt>
      <trkpt lat="47.495088" lon="8.082021">
        <ele>402.889118</ele>
        <time>2021-11-21T19:03:29.835Z</time>
      </trkpt>
      <trkpt lat="47.495132" lon="8.081754">
        <ele>402.562205</ele>
        <time>2021-11-21T19:03:32.097Z</time>
      </trkpt>
      <trkpt lat="47.495162" lon="8.081632">
        <ele>402.407771</ele>
        <time>2021-11-21T19:03:33.145Z</time>
      </trkpt>
      <trkpt lat="47.495207" lon="8.081445">
        <ele>402.303850</ele>
        <time>2021-11-21T19:03:34.718Z</time>
      </trkpt>
      <trkpt lat="47.495281" lon="8.081177">
        <ele>402.184398</ele>
        <time>2021-11-21T19:03:37.242Z</time>
      </trkpt>
      <trkpt lat="47.495292" lon="8.081144">
        <ele>402.169215</ele>
        <time>2021-11-21T19:03:37.527Z</time>
      </trkpt>
      <trkpt lat="47.495384" lon="8.080873">
        <ele>402.044082</ele>
        <time>2021-11-21T19:03:40.078Z</time>
      </trkpt>
      <trkpt lat="47.495515" lon="8.080558">
        <ele>401.891469</ele>
        <time>2021-11-21T19:03:43.520Z</time>
      </trkpt>
      <trkpt lat="47.495562" lon="8.080466">
        <ele>401.843882</ele>
        <time>2021-11-21T19:03:44.556Z</time>
      </trkpt>
      <trkpt lat="47.495681" lon="8.080229">
        <ele>401.722052</ele>
        <time>2021-11-21T19:03:47.237Z</time>
      </trkpt>
      <trkpt lat="47.495859" lon="8.079943">
        <ele>401.561618</ele>
        <time>2021-11-21T19:03:50.787Z</time>
      </trkpt>
      <trkpt lat="47.496040" lon="8.079701">
        <ele>401.412668</ele>
        <time>2021-11-21T19:03:54.124Z</time>
      </trkpt>
      <trkpt lat="47.496380" lon="8.079285">
        <ele>401.075997</ele>
        <time>2021-11-21T19:04:00.020Z</time>
      </trkpt>
      <trkpt lat="47.496536" lon="8.079094">
        <ele>400.889538</ele>
        <time>2021-11-21T19:04:02.745Z</time>
      </trkpt>
      <trkpt lat="47.496774" lon="8.078813">
        <ele>400.609148</ele>
        <time>2021-11-21T19:04:06.672Z</time>
      </trkpt>
      <trkpt lat="47.497084" lon="8.078448">
        <ele>400.244326</ele>
        <time>2021-11-21T19:04:11.596Z</time>
      </trkpt>
      <trkpt lat="47.497208" lon="8.078293">
        <ele>400.094847</ele>
        <time>2021-11-21T19:04:13.521Z</time>
      </trkpt>
      <trkpt lat="47.497325" lon="8.078131">
        <ele>399.947293</ele>
        <time>2021-11-21T19:04:15.420Z</time>
      </trkpt>
      <trkpt lat="47.497745" lon="8.077494">
        <ele>399.404622</ele>
        <time>2021-11-21T19:04:22.415Z</time>
      </trkpt>
      <trkpt lat="47.498061" lon="8.076857">
        <ele>398.937199</ele>
        <time>2021-11-21T19:04:28.449Z</time>
      </trkpt>
      <trkpt lat="47.498379" lon="8.076057">
        <ele>398.388204</ele>
        <time>2021-11-21T19:04:35.954Z</time>
      </trkpt>
      <trkpt lat="47.498775" lon="8.075058">
        <ele>398.357653</ele>
        <time>2021-11-21T19:04:49.171Z</time>
      </trkpt>
      <trkpt lat="47.498880" lon="8.074711">
        <ele>398.563874</ele>
        <time>2021-11-21T19:04:53.739Z</time>
      </trkpt>
      <trkpt lat="47.498960" lon="8.074378">
        <ele>398.755565</ele>
        <time>2021-11-21T19:04:58.658Z</time>
      </trkpt>
      <trkpt lat="47.499013" lon="8.074135">
        <ele>398.894060</ele>
        <time>2021-11-21T19:05:01.642Z</time>
      </trkpt>
      <trkpt lat="47.499051" lon="8.073942">
        <ele>399.003094</ele>
        <time>2021-11-21T19:05:04.800Z</time>
      </trkpt>
      <trkpt lat="47.499138" lon="8.073263">
        <ele>399.377932</ele>
        <time>2021-11-21T19:05:13.679Z</time>
      </trkpt>
      <trkpt lat="47.499170" lon="8.072504">
        <ele>399.102985</ele>
        <time>2021-11-21T19:05:23.991Z</time>
      </trkpt>
      <trkpt lat="47.499016" lon="8.069840">
        <ele>396.189829</ele>
        <time>2021-11-21T19:05:44.461Z</time>
      </trkpt>
      <trkpt lat="47.499026" lon="8.069468">
        <ele>395.236492</ele>
        <time>2021-11-21T19:05:46.892Z</time>
      </trkpt>
      <trkpt lat="47.499075" lon="8.068991">
        <ele>394.000996</ele>
        <time>2021-11-21T19:05:50.083Z</time>
      </trkpt>
      <trkpt lat="47.499075" lon="8.068991">
        <ele>394.000996</ele>
        <time>2021-11-21T19:05:50.094Z</time>
      </trkpt>
      <trkpt lat="47.499104" lon="8.068766">
        <ele>393.414447</ele>
        <time>2021-11-21T19:05:51.549Z</time>
      </trkpt>
      <trkpt lat="47.499148" lon="8.068524">
        <ele>392.772708</ele>
        <time>2021-11-21T19:05:53.388Z</time>
      </trkpt>
      <trkpt lat="47.499201" lon="8.068229">
        <ele>391.991048</ele>
        <time>2021-11-21T19:05:55.235Z</time>
      </trkpt>
      <trkpt lat="47.499519" lon="8.066520">
        <ele>387.938718</ele>
        <time>2021-11-21T19:06:06.739Z</time>
      </trkpt>
      <trkpt lat="47.499531" lon="8.066460">
        <ele>387.801598</ele>
        <time>2021-11-21T19:06:08.569Z</time>
      </trkpt>
      <trkpt lat="47.499591" lon="8.066154">
        <ele>387.103382</ele>
        <time>2021-11-21T19:06:10.580Z</time>
      </trkpt>
      <trkpt lat="47.499610" lon="8.066051">
        <ele>386.869413</ele>
        <time>2021-11-21T19:06:11.358Z</time>
      </trkpt>
      <trkpt lat="47.499668" lon="8.065730">
        <ele>386.141276</ele>
        <time>2021-11-21T19:06:14.507Z</time>
      </trkpt>
      <trkpt lat="47.499682" lon="8.065635">
        <ele>385.928205</ele>
        <time>2021-11-21T19:06:15.080Z</time>
      </trkpt>
      <trkpt lat="47.499770" lon="8.065082">
        <ele>384.915029</ele>
        <time>2021-11-21T19:06:19.471Z</time>
      </trkpt>
      <trkpt lat="47.499809" lon="8.064788">
        <ele>384.749632</ele>
        <time>2021-11-21T19:06:23.282Z</time>
      </trkpt>
      <trkpt lat="47.499832" lon="8.064625">
        <ele>384.657709</ele>
        <time>2021-11-21T19:06:24.376Z</time>
      </trkpt>
      <trkpt lat="47.499921" lon="8.063941">
        <ele>384.273179</ele>
        <time>2021-11-21T19:06:30.227Z</time>
      </trkpt>
      <trkpt lat="47.499972" lon="8.063575">
        <ele>384.066882</ele>
        <time>2021-11-21T19:06:34.367Z</time>
      </trkpt>
      <trkpt lat="47.500065" lon="8.063116">
        <ele>383.802350</ele>
        <time>2021-11-21T19:06:38.443Z</time>
      </trkpt>
      <trkpt lat="47.500111" lon="8.062899">
        <ele>383.676800</ele>
        <time>2021-11-21T19:06:40.859Z</time>
      </trkpt>
      <trkpt lat="47.500321" lon="8.061955">
        <ele>383.030069</ele>
        <time>2021-11-21T19:06:49.407Z</time>
      </trkpt>
      <trkpt lat="47.500357" lon="8.061762">
        <ele>382.892110</ele>
        <time>2021-11-21T19:06:50.870Z</time>
      </trkpt>
      <trkpt lat="47.500421" lon="8.061418">
        <ele>382.646258</ele>
        <time>2021-11-21T19:06:54.393Z</time>
      </trkpt>
      <trkpt lat="47.500438" lon="8.061324">
        <ele>382.579209</ele>
        <time>2021-11-21T19:06:54.991Z</time>
      </trkpt>
      <trkpt lat="47.500538" lon="8.060723">
        <ele>382.152726</ele>
        <time>2021-11-21T19:07:00.268Z</time>
      </trkpt>
      <trkpt lat="47.500573" lon="8.060533">
        <ele>382.017030</ele>
        <time>2021-11-21T19:07:02.104Z</time>
      </trkpt>
      <trkpt lat="47.500588" lon="8.060437">
        <ele>381.949137</ele>
        <time>2021-11-21T19:07:02.850Z</time>
      </trkpt>
      <trkpt lat="47.500604" lon="8.060344">
        <ele>381.883012</ele>
        <time>2021-11-21T19:07:03.547Z</time>
      </trkpt>
      <trkpt lat="47.500708" lon="8.059752">
        <ele>381.714049</ele>
        <time>2021-11-21T19:07:08.306Z</time>
      </trkpt>
      <trkpt lat="47.500919" lon="8.058927">
        <ele>381.781147</ele>
        <time>2021-11-21T19:07:16.298Z</time>
      </trkpt>
      <trkpt lat="47.501139" lon="8.058076">
        <ele>381.850453</ele>
        <time>2021-11-21T19:07:26.267Z</time>
      </trkpt>
      <trkpt lat="47.501265" lon="8.057592">
        <ele>381.889906</ele>
        <time>2021-11-21T19:07:33.393Z</time>
      </trkpt>
      <trkpt lat="47.501287" lon="8.057595">
        <ele>381.902300</ele>
        <time>2021-11-21T19:07:33.853Z</time>
      </trkpt>
      <trkpt lat="47.501352" lon="8.057560">
        <ele>381.992058</ele>
        <time>2021-11-21T19:07:35.213Z</time>
      </trkpt>
      <trkpt lat="47.501377" lon="8.057505">
        <ele>382.050174</ele>
        <time>2021-11-21T19:07:36.122Z</time>
      </trkpt>
      <trkpt lat="47.501386" lon="8.057452">
        <ele>382.098084</ele>
        <time>2021-11-21T19:07:37.104Z</time>
      </trkpt>
      <trkpt lat="47.501371" lon="8.057371">
        <ele>382.171716</ele>
        <time>2021-11-21T19:07:38.205Z</time>
      </trkpt>
      <trkpt lat="47.501356" lon="8.057344">
        <ele>382.202362</ele>
        <time>2021-11-21T19:07:38.939Z</time>
      </trkpt>
      <trkpt lat="47.501459" lon="8.056906">
        <ele>382.608951</ele>
        <time>2021-11-21T19:07:45.839Z</time>
      </trkpt>
      <trkpt lat="47.501717" lon="8.055892">
        <ele>383.558870</ele>
        <time>2021-11-21T19:08:02.096Z</time>
      </trkpt>
      <trkpt lat="47.501751" lon="8.055654">
        <ele>383.772135</ele>
        <time>2021-11-21T19:08:05.725Z</time>
      </trkpt>
      <trkpt lat="47.501784" lon="8.055340">
        <ele>384.050725</ele>
        <time>2021-11-21T19:08:09.571Z</time>
      </trkpt>
      <trkpt lat="47.501806" lon="8.054996">
        <ele>384.052902</ele>
        <time>2021-11-21T19:08:13.634Z</time>
      </trkpt>
      <trkpt lat="47.501851" lon="8.054393">
        <ele>383.336082</ele>
        <time>2021-11-21T19:08:18.932Z</time>
      </trkpt>
      <trkpt lat="47.501857" lon="8.054265">
        <ele>383.184477</ele>
        <time>2021-11-21T19:08:19.873Z</time>
      </trkpt>
      <trkpt lat="47.501923" lon="8.053252">
        <ele>381.981996</ele>
        <time>2021-11-21T19:08:27.530Z</time>
      </trkpt>
      <trkpt lat="47.502020" lon="8.051188">
        <ele>378.011858</ele>
        <time>2021-11-21T19:08:41.455Z</time>
      </trkpt>
      <trkpt lat="47.502094" lon="8.049547">
        <ele>374.331483</ele>
        <time>2021-11-21T19:08:52.487Z</time>
      </trkpt>
      <trkpt lat="47.502090" lon="8.048236">
        <ele>372.093197</ele>
        <time>2021-11-21T19:09:01.729Z</time>
      </trkpt>
      <trkpt lat="47.502044" lon="8.047705">
        <ele>371.179200</ele>
        <time>2021-11-21T19:09:05.665Z</time>
      </trkpt>
      <trkpt lat="47.502029" lon="8.047540">
        <ele>370.894957</ele>
        <time>2021-11-21T19:09:06.864Z</time>
      </trkpt>
      <trkpt lat="47.501759" lon="8.046002">
        <ele>369.213611</ele>
        <time>2021-11-21T19:09:19.172Z</time>
      </trkpt>
      <trkpt lat="47.501515" lon="8.044851">
        <ele>368.168281</ele>
        <time>2021-11-21T19:09:29.201Z</time>
      </trkpt>
      <trkpt lat="47.501358" lon="8.044092">
        <ele>367.305112</ele>
        <time>2021-11-21T19:09:35.754Z</time>
      </trkpt>
      <trkpt lat="47.501234" lon="8.043345">
        <ele>366.399758</ele>
        <time>2021-11-21T19:09:41.812Z</time>
      </trkpt>
      <trkpt lat="47.501123" lon="8.042252">
        <ele>365.098864</ele>
        <time>2021-11-21T19:09:50.025Z</time>
      </trkpt>
      <trkpt lat="47.501065" lon="8.041677">
        <ele>364.329763</ele>
        <time>2021-11-21T19:09:54.048Z</time>
      </trkpt>
      <trkpt lat="47.501009" lon="8.040934">
        <ele>363.272807</ele>
        <time>2021-11-21T19:09:59.368Z</time>
      </trkpt>
      <trkpt lat="47.501026" lon="8.040085">
        <ele>362.071980</ele>
        <time>2021-11-21T19:10:05.538Z</time>
      </trkpt>
      <trkpt lat="47.501026" lon="8.040085">
        <ele>362.071980</ele>
        <time>2021-11-21T19:10:05.548Z</time>
      </trkpt>
      <trkpt lat="47.501083" lon="8.039040">
        <ele>361.034229</ele>
        <time>2021-11-21T19:10:13.994Z</time>
      </trkpt>
      <trkpt lat="47.501120" lon="8.039033">
        <ele>361.028079</ele>
        <time>2021-11-21T19:10:14.367Z</time>
      </trkpt>
      <trkpt lat="47.501198" lon="8.038918">
        <ele>361.009928</ele>
        <time>2021-11-21T19:10:15.961Z</time>
      </trkpt>
      <trkpt lat="47.501143" lon="8.038725">
        <ele>360.986596</ele>
        <time>2021-11-21T19:10:17.851Z</time>
      </trkpt>
      <trkpt lat="47.501107" lon="8.038707">
        <ele>360.980331</ele>
        <time>2021-11-21T19:10:18.322Z</time>
      </trkpt>
      <trkpt lat="47.501117" lon="8.038538">
        <ele>360.961435</ele>
        <time>2021-11-21T19:10:19.689Z</time>
      </trkpt>
      <trkpt lat="47.501141" lon="8.038290">
        <ele>360.933530</ele>
        <time>2021-11-21T19:10:22.257Z</time>
      </trkpt>
      <trkpt lat="47.501181" lon="8.037704">
        <ele>360.867926</ele>
        <time>2021-11-21T19:10:28.319Z</time>
      </trkpt>
      <trkpt lat="47.501269" lon="8.036713">
        <ele>360.766710</ele>
        <time>2021-11-21T19:10:40.510Z</time>
      </trkpt>
      <trkpt lat="47.501324" lon="8.036205">
        <ele>360.739756</ele>
        <time>2021-11-21T19:10:46.881Z</time>
      </trkpt>
      <trkpt lat="47.501430" lon="8.035235">
        <ele>360.688279</ele>
        <time>2021-11-21T19:10:56.852Z</time>
      </trkpt>
      <trkpt lat="47.501641" lon="8.034168">
        <ele>360.536391</ele>
        <time>2021-11-21T19:11:06.382Z</time>
      </trkpt>
      <trkpt lat="47.501669" lon="8.033986">
        <ele>360.378367</ele>
        <time>2021-11-21T19:11:07.891Z</time>
      </trkpt>
      <trkpt lat="47.501698" lon="8.034000">
        <ele>360.340142</ele>
        <time>2021-11-21T19:11:08.212Z</time>
      </trkpt>
      <trkpt lat="47.501807" lon="8.033950">
        <ele>360.197139</ele>
        <time>2021-11-21T19:11:09.681Z</time>
      </trkpt>
      <trkpt lat="47.501827" lon="8.033911">
        <ele>360.155687</ele>
        <time>2021-11-21T19:11:10.050Z</time>
      </trkpt>
      <trkpt lat="47.501840" lon="8.033865">
        <ele>360.113474</ele>
        <time>2021-11-21T19:11:10.505Z</time>
      </trkpt>
      <trkpt lat="47.501821" lon="8.033715">
        <ele>359.984273</ele>
        <time>2021-11-21T19:11:11.716Z</time>
      </trkpt>
      <trkpt lat="47.501785" lon="8.033665">
        <ele>359.922410</ele>
        <time>2021-11-21T19:11:12.320Z</time>
      </trkpt>
      <trkpt lat="47.501785" lon="8.033665">
        <ele>359.922410</ele>
        <time>2021-11-21T19:11:12.322Z</time>
      </trkpt>
      <trkpt lat="47.501831" lon="8.033540">
        <ele>359.801904</ele>
        <time>2021-11-21T19:11:13.482Z</time>
      </trkpt>
      <trkpt lat="47.501972" lon="8.033162">
        <ele>359.436353</ele>
        <time>2021-11-21T19:11:16.884Z</time>
      </trkpt>
      <trkpt lat="47.502050" lon="8.032952">
        <ele>359.233471</ele>
        <time>2021-11-21T19:11:18.816Z</time>
      </trkpt>
      <trkpt lat="47.502278" lon="8.032378">
        <ele>358.669759</ele>
        <time>2021-11-21T19:11:23.954Z</time>
      </trkpt>
      <trkpt lat="47.502589" lon="8.031477">
        <ele>357.823398</ele>
        <time>2021-11-21T19:11:31.836Z</time>
      </trkpt>
      <trkpt lat="47.503055" lon="8.030264">
        <ele>356.663258</ele>
        <time>2021-11-21T19:11:43.019Z</time>
      </trkpt>
      <trkpt lat="47.503408" lon="8.029412">
        <ele>355.984729</ele>
        <time>2021-11-21T19:11:51.384Z</time>
      </trkpt>
      <trkpt lat="47.503617" lon="8.028907">
        <ele>355.715466</ele>
        <time>2021-11-21T19:11:56.383Z</time>
      </trkpt>
      <trkpt lat="47.503672" lon="8.028775">
        <ele>355.644954</ele>
        <time>2021-11-21T19:11:57.725Z</time>
      </trkpt>
      <trkpt lat="47.504063" lon="8.027828">
        <ele>355.140347</ele>
        <time>2021-11-21T19:12:07.521Z</time>
      </trkpt>
      <trkpt lat="47.504221" lon="8.027444">
        <ele>354.939139</ele>
        <time>2021-11-21T19:12:11.640Z</time>
      </trkpt>
      <trkpt lat="47.504606" lon="8.026545">
        <ele>354.525159</ele>
        <time>2021-11-21T19:12:21.546Z</time>
      </trkpt>
      <trkpt lat="47.504614" lon="8.026525">
        <ele>354.516120</ele>
        <time>2021-11-21T19:12:21.709Z</time>
      </trkpt>
      <trkpt lat="47.504641" lon="8.026538">
        <ele>354.499774</ele>
        <time>2021-11-21T19:12:22.135Z</time>
      </trkpt>
      <trkpt lat="47.504663" lon="8.026539">
        <ele>354.487102</ele>
        <time>2021-11-21T19:12:22.454Z</time>
      </trkpt>
      <trkpt lat="47.504689" lon="8.026530">
        <ele>354.471729</ele>
        <time>2021-11-21T19:12:22.842Z</time>
      </trkpt>
      <trkpt lat="47.504716" lon="8.026506">
        <ele>354.453597</ele>
        <time>2021-11-21T19:12:23.250Z</time>
      </trkpt>
      <trkpt lat="47.504737" lon="8.026462">
        <ele>354.432645</ele>
        <time>2021-11-21T19:12:23.735Z</time>
      </trkpt>
      <trkpt lat="47.504744" lon="8.026435">
        <ele>354.421397</ele>
        <time>2021-11-21T19:12:23.990Z</time>
      </trkpt>
      <trkpt lat="47.504745" lon="8.026393">
        <ele>354.405052</ele>
        <time>2021-11-21T19:12:24.360Z</time>
      </trkpt>
      <trkpt lat="47.504733" lon="8.026338">
        <ele>354.382574</ele>
        <time>2021-11-21T19:12:24.865Z</time>
      </trkpt>
      <trkpt lat="47.504704" lon="8.026294">
        <ele>354.358666</ele>
        <time>2021-11-21T19:12:25.394Z</time>
      </trkpt>
      <trkpt lat="47.504725" lon="8.026244">
        <ele>354.335768</ele>
        <time>2021-11-21T19:12:25.944Z</time>
      </trkpt>
      <trkpt lat="47.504760" lon="8.026163">
        <ele>354.298372</ele>
        <time>2021-11-21T19:12:26.729Z</time>
      </trkpt>
      <trkpt lat="47.504823" lon="8.026024">
        <ele>354.233272</ele>
        <time>2021-11-21T19:12:28.233Z</time>
      </trkpt>
      <trkpt lat="47.505192" lon="8.025207">
        <ele>353.815859</ele>
        <time>2021-11-21T19:12:36.658Z</time>
      </trkpt>
      <trkpt lat="47.505559" lon="8.024486">
        <ele>353.292147</ele>
        <time>2021-11-21T19:12:44.006Z</time>
      </trkpt>
      <trkpt lat="47.505612" lon="8.024383">
        <ele>353.217035</ele>
        <time>2021-11-21T19:12:44.967Z</time>
      </trkpt>
      <trkpt lat="47.505697" lon="8.024216">
        <ele>353.095735</ele>
        <time>2021-11-21T19:12:46.564Z</time>
      </trkpt>
      <trkpt lat="47.505883" lon="8.023827">
        <ele>352.819261</ele>
        <time>2021-11-21T19:12:50.541Z</time>
      </trkpt>
      <trkpt lat="47.506199" lon="8.023103">
        <ele>352.402377</ele>
        <time>2021-11-21T19:12:58.456Z</time>
      </trkpt>
      <trkpt lat="47.506199" lon="8.023103">
        <ele>352.402377</ele>
        <time>2021-11-21T19:12:58.462Z</time>
      </trkpt>
      <trkpt lat="47.506232" lon="8.023038">
        <ele>352.421923</ele>
        <time>2021-11-21T19:12:59.209Z</time>
      </trkpt>
      <trkpt lat="47.506258" lon="8.022985">
        <ele>352.437669</ele>
        <time>2021-11-21T19:12:59.807Z</time>
      </trkpt>
      <trkpt lat="47.506468" lon="8.022553">
        <ele>352.565611</ele>
        <time>2021-11-21T19:13:05.200Z</time>
      </trkpt>
      <trkpt lat="47.506535" lon="8.022414">
        <ele>352.606660</ele>
        <time>2021-11-21T19:13:06.702Z</time>
      </trkpt>
      <trkpt lat="47.506503" lon="8.022393">
        <ele>352.619116</ele>
        <time>2021-11-21T19:13:07.945Z</time>
      </trkpt>
      <trkpt lat="47.506220" lon="8.022129">
        <ele>352.738154</ele>
        <time>2021-11-21T19:13:12.859Z</time>
      </trkpt>
      <trkpt lat="47.505653" lon="8.021731">
        <ele>352.961463</ele>
        <time>2021-11-21T19:13:24.027Z</time>
      </trkpt>
      <trkpt lat="47.505600" lon="8.021664">
        <ele>352.986265</ele>
        <time>2021-11-21T19:13:25.108Z</time>
      </trkpt>
      <trkpt lat="47.505529" lon="8.021539">
        <ele>353.028526</ele>
        <time>2021-11-21T19:13:27.742Z</time>
      </trkpt>
      <trkpt lat="47.505291" lon="8.020961">
        <ele>353.256910</ele>
        <time>2021-11-21T19:13:36.532Z</time>
      </trkpt>
      <trkpt lat="47.505207" lon="8.020615">
        <ele>353.380956</ele>
        <time>2021-11-21T19:13:41.119Z</time>
      </trkpt>
      <trkpt lat="47.504998" lon="8.019743">
        <ele>353.693130</ele>
        <time>2021-11-21T19:13:51.451Z</time>
      </trkpt>
      <trkpt lat="47.504877" lon="8.019222">
        <ele>353.879009</ele>
        <time>2021-11-21T19:13:56.586Z</time>
      </trkpt>
      <trkpt lat="47.504819" lon="8.018974">
        <ele>353.909808</ele>
        <time>2021-11-21T19:13:59.014Z</time>
      </trkpt>
      <trkpt lat="47.504626" lon="8.018141">
        <ele>353.871401</ele>
        <time>2021-11-21T19:14:07.842Z</time>
      </trkpt>
      <trkpt lat="47.504588" lon="8.017986">
        <ele>353.864210</ele>
        <time>2021-11-21T19:14:09.473Z</time>
      </trkpt>
      <trkpt lat="47.504413" lon="8.017267">
        <ele>353.830880</ele>
        <time>2021-11-21T19:14:16.442Z</time>
      </trkpt>
      <trkpt lat="47.504393" lon="8.017182">
        <ele>353.826954</ele>
        <time>2021-11-21T19:14:17.246Z</time>
      </trkpt>
      <trkpt lat="47.504281" lon="8.016674">
        <ele>353.803649</ele>
        <time>2021-11-21T19:14:22.622Z</time>
      </trkpt>
      <trkpt lat="47.504246" lon="8.016448">
        <ele>353.872470</ele>
        <time>2021-11-21T19:14:25.306Z</time>
      </trkpt>
      <trkpt lat="47.504106" lon="8.015484">
        <ele>354.331541</ele>
        <time>2021-11-21T19:14:36.873Z</time>
      </trkpt>
      <trkpt lat="47.503922" lon="8.014235">
        <ele>354.926716</ele>
        <time>2021-11-21T19:14:52.883Z</time>
      </trkpt>
      <trkpt lat="47.503854" lon="8.013721">
        <ele>355.345846</ele>
        <time>2021-11-21T19:14:58.899Z</time>
      </trkpt>
      <trkpt lat="47.503818" lon="8.013443">
        <ele>355.654431</ele>
        <time>2021-11-21T19:15:02.466Z</time>
      </trkpt>
      <trkpt lat="47.503759" lon="8.013139">
        <ele>355.999249</ele>
        <time>2021-11-21T19:15:06.585Z</time>
      </trkpt>
      <trkpt lat="47.503675" lon="8.012805">
        <ele>356.387782</ele>
        <time>2021-11-21T19:15:11.815Z</time>
      </trkpt>
      <trkpt lat="47.503561" lon="8.012433">
        <ele>356.833104</ele>
        <time>2021-11-21T19:15:18.303Z</time>
      </trkpt>
      <trkpt lat="47.503325" lon="8.011662">
        <ele>357.755891</ele>
        <time>2021-11-21T19:15:31.303Z</time>
      </trkpt>
      <trkpt lat="47.503268" lon="8.011479">
        <ele>357.982155</ele>
        <time>2021-11-21T19:15:34.527Z</time>
      </trkpt>
      <trkpt lat="47.503207" lon="8.011279">
        <ele>358.268972</ele>
        <time>2021-11-21T19:15:37.652Z</time>
      </trkpt>
      <trkpt lat="47.502959" lon="8.010415">
        <ele>359.495975</ele>
        <time>2021-11-21T19:15:52.379Z</time>
      </trkpt>
      <trkpt lat="47.502773" lon="8.009928">
        <ele>360.227198</ele>
        <time>2021-11-21T19:16:01.010Z</time>
      </trkpt>
      <trkpt lat="47.502267" lon="8.008979">
        <ele>361.611288</ele>
        <time>2021-11-21T19:16:19.616Z</time>
      </trkpt>
      <trkpt lat="47.502158" lon="8.008808">
        <ele>361.762001</ele>
        <time>2021-11-21T19:16:22.951Z</time>
      </trkpt>
      <trkpt lat="47.502062" lon="8.008650">
        <ele>361.898225</ele>
        <time>2021-11-21T19:16:25.748Z</time>
      </trkpt>
      <trkpt lat="47.501943" lon="8.008353">
        <ele>362.119585</ele>
        <time>2021-11-21T19:16:29.973Z</time>
      </trkpt>
      <trkpt lat="47.501537" lon="8.007308">
        <ele>362.892366</ele>
        <time>2021-11-21T19:16:44.210Z</time>
      </trkpt>
      <trkpt lat="47.501496" lon="8.007247">
        <ele>362.947527</ele>
        <time>2021-11-21T19:16:45.241Z</time>
      </trkpt>
      <trkpt lat="47.501293" lon="8.006936">
        <ele>363.192730</ele>
        <time>2021-11-21T19:16:50.037Z</time>
      </trkpt>
      <trkpt lat="47.501276" lon="8.006911">
        <ele>363.207842</ele>
        <time>2021-11-21T19:16:50.413Z</time>
      </trkpt>
      <trkpt lat="47.500997" lon="8.006551">
        <ele>363.441257</ele>
        <time>2021-11-21T19:16:56.157Z</time>
      </trkpt>
      <trkpt lat="47.500764" lon="8.006290">
        <ele>363.625530</ele>
        <time>2021-11-21T19:17:00.640Z</time>
      </trkpt>
      <trkpt lat="47.500647" lon="8.006180">
        <ele>363.712941</ele>
        <time>2021-11-21T19:17:03.798Z</time>
      </trkpt>
      <trkpt lat="47.500540" lon="8.006079">
        <ele>363.792973</ele>
        <time>2021-11-21T19:17:05.466Z</time>
      </trkpt>
      <trkpt lat="47.500310" lon="8.005852">
        <ele>363.967308</ele>
        <time>2021-11-21T19:17:10.461Z</time>
      </trkpt>
      <trkpt lat="47.500252" lon="8.005784">
        <ele>364.013969</ele>
        <time>2021-11-21T19:17:11.626Z</time>
      </trkpt>
      <trkpt lat="47.500207" lon="8.005727">
        <ele>364.051320</ele>
        <time>2021-11-21T19:17:12.516Z</time>
      </trkpt>
      <trkpt lat="47.500009" lon="8.005488">
        <ele>364.212443</ele>
        <time>2021-11-21T19:17:17.452Z</time>
      </trkpt>
      <trkpt lat="47.499991" lon="8.005468">
        <ele>364.226637</ele>
        <time>2021-11-21T19:17:17.811Z</time>
      </trkpt>
      <trkpt lat="47.499880" lon="8.005358">
        <ele>364.365937</ele>
        <time>2021-11-21T19:17:20.199Z</time>
      </trkpt>
      <trkpt lat="47.499856" lon="8.005338">
        <ele>364.403524</ele>
        <time>2021-11-21T19:17:20.687Z</time>
      </trkpt>
      <trkpt lat="47.499770" lon="8.005268">
        <ele>364.537466</ele>
        <time>2021-11-21T19:17:23.440Z</time>
      </trkpt>
      <trkpt lat="47.499523" lon="8.005078">
        <ele>364.917355</ele>
        <time>2021-11-21T19:17:28.170Z</time>
      </trkpt>
      <trkpt lat="47.499496" lon="8.005059">
        <ele>364.958155</ele>
        <time>2021-11-21T19:17:29.517Z</time>
      </trkpt>
      <trkpt lat="47.499409" lon="8.005000">
        <ele>365.088755</ele>
        <time>2021-11-21T19:17:30.975Z</time>
      </trkpt>
      <trkpt lat="47.499183" lon="8.004875">
        <ele>365.418013</ele>
        <time>2021-11-21T19:17:35.539Z</time>
      </trkpt>
      <trkpt lat="47.499012" lon="8.004762">
        <ele>365.673582</ele>
        <time>2021-11-21T19:17:39.209Z</time>
      </trkpt>
      <trkpt lat="47.498965" lon="8.004710">
        <ele>365.753663</ele>
        <time>2021-11-21T19:17:40.371Z</time>
      </trkpt>
      <trkpt lat="47.498898" lon="8.004636">
        <ele>365.867750</ele>
        <time>2021-11-21T19:17:42.032Z</time>
      </trkpt>
      <trkpt lat="47.498753" lon="8.004410">
        <ele>366.155115</ele>
        <time>2021-11-21T19:17:46.519Z</time>
      </trkpt>
      <trkpt lat="47.498698" lon="8.004313">
        <ele>366.271875</ele>
        <time>2021-11-21T19:17:48.414Z</time>
      </trkpt>
      <trkpt lat="47.498450" lon="8.003874">
        <ele>366.828783</ele>
        <time>2021-11-21T19:17:57.208Z</time>
      </trkpt>
      <trkpt lat="47.498213" lon="8.003454">
        <ele>367.515167</ele>
        <time>2021-11-21T19:18:05.402Z</time>
      </trkpt>
      <trkpt lat="47.498166" lon="8.003383">
        <ele>367.639845</ele>
        <time>2021-11-21T19:18:06.830Z</time>
      </trkpt>
      <trkpt lat="47.498072" lon="8.003250">
        <ele>367.881268</ele>
        <time>2021-11-21T19:18:09.578Z</time>
      </trkpt>
      <trkpt lat="47.497951" lon="8.003094">
        <ele>368.179179</ele>
        <time>2021-11-21T19:18:13.413Z</time>
      </trkpt>
      <trkpt lat="47.497607" lon="8.002710">
        <ele>368.979094</ele>
        <time>2021-11-21T19:18:22.813Z</time>
      </trkpt>
      <trkpt lat="47.497540" lon="8.002634">
        <ele>369.135809</ele>
        <time>2021-11-21T19:18:24.672Z</time>
      </trkpt>
      <trkpt lat="47.497390" lon="8.002409">
        <ele>369.532294</ele>
        <time>2021-11-21T19:18:29.407Z</time>
      </trkpt>
      <trkpt lat="47.497307" lon="8.002279">
        <ele>369.756646</ele>
        <time>2021-11-21T19:18:31.989Z</time>
      </trkpt>
      <trkpt lat="47.497264" lon="8.002219">
        <ele>369.866359</ele>
        <time>2021-11-21T19:18:33.531Z</time>
      </trkpt>
      <trkpt lat="47.497207" lon="8.002132">
        <ele>370.018369</ele>
        <time>2021-11-21T19:18:35.159Z</time>
      </trkpt>
      <trkpt lat="47.496932" lon="8.001715">
        <ele>370.575848</ele>
        <time>2021-11-21T19:18:44.275Z</time>
      </trkpt>
      <trkpt lat="47.496908" lon="8.001680">
        <ele>370.622717</ele>
        <time>2021-11-21T19:18:45.020Z</time>
      </trkpt>
      <trkpt lat="47.496861" lon="8.001608">
        <ele>370.716812</ele>
        <time>2021-11-21T19:18:46.531Z</time>
      </trkpt>
      <trkpt lat="47.496820" lon="8.001547">
        <ele>370.797682</ele>
        <time>2021-11-21T19:18:47.846Z</time>
      </trkpt>
      <trkpt lat="47.496585" lon="8.001187">
        <ele>371.268159</ele>
        <time>2021-11-21T19:18:54.946Z</time>
      </trkpt>
      <trkpt lat="47.496535" lon="8.001108">
        <ele>371.369898</ele>
        <time>2021-11-21T19:18:56.505Z</time>
      </trkpt>
      <trkpt lat="47.496533" lon="8.001104">
        <ele>371.374575</ele>
        <time>2021-11-21T19:18:56.578Z</time>
      </trkpt>
      <trkpt lat="47.496517" lon="8.001077">
        <ele>371.408329</ele>
        <time>2021-11-21T19:18:57.378Z</time>
      </trkpt>
      <trkpt lat="47.496429" lon="8.000925">
        <ele>371.596464</ele>
        <time>2021-11-21T19:18:59.708Z</time>
      </trkpt>
      <trkpt lat="47.496280" lon="8.000664">
        <ele>371.917613</ele>
        <time>2021-11-21T19:19:04.570Z</time>
      </trkpt>
      <trkpt lat="47.496272" lon="8.000651">
        <ele>371.934140</ele>
        <time>2021-11-21T19:19:04.781Z</time>
      </trkpt>
      <trkpt lat="47.496234" lon="8.000584">
        <ele>372.016358</ele>
        <time>2021-11-21T19:19:05.671Z</time>
      </trkpt>
      <trkpt lat="47.496011" lon="8.000286">
        <ele>372.434303</ele>
        <time>2021-11-21T19:19:11.365Z</time>
      </trkpt>
      <trkpt lat="47.495718" lon="8.000005">
        <ele>372.635902</ele>
        <time>2021-11-21T19:19:17.521Z</time>
      </trkpt>
      <trkpt lat="47.495430" lon="7.999752">
        <ele>372.734591</ele>
        <time>2021-11-21T19:19:23.045Z</time>
      </trkpt>
      <trkpt lat="47.495197" lon="7.999589">
        <ele>372.810533</ele>
        <time>2021-11-21T19:19:27.234Z</time>
      </trkpt>
      <trkpt lat="47.494812" lon="7.999457">
        <ele>372.926987</ele>
        <time>2021-11-21T19:19:33.362Z</time>
      </trkpt>
      <trkpt lat="47.494643" lon="7.999430">
        <ele>372.977076</ele>
        <time>2021-11-21T19:19:35.818Z</time>
      </trkpt>
      <trkpt lat="47.494489" lon="7.999417">
        <ele>373.022529</ele>
        <time>2021-11-21T19:19:37.912Z</time>
      </trkpt>
      <trkpt lat="47.494272" lon="7.999381">
        <ele>373.086874</ele>
        <time>2021-11-21T19:19:40.917Z</time>
      </trkpt>
      <trkpt lat="47.493961" lon="7.999292">
        <ele>373.348301</ele>
        <time>2021-11-21T19:19:45.576Z</time>
      </trkpt>
      <trkpt lat="47.493937" lon="7.999285">
        <ele>373.368875</ele>
        <time>2021-11-21T19:19:46.062Z</time>
      </trkpt>
      <trkpt lat="47.493742" lon="7.999216">
        <ele>373.537507</ele>
        <time>2021-11-21T19:19:49.238Z</time>
      </trkpt>
      <trkpt lat="47.493603" lon="7.999152">
        <ele>373.659943</ele>
        <time>2021-11-21T19:19:51.820Z</time>
      </trkpt>
      <trkpt lat="47.493614" lon="7.999095">
        <ele>373.693631</ele>
        <time>2021-11-21T19:19:52.492Z</time>
      </trkpt>
      <trkpt lat="47.493634" lon="7.998744">
        <ele>373.893809</ele>
        <time>2021-11-21T19:19:56.423Z</time>
      </trkpt>
      <trkpt lat="47.493506" lon="7.998323">
        <ele>374.156166</ele>
        <time>2021-11-21T19:20:02.323Z</time>
      </trkpt>
      <trkpt lat="47.493473" lon="7.998227">
        <ele>374.217376</ele>
        <time>2021-11-21T19:20:03.747Z</time>
      </trkpt>
      <trkpt lat="47.493432" lon="7.998154">
        <ele>374.271322</ele>
        <time>2021-11-21T19:20:05.230Z</time>
      </trkpt>
      <trkpt lat="47.493360" lon="7.998025">
        <ele>374.366409</ele>
        <time>2021-11-21T19:20:07.672Z</time>
      </trkpt>
      <trkpt lat="47.493355" lon="7.998005">
        <ele>374.378528</ele>
        <time>2021-11-21T19:20:08.001Z</time>
      </trkpt>
      <trkpt lat="47.493293" lon="7.997765">
        <ele>374.524547</ele>
        <time>2021-11-21T19:20:11.337Z</time>
      </trkpt>
      <trkpt lat="47.493293" lon="7.997679">
        <ele>374.573420</ele>
        <time>2021-11-21T19:20:12.692Z</time>
      </trkpt>
      <trkpt lat="47.493330" lon="7.997491">
        <ele>374.846245</ele>
        <time>2021-11-21T19:20:15.886Z</time>
      </trkpt>
      <trkpt lat="47.493376" lon="7.997354">
        <ele>375.103750</ele>
        <time>2021-11-21T19:20:18.246Z</time>
      </trkpt>
      <trkpt lat="47.493439" lon="7.997189">
        <ele>375.422757</ele>
        <time>2021-11-21T19:20:21.026Z</time>
      </trkpt>
      <trkpt lat="47.493629" lon="7.996681">
        <ele>376.400092</ele>
        <time>2021-11-21T19:20:30.567Z</time>
      </trkpt>
      <trkpt lat="47.493684" lon="7.996562">
        <ele>376.642772</ele>
        <time>2021-11-21T19:20:33.307Z</time>
      </trkpt>
      <trkpt lat="47.493757" lon="7.996428">
        <ele>376.932504</ele>
        <time>2021-11-21T19:20:36.105Z</time>
      </trkpt>
      <trkpt lat="47.493868" lon="7.996295">
        <ele>377.288283</ele>
        <time>2021-11-21T19:20:39.681Z</time>
      </trkpt>
      <trkpt lat="47.493967" lon="7.996177">
        <ele>377.604943</ele>
        <time>2021-11-21T19:20:43.261Z</time>
      </trkpt>
      <trkpt lat="47.494203" lon="7.996025">
        <ele>378.246115</ele>
        <time>2021-11-21T19:20:49.593Z</time>
      </trkpt>
      <trkpt lat="47.494293" lon="7.995952">
        <ele>378.501782</ele>
        <time>2021-11-21T19:20:52.592Z</time>
      </trkpt>
      <trkpt lat="47.494368" lon="7.995845">
        <ele>378.761290</ele>
        <time>2021-11-21T19:20:55.180Z</time>
      </trkpt>
      <trkpt lat="47.494627" lon="7.995447">
        <ele>379.861219</ele>
        <time>2021-11-21T19:21:04.993Z</time>
      </trkpt>
      <trkpt lat="47.494655" lon="7.995343">
        <ele>380.102265</ele>
        <time>2021-11-21T19:21:07.035Z</time>
      </trkpt>
      <trkpt lat="47.494663" lon="7.995312">
        <ele>380.173715</ele>
        <time>2021-11-21T19:21:07.538Z</time>
      </trkpt>
      <trkpt lat="47.494770" lon="7.995288">
        <ele>380.518583</ele>
        <time>2021-11-21T19:21:11.253Z</time>
      </trkpt>
      <trkpt lat="47.495297" lon="7.995227">
        <ele>382.203093</ele>
        <time>2021-11-21T19:21:28.547Z</time>
      </trkpt>
      <trkpt lat="47.495891" lon="7.995038">
        <ele>384.139229</ele>
        <time>2021-11-21T19:21:48.105Z</time>
      </trkpt>
      <trkpt lat="47.497169" lon="7.994210">
        <ele>390.289298</ele>
        <time>2021-11-21T19:22:37.840Z</time>
      </trkpt>
      <trkpt lat="47.498171" lon="7.993563">
        <ele>396.823055</ele>
        <time>2021-11-21T19:23:27.067Z</time>
      </trkpt>
      <trkpt lat="47.498444" lon="7.993225">
        <ele>399.569223</ele>
        <time>2021-11-21T19:23:44.470Z</time>
      </trkpt>
      <trkpt lat="47.501201" lon="7.989503">
        <ele>429.169765</ele>
        <time>2021-11-21T19:27:00.721Z</time>
      </trkpt>
      <trkpt lat="47.502461" lon="7.987886">
        <ele>444.256896</ele>
        <time>2021-11-21T19:28:35.065Z</time>
      </trkpt>
      <trkpt lat="47.502975" lon="7.987226">
        <ele>450.747563</ele>
        <time>2021-11-21T19:29:15.556Z</time>
      </trkpt>
      <trkpt lat="47.503784" lon="7.986110">
        <ele>462.194322</ele>
        <time>2021-11-21T19:30:23.013Z</time>
      </trkpt>
      <trkpt lat="47.504408" lon="7.985264">
        <ele>471.187895</ele>
        <time>2021-11-21T19:31:17.397Z</time>
      </trkpt>
      <trkpt lat="47.504558" lon="7.985032">
        <ele>473.512081</ele>
        <time>2021-11-21T19:31:31.928Z</time>
      </trkpt>
      <trkpt lat="47.505014" lon="7.983996">
        <ele>482.563474</ele>
        <time>2021-11-21T19:32:25.325Z</time>
      </trkpt>
      <trkpt lat="47.505169" lon="7.983598">
        <ele>485.926342</ele>
        <time>2021-11-21T19:32:45.687Z</time>
      </trkpt>
      <trkpt lat="47.505235" lon="7.983158">
        <ele>489.225614</ele>
        <time>2021-11-21T19:33:05.791Z</time>
      </trkpt>
      <trkpt lat="47.505153" lon="7.982527">
        <ele>493.579469</ele>
        <time>2021-11-21T19:33:32.235Z</time>
      </trkpt>
      <trkpt lat="47.505164" lon="7.982187">
        <ele>495.609805</ele>
        <time>2021-11-21T19:33:45.498Z</time>
      </trkpt>
      <trkpt lat="47.505275" lon="7.981948">
        <ele>497.339793</ele>
        <time>2021-11-21T19:33:56.540Z</time>
      </trkpt>
      <trkpt lat="47.505399" lon="7.981833">
        <ele>498.631812</ele>
        <time>2021-11-21T19:34:04.412Z</time>
      </trkpt>
      <trkpt lat="47.505601" lon="7.981812">
        <ele>500.419823</ele>
        <time>2021-11-21T19:34:15.045Z</time>
      </trkpt>
      <trkpt lat="47.506233" lon="7.982148">
        <ele>506.349217</ele>
        <time>2021-11-21T19:34:51.085Z</time>
      </trkpt>
      <trkpt lat="47.506692" lon="7.982561">
        <ele>511.143968</ele>
        <time>2021-11-21T19:35:19.320Z</time>
      </trkpt>
      <trkpt lat="47.506875" lon="7.982899">
        <ele>513.769978</ele>
        <time>2021-11-21T19:35:35.175Z</time>
      </trkpt>
      <trkpt lat="47.507011" lon="7.982902">
        <ele>514.990649</ele>
        <time>2021-11-21T19:35:42.107Z</time>
      </trkpt>
      <trkpt lat="47.507055" lon="7.982858">
        <ele>515.467178</ele>
        <time>2021-11-21T19:35:45.789Z</time>
      </trkpt>
      <trkpt lat="47.507123" lon="7.982752">
        <ele>516.353386</ele>
        <time>2021-11-21T19:35:50.941Z</time>
      </trkpt>
      <trkpt lat="47.508160" lon="7.980614">
        <ele>531.843320</ele>
        <time>2021-11-21T19:37:35.368Z</time>
      </trkpt>
      <trkpt lat="47.508298" lon="7.980362">
        <ele>533.698736</ele>
        <time>2021-11-21T19:37:47.923Z</time>
      </trkpt>
      <trkpt lat="47.508546" lon="7.979750">
        <ele>537.780516</ele>
        <time>2021-11-21T19:38:11.709Z</time>
      </trkpt>
      <trkpt lat="47.508750" lon="7.979260">
        <ele>540.105777</ele>
        <time>2021-11-21T19:38:29.755Z</time>
      </trkpt>
      <trkpt lat="47.508881" lon="7.978903">
        <ele>541.167154</ele>
        <time>2021-11-21T19:38:42.042Z</time>
      </trkpt>
      <trkpt lat="47.508948" lon="7.978799">
        <ele>541.542607</ele>
        <time>2021-11-21T19:38:45.771Z</time>
      </trkpt>
      <trkpt lat="47.509027" lon="7.978788">
        <ele>541.849493</ele>
        <time>2021-11-21T19:38:49.263Z</time>
      </trkpt>
      <trkpt lat="47.510337" lon="7.979978">
        <ele>546.369327</ele>
        <time>2021-11-21T19:39:35.542Z</time>
      </trkpt>
      <trkpt lat="47.510389" lon="7.979980">
        <ele>546.384969</ele>
        <time>2021-11-21T19:39:37.771Z</time>
      </trkpt>
      <trkpt lat="47.510411" lon="7.979962">
        <ele>546.392527</ele>
        <time>2021-11-21T19:39:38.346Z</time>
      </trkpt>
      <trkpt lat="47.510427" lon="7.979928">
        <ele>546.400944</ele>
        <time>2021-11-21T19:39:38.973Z</time>
      </trkpt>
      <trkpt lat="47.510553" lon="7.979575">
        <ele>546.482038</ele>
        <time>2021-11-21T19:39:44.498Z</time>
      </trkpt>
      <trkpt lat="47.510628" lon="7.979350">
        <ele>546.533000</ele>
        <time>2021-11-21T19:39:48.573Z</time>
      </trkpt>
      <trkpt lat="47.510721" lon="7.979135">
        <ele>546.584856</ele>
        <time>2021-11-21T19:39:51.725Z</time>
      </trkpt>
      <trkpt lat="47.510754" lon="7.979067">
        <ele>546.601863</ele>
        <time>2021-11-21T19:39:53.892Z</time>
      </trkpt>
      <trkpt lat="47.511058" lon="7.978612">
        <ele>546.731852</ele>
        <time>2021-11-21T19:40:02.352Z</time>
      </trkpt>
      <trkpt lat="47.511094" lon="7.978570">
        <ele>546.745634</ele>
        <time>2021-11-21T19:40:03.104Z</time>
      </trkpt>
      <trkpt lat="47.511169" lon="7.978482">
        <ele>546.774411</ele>
        <time>2021-11-21T19:40:04.482Z</time>
      </trkpt>
      <trkpt lat="47.511857" lon="7.977310">
        <ele>541.877055</ele>
        <time>2021-11-21T19:40:19.472Z</time>
      </trkpt>
      <trkpt lat="47.512118" lon="7.977012">
        <ele>540.252249</ele>
        <time>2021-11-21T19:40:23.780Z</time>
      </trkpt>
      <trkpt lat="47.512200" lon="7.976779">
        <ele>539.377443</ele>
        <time>2021-11-21T19:40:26.060Z</time>
      </trkpt>
      <trkpt lat="47.512412" lon="7.976165">
        <ele>536.023045</ele>
        <time>2021-11-21T19:40:31.971Z</time>
      </trkpt>
      <trkpt lat="47.512616" lon="7.975859">
        <ele>532.792016</ele>
        <time>2021-11-21T19:40:35.572Z</time>
      </trkpt>
      <trkpt lat="47.512725" lon="7.975715">
        <ele>531.166665</ele>
        <time>2021-11-21T19:40:37.348Z</time>
      </trkpt>
      <trkpt lat="47.513109" lon="7.975074">
        <ele>524.727959</ele>
        <time>2021-11-21T19:40:44.376Z</time>
      </trkpt>
      <trkpt lat="47.513724" lon="7.972836">
        <ele>503.092205</ele>
        <time>2021-11-21T19:41:03.495Z</time>
      </trkpt>
      <trkpt lat="47.513785" lon="7.972598">
        <ele>500.592396</ele>
        <time>2021-11-21T19:41:05.491Z</time>
      </trkpt>
      <trkpt lat="47.513818" lon="7.972354">
        <ele>498.148724</ele>
        <time>2021-11-21T19:41:07.462Z</time>
      </trkpt>
      <trkpt lat="47.513840" lon="7.971891">
        <ele>493.590779</ele>
        <time>2021-11-21T19:41:11.130Z</time>
      </trkpt>
      <trkpt lat="47.513879" lon="7.971681">
        <ele>491.504171</ele>
        <time>2021-11-21T19:41:12.851Z</time>
      </trkpt>
      <trkpt lat="47.513918" lon="7.971521">
        <ele>490.116299</ele>
        <time>2021-11-21T19:41:14.207Z</time>
      </trkpt>
      <trkpt lat="47.514065" lon="7.971024">
        <ele>485.689438</ele>
        <time>2021-11-21T19:41:18.509Z</time>
      </trkpt>
      <trkpt lat="47.514085" lon="7.970901">
        <ele>484.657197</ele>
        <time>2021-11-21T19:41:19.515Z</time>
      </trkpt>
      <trkpt lat="47.514096" lon="7.970598">
        <ele>482.181422</ele>
        <time>2021-11-21T19:41:21.929Z</time>
      </trkpt>
      <trkpt lat="47.514100" lon="7.970085">
        <ele>477.995529</ele>
        <time>2021-11-21T19:41:26.039Z</time>
      </trkpt>
      <trkpt lat="47.514175" lon="7.969716">
        <ele>474.851455</ele>
        <time>2021-11-21T19:41:29.176Z</time>
      </trkpt>
      <trkpt lat="47.514251" lon="7.969369">
        <ele>471.875117</ele>
        <time>2021-11-21T19:41:32.197Z</time>
      </trkpt>
      <trkpt lat="47.514252" lon="7.969247">
        <ele>470.879637</ele>
        <time>2021-11-21T19:41:33.189Z</time>
      </trkpt>
      <trkpt lat="47.514192" lon="7.968881">
        <ele>468.836385</ele>
        <time>2021-11-21T19:41:36.467Z</time>
      </trkpt>
      <trkpt lat="47.514063" lon="7.968503">
        <ele>466.979578</ele>
        <time>2021-11-21T19:41:40.071Z</time>
      </trkpt>
      <trkpt lat="47.513956" lon="7.968306">
        <ele>465.871235</ele>
        <time>2021-11-21T19:41:42.239Z</time>
      </trkpt>
      <trkpt lat="47.513954" lon="7.968241">
        <ele>465.585960</ele>
        <time>2021-11-21T19:41:42.767Z</time>
      </trkpt>
      <trkpt lat="47.514050" lon="7.967928">
        <ele>464.078805</ele>
        <time>2021-11-21T19:41:45.901Z</time>
      </trkpt>
      <trkpt lat="47.514175" lon="7.967704">
        <ele>462.804881</ele>
        <time>2021-11-21T19:41:48.410Z</time>
      </trkpt>
      <trkpt lat="47.514265" lon="7.967596">
        <ele>462.052872</ele>
        <time>2021-11-21T19:41:49.950Z</time>
      </trkpt>
      <trkpt lat="47.514175" lon="7.967361">
        <ele>460.868453</ele>
        <time>2021-11-21T19:41:51.572Z</time>
      </trkpt>
      <trkpt lat="47.513963" lon="7.966968">
        <ele>458.663310</ele>
        <time>2021-11-21T19:41:54.853Z</time>
      </trkpt>
      <trkpt lat="47.513719" lon="7.966609">
        <ele>458.126812</ele>
        <time>2021-11-21T19:41:58.249Z</time>
      </trkpt>
      <trkpt lat="47.513677" lon="7.966493">
        <ele>458.057938</ele>
        <time>2021-11-21T19:41:59.100Z</time>
      </trkpt>
      <trkpt lat="47.513607" lon="7.966067">
        <ele>457.828514</ele>
        <time>2021-11-21T19:42:02.442Z</time>
      </trkpt>
      <trkpt lat="47.513574" lon="7.965795">
        <ele>457.683900</ele>
        <time>2021-11-21T19:42:04.429Z</time>
      </trkpt>
      <trkpt lat="47.513552" lon="7.965694">
        <ele>457.628367</ele>
        <time>2021-11-21T19:42:05.535Z</time>
      </trkpt>
      <trkpt lat="47.513496" lon="7.965435">
        <ele>457.486059</ele>
        <time>2021-11-21T19:42:07.817Z</time>
      </trkpt>
      <trkpt lat="47.513439" lon="7.965284">
        <ele>457.395538</ele>
        <time>2021-11-21T19:42:09.531Z</time>
      </trkpt>
      <trkpt lat="47.513387" lon="7.965176">
        <ele>457.326133</ele>
        <time>2021-11-21T19:42:11.600Z</time>
      </trkpt>
      <trkpt lat="47.513069" lon="7.964710">
        <ele>456.979481</ele>
        <time>2021-11-21T19:42:21.550Z</time>
      </trkpt>
      <trkpt lat="47.512806" lon="7.964495">
        <ele>458.425874</ele>
        <time>2021-11-21T19:42:30.319Z</time>
      </trkpt>
      <trkpt lat="47.512076" lon="7.964120">
        <ele>462.470811</ele>
        <time>2021-11-21T19:42:56.459Z</time>
      </trkpt>
      <trkpt lat="47.511885" lon="7.963977">
        <ele>463.591244</ele>
        <time>2021-11-21T19:43:05.515Z</time>
      </trkpt>
      <trkpt lat="47.511807" lon="7.963896">
        <ele>464.089992</ele>
        <time>2021-11-21T19:43:08.822Z</time>
      </trkpt>
      <trkpt lat="47.511697" lon="7.963783">
        <ele>464.790866</ele>
        <time>2021-11-21T19:43:14.652Z</time>
      </trkpt>
      <trkpt lat="47.510909" lon="7.962826">
        <ele>472.342768</ele>
        <time>2021-11-21T19:44:00.526Z</time>
      </trkpt>
      <trkpt lat="47.510706" lon="7.962606">
        <ele>474.438692</ele>
        <time>2021-11-21T19:44:13.970Z</time>
      </trkpt>
      <trkpt lat="47.510679" lon="7.962576">
        <ele>474.719936</ele>
        <time>2021-11-21T19:44:15.517Z</time>
      </trkpt>
      <trkpt lat="47.510552" lon="7.962453">
        <ele>475.984281</ele>
        <time>2021-11-21T19:44:24.192Z</time>
      </trkpt>
      <trkpt lat="47.510406" lon="7.962296">
        <ele>477.487630</ele>
        <time>2021-11-21T19:44:32.695Z</time>
      </trkpt>
      <trkpt lat="47.510301" lon="7.962209">
        <ele>478.490084</ele>
        <time>2021-11-21T19:44:38.134Z</time>
      </trkpt>
      <trkpt lat="47.510127" lon="7.962072">
        <ele>480.131961</ele>
        <time>2021-11-21T19:44:48.279Z</time>
      </trkpt>
      <trkpt lat="47.509788" lon="7.961854">
        <ele>483.070117</ele>
        <time>2021-11-21T19:45:06.395Z</time>
      </trkpt>
      <trkpt lat="47.509385" lon="7.961632">
        <ele>486.378999</ele>
        <time>2021-11-21T19:45:27.610Z</time>
      </trkpt>
      <trkpt lat="47.509248" lon="7.961556">
        <ele>487.504821</ele>
        <time>2021-11-21T19:45:34.936Z</time>
      </trkpt>
      <trkpt lat="47.507319" lon="7.960495">
        <ele>502.536649</ele>
        <time>2021-11-21T19:47:02.458Z</time>
      </trkpt>
      <trkpt lat="47.506874" lon="7.960127">
        <ele>506.071646</ele>
        <time>2021-11-21T19:47:23.125Z</time>
      </trkpt>
      <trkpt lat="47.506641" lon="7.959810">
        <ele>508.309616</ele>
        <time>2021-11-21T19:47:36.306Z</time>
      </trkpt>
      <trkpt lat="47.506363" lon="7.959196">
        <ele>512.027574</ele>
        <time>2021-11-21T19:48:00.493Z</time>
      </trkpt>
      <trkpt lat="47.506128" lon="7.958087">
        <ele>517.873834</ele>
        <time>2021-11-21T19:48:38.159Z</time>
      </trkpt>
      <trkpt lat="47.506050" lon="7.957397">
        <ele>521.169140</ele>
        <time>2021-11-21T19:48:57.833Z</time>
      </trkpt>
      <trkpt lat="47.506050" lon="7.957299">
        <ele>521.319122</ele>
        <time>2021-11-21T19:49:02.349Z</time>
      </trkpt>
      <trkpt lat="47.506053" lon="7.957072">
        <ele>521.666593</ele>
        <time>2021-11-21T19:49:07.733Z</time>
      </trkpt>
      <trkpt lat="47.506190" lon="7.956344">
        <ele>522.823163</ele>
        <time>2021-11-21T19:49:21.910Z</time>
      </trkpt>
      <trkpt lat="47.506484" lon="7.955438">
        <ele>524.361404</ele>
        <time>2021-11-21T19:49:36.443Z</time>
      </trkpt>
      <trkpt lat="47.506539" lon="7.955130">
        <ele>524.848961</ele>
        <time>2021-11-21T19:49:41.229Z</time>
      </trkpt>
      <trkpt lat="47.506560" lon="7.954845">
        <ele>524.867021</ele>
        <time>2021-11-21T19:49:43.137Z</time>
      </trkpt>
      <trkpt lat="47.506559" lon="7.954699">
        <ele>524.425797</ele>
        <time>2021-11-21T19:49:44.222Z</time>
      </trkpt>
      <trkpt lat="47.506555" lon="7.954505">
        <ele>523.839272</ele>
        <time>2021-11-21T19:49:45.522Z</time>
      </trkpt>
      <trkpt lat="47.506539" lon="7.954325">
        <ele>523.290636</ele>
        <time>2021-11-21T19:49:46.668Z</time>
      </trkpt>
      <trkpt lat="47.506403" lon="7.953752">
        <ele>521.455297</ele>
        <time>2021-11-21T19:49:50.573Z</time>
      </trkpt>
      <trkpt lat="47.506242" lon="7.953373">
        <ele>520.102338</ele>
        <time>2021-11-21T19:49:53.364Z</time>
      </trkpt>
      <trkpt lat="47.505724" lon="7.952248">
        <ele>515.753553</ele>
        <time>2021-11-21T19:50:01.875Z</time>
      </trkpt>
      <trkpt lat="47.505561" lon="7.951903">
        <ele>514.213033</ele>
        <time>2021-11-21T19:50:04.559Z</time>
      </trkpt>
      <trkpt lat="47.505298" lon="7.951312">
        <ele>511.623421</ele>
        <time>2021-11-21T19:50:09.086Z</time>
      </trkpt>
      <trkpt lat="47.505078" lon="7.950674">
        <ele>509.002323</ele>
        <time>2021-11-21T19:50:13.622Z</time>
      </trkpt>
      <trkpt lat="47.504833" lon="7.949650">
        <ele>504.687631</ele>
        <time>2021-11-21T19:50:20.309Z</time>
      </trkpt>
      <trkpt lat="47.504637" lon="7.948756">
        <ele>500.746995</ele>
        <time>2021-11-21T19:50:26.128Z</time>
      </trkpt>
      <trkpt lat="47.504564" lon="7.948438">
        <ele>499.338868</ele>
        <time>2021-11-21T19:50:28.221Z</time>
      </trkpt>
      <trkpt lat="47.504516" lon="7.948210">
        <ele>498.337608</ele>
        <time>2021-11-21T19:50:29.660Z</time>
      </trkpt>
      <trkpt lat="47.504360" lon="7.947339">
        <ele>494.476531</ele>
        <time>2021-11-21T19:50:35.206Z</time>
      </trkpt>
      <trkpt lat="47.504339" lon="7.946127">
        <ele>489.134834</ele>
        <time>2021-11-21T19:50:42.581Z</time>
      </trkpt>
      <trkpt lat="47.504206" lon="7.945339">
        <ele>485.556262</ele>
        <time>2021-11-21T19:50:47.603Z</time>
      </trkpt>
      <trkpt lat="47.503877" lon="7.944221">
        <ele>480.163191</ele>
        <time>2021-11-21T19:50:55.087Z</time>
      </trkpt>
      <trkpt lat="47.503757" lon="7.943678">
        <ele>477.634135</ele>
        <time>2021-11-21T19:50:58.579Z</time>
      </trkpt>
      <trkpt lat="47.503525" lon="7.942511">
        <ele>472.291622</ele>
        <time>2021-11-21T19:51:06.003Z</time>
      </trkpt>
      <trkpt lat="47.503196" lon="7.941586">
        <ele>468.123961</ele>
        <time>2021-11-21T19:51:12.410Z</time>
      </trkpt>
      <trkpt lat="47.501302" lon="7.938421">
        <ele>452.337347</ele>
        <time>2021-11-21T19:51:39.049Z</time>
      </trkpt>
      <trkpt lat="47.500922" lon="7.937675">
        <ele>449.548882</ele>
        <time>2021-11-21T19:51:45.004Z</time>
      </trkpt>
      <trkpt lat="47.500786" lon="7.937295">
        <ele>448.265422</ele>
        <time>2021-11-21T19:51:47.807Z</time>
      </trkpt>
      <trkpt lat="47.500700" lon="7.936982">
        <ele>447.256940</ele>
        <time>2021-11-21T19:51:50.029Z</time>
      </trkpt>
      <trkpt lat="47.500647" lon="7.936766">
        <ele>446.571063</ele>
        <time>2021-11-21T19:51:51.530Z</time>
      </trkpt>
      <trkpt lat="47.500121" lon="7.934400">
        <ele>440.820080</ele>
        <time>2021-11-21T19:52:08.191Z</time>
      </trkpt>
      <trkpt lat="47.500111" lon="7.934299">
        <ele>440.610560</ele>
        <time>2021-11-21T19:52:08.890Z</time>
      </trkpt>
      <trkpt lat="47.500150" lon="7.934279">
        <ele>440.485164</ele>
        <time>2021-11-21T19:52:09.310Z</time>
      </trkpt>
      <trkpt lat="47.500213" lon="7.934131">
        <ele>440.126119</ele>
        <time>2021-11-21T19:52:10.790Z</time>
      </trkpt>
      <trkpt lat="47.500208" lon="7.934071">
        <ele>440.002035</ele>
        <time>2021-11-21T19:52:11.241Z</time>
      </trkpt>
      <trkpt lat="47.500275" lon="7.934029">
        <ele>439.780978</ele>
        <time>2021-11-21T19:52:12.038Z</time>
      </trkpt>
      <trkpt lat="47.500352" lon="7.933976">
        <ele>439.522986</ele>
        <time>2021-11-21T19:52:12.932Z</time>
      </trkpt>
      <trkpt lat="47.500386" lon="7.933937">
        <ele>439.392304</ele>
        <time>2021-11-21T19:52:13.390Z</time>
      </trkpt>
      <trkpt lat="47.500435" lon="7.933872">
        <ele>439.192402</ele>
        <time>2021-11-21T19:52:14.213Z</time>
      </trkpt>
      <trkpt lat="47.500843" lon="7.933102">
        <ele>438.290959</ele>
        <time>2021-11-21T19:52:21.791Z</time>
      </trkpt>
      <trkpt lat="47.500990" lon="7.932950">
        <ele>438.067328</ele>
        <time>2021-11-21T19:52:24.159Z</time>
      </trkpt>
      <trkpt lat="47.501075" lon="7.932885">
        <ele>437.948010</ele>
        <time>2021-11-21T19:52:25.137Z</time>
      </trkpt>
      <trkpt lat="47.501463" lon="7.932668">
        <ele>437.430730</ele>
        <time>2021-11-21T19:52:30.131Z</time>
      </trkpt>
      <trkpt lat="47.501794" lon="7.932466">
        <ele>436.984218</ele>
        <time>2021-11-21T19:52:34.803Z</time>
      </trkpt>
      <trkpt lat="47.501901" lon="7.932351">
        <ele>436.819309</ele>
        <time>2021-11-21T19:52:36.947Z</time>
      </trkpt>
      <trkpt lat="47.502023" lon="7.932158">
        <ele>436.667337</ele>
        <time>2021-11-21T19:52:38.980Z</time>
      </trkpt>
      <trkpt lat="47.502400" lon="7.931256">
        <ele>436.058241</ele>
        <time>2021-11-21T19:52:47.951Z</time>
      </trkpt>
      <trkpt lat="47.502613" lon="7.930856">
        <ele>435.765762</ele>
        <time>2021-11-21T19:52:52.034Z</time>
      </trkpt>
      <trkpt lat="47.502761" lon="7.930610">
        <ele>435.576598</ele>
        <time>2021-11-21T19:52:54.917Z</time>
      </trkpt>
      <trkpt lat="47.502932" lon="7.930346">
        <ele>435.366571</ele>
        <time>2021-11-21T19:52:58.051Z</time>
      </trkpt>
      <trkpt lat="47.503014" lon="7.930220">
        <ele>435.252367</ele>
        <time>2021-11-21T19:52:59.612Z</time>
      </trkpt>
      <trkpt lat="47.503485" lon="7.929688">
        <ele>434.456868</ele>
        <time>2021-11-21T19:53:07.389Z</time>
      </trkpt>
      <trkpt lat="47.503528" lon="7.929650">
        <ele>434.389625</ele>
        <time>2021-11-21T19:53:07.869Z</time>
      </trkpt>
      <trkpt lat="47.503598" lon="7.929585">
        <ele>434.278673</ele>
        <time>2021-11-21T19:53:09.319Z</time>
      </trkpt>
      <trkpt lat="47.503815" lon="7.929426">
        <ele>433.953563</ele>
        <time>2021-11-21T19:53:12.017Z</time>
      </trkpt>
      <trkpt lat="47.504005" lon="7.929312">
        <ele>433.678287</ele>
        <time>2021-11-21T19:53:15.269Z</time>
      </trkpt>
      <trkpt lat="47.504533" lon="7.929008">
        <ele>432.917595</ele>
        <time>2021-11-21T19:53:21.348Z</time>
      </trkpt>
      <trkpt lat="47.504650" lon="7.928941">
        <ele>432.549977</ele>
        <time>2021-11-21T19:53:23.336Z</time>
      </trkpt>
      <trkpt lat="47.504724" lon="7.928871">
        <ele>432.245043</ele>
        <time>2021-11-21T19:53:24.294Z</time>
      </trkpt>
      <trkpt lat="47.504799" lon="7.928777">
        <ele>431.903813</ele>
        <time>2021-11-21T19:53:25.166Z</time>
      </trkpt>
      <trkpt lat="47.505253" lon="7.928170">
        <ele>429.779579</ele>
        <time>2021-11-21T19:53:31.523Z</time>
      </trkpt>
      <trkpt lat="47.505814" lon="7.927657">
        <ele>427.489919</ele>
        <time>2021-11-21T19:53:37.833Z</time>
      </trkpt>
      <trkpt lat="47.505868" lon="7.927611">
        <ele>427.273585</ele>
        <time>2021-11-21T19:53:38.452Z</time>
      </trkpt>
      <trkpt lat="47.505881" lon="7.927601">
        <ele>427.222714</ele>
        <time>2021-11-21T19:53:38.588Z</time>
      </trkpt>
      <trkpt lat="47.506112" lon="7.927414">
        <ele>426.354073</ele>
        <time>2021-11-21T19:53:41.048Z</time>
      </trkpt>
      <trkpt lat="47.507856" lon="7.925990">
        <ele>420.714467</ele>
        <time>2021-11-21T19:54:01.820Z</time>
      </trkpt>
      <trkpt lat="47.508002" lon="7.925879">
        <ele>420.394454</ele>
        <time>2021-11-21T19:54:03.627Z</time>
      </trkpt>
      <trkpt lat="47.508106" lon="7.925799">
        <ele>420.165937</ele>
        <time>2021-11-21T19:54:05.024Z</time>
      </trkpt>
      <trkpt lat="47.508355" lon="7.925609">
        <ele>419.619746</ele>
        <time>2021-11-21T19:54:08.187Z</time>
      </trkpt>
      <trkpt lat="47.508667" lon="7.925295">
        <ele>418.884159</ele>
        <time>2021-11-21T19:54:12.443Z</time>
      </trkpt>
      <trkpt lat="47.509016" lon="7.924882">
        <ele>418.013007</ele>
        <time>2021-11-21T19:54:17.416Z</time>
      </trkpt>
      <trkpt lat="47.509032" lon="7.924863">
        <ele>417.973014</ele>
        <time>2021-11-21T19:54:17.644Z</time>
      </trkpt>
      <trkpt lat="47.509223" lon="7.924628">
        <ele>417.540549</ele>
        <time>2021-11-21T19:54:20.407Z</time>
      </trkpt>
      <trkpt lat="47.509572" lon="7.924311">
        <ele>416.892361</ele>
        <time>2021-11-21T19:54:25.037Z</time>
      </trkpt>
      <trkpt lat="47.509605" lon="7.924290">
        <ele>416.835499</ele>
        <time>2021-11-21T19:54:25.401Z</time>
      </trkpt>
      <trkpt lat="47.509676" lon="7.924247">
        <ele>416.714060</ele>
        <time>2021-11-21T19:54:26.270Z</time>
      </trkpt>
      <trkpt lat="47.509806" lon="7.924174">
        <ele>416.493954</ele>
        <time>2021-11-21T19:54:27.874Z</time>
      </trkpt>
      <trkpt lat="47.509886" lon="7.924134">
        <ele>416.360281</ele>
        <time>2021-11-21T19:54:28.855Z</time>
      </trkpt>
      <trkpt lat="47.510052" lon="7.924017">
        <ele>416.069231</ele>
        <time>2021-11-21T19:54:30.882Z</time>
      </trkpt>
      <trkpt lat="47.511001" lon="7.923070">
        <ele>414.416444</ele>
        <time>2021-11-21T19:54:44.259Z</time>
      </trkpt>
      <trkpt lat="47.511097" lon="7.922940">
        <ele>414.260151</ele>
        <time>2021-11-21T19:54:45.846Z</time>
      </trkpt>
      <trkpt lat="47.511246" lon="7.922736">
        <ele>414.016347</ele>
        <time>2021-11-21T19:54:48.307Z</time>
      </trkpt>
      <trkpt lat="47.511415" lon="7.922417">
        <ele>413.687381</ele>
        <time>2021-11-21T19:54:51.729Z</time>
      </trkpt>
      <trkpt lat="47.511767" lon="7.921389">
        <ele>412.750879</ele>
        <time>2021-11-21T19:55:00.957Z</time>
      </trkpt>
      <trkpt lat="47.512197" lon="7.920511">
        <ele>411.562990</ele>
        <time>2021-11-21T19:55:09.514Z</time>
      </trkpt>
      <trkpt lat="47.512331" lon="7.920282">
        <ele>411.231126</ele>
        <time>2021-11-21T19:55:11.951Z</time>
      </trkpt>
      <trkpt lat="47.512269" lon="7.920234">
        <ele>411.117668</ele>
        <time>2021-11-21T19:55:13.021Z</time>
      </trkpt>
      <trkpt lat="47.512192" lon="7.920204">
        <ele>410.988550</ele>
        <time>2021-11-21T19:55:14.469Z</time>
      </trkpt>
      <trkpt lat="47.512022" lon="7.920171">
        <ele>410.710511</ele>
        <time>2021-11-21T19:55:17.257Z</time>
      </trkpt>
      <trkpt lat="47.511949" lon="7.920152">
        <ele>410.590316</ele>
        <time>2021-11-21T19:55:18.461Z</time>
      </trkpt>
      <trkpt lat="47.511883" lon="7.920133">
        <ele>410.481283</ele>
        <time>2021-11-21T19:55:19.515Z</time>
      </trkpt>
      <trkpt lat="47.511964" lon="7.919989">
        <ele>410.276024</ele>
        <time>2021-11-21T19:55:20.860Z</time>
      </trkpt>
      <trkpt lat="47.512085" lon="7.919732">
        <ele>409.932888</ele>
        <time>2021-11-21T19:55:23.174Z</time>
      </trkpt>
      <trkpt lat="47.512255" lon="7.919538">
        <ele>409.531200</ele>
        <time>2021-11-21T19:55:25.488Z</time>
      </trkpt>
      <trkpt lat="47.512664" lon="7.919306">
        <ele>408.671180</ele>
        <time>2021-11-21T19:55:30.286Z</time>
      </trkpt>
      <trkpt lat="47.512938" lon="7.919052">
        <ele>408.036407</ele>
        <time>2021-11-21T19:55:33.726Z</time>
      </trkpt>
      <trkpt lat="47.513058" lon="7.918896">
        <ele>407.722840</ele>
        <time>2021-11-21T19:55:35.632Z</time>
      </trkpt>
      <trkpt lat="47.513160" lon="7.918764">
        <ele>407.456833</ele>
        <time>2021-11-21T19:55:37.109Z</time>
      </trkpt>
      <trkpt lat="47.513378" lon="7.918393">
        <ele>406.804664</ele>
        <time>2021-11-21T19:55:40.772Z</time>
      </trkpt>
      <trkpt lat="47.514255" lon="7.917714">
        <ele>405.301303</ele>
        <time>2021-11-21T19:55:51.865Z</time>
      </trkpt>
      <trkpt lat="47.514561" lon="7.917409">
        <ele>404.797345</ele>
        <time>2021-11-21T19:55:56.208Z</time>
      </trkpt>
      <trkpt lat="47.514635" lon="7.917349">
        <ele>404.682080</ele>
        <time>2021-11-21T19:55:57.157Z</time>
      </trkpt>
      <trkpt lat="47.515014" lon="7.917030">
        <ele>404.086476</ele>
        <time>2021-11-21T19:56:02.595Z</time>
      </trkpt>
      <trkpt lat="47.516328" lon="7.915325">
        <ele>402.401287</ele>
        <time>2021-11-21T19:56:24.269Z</time>
      </trkpt>
      <trkpt lat="47.516391" lon="7.915243">
        <ele>402.324085</ele>
        <time>2021-11-21T19:56:25.303Z</time>
      </trkpt>
      <trkpt lat="47.516544" lon="7.914936">
        <ele>402.080930</ele>
        <time>2021-11-21T19:56:28.519Z</time>
      </trkpt>
      <trkpt lat="47.516569" lon="7.914864">
        <ele>402.027808</ele>
        <time>2021-11-21T19:56:29.256Z</time>
      </trkpt>
      <trkpt lat="47.516590" lon="7.914840">
        <ele>402.002034</ele>
        <time>2021-11-21T19:56:29.558Z</time>
      </trkpt>
      <trkpt lat="47.516626" lon="7.914830">
        <ele>401.966448</ele>
        <time>2021-11-21T19:56:30.018Z</time>
      </trkpt>
      <trkpt lat="47.516662" lon="7.914835">
        <ele>401.931318</ele>
        <time>2021-11-21T19:56:30.457Z</time>
      </trkpt>
      <trkpt lat="47.516748" lon="7.914873">
        <ele>401.844123</ele>
        <time>2021-11-21T19:56:31.542Z</time>
      </trkpt>
      <trkpt lat="47.516806" lon="7.914896">
        <ele>401.785787</ele>
        <time>2021-11-21T19:56:32.254Z</time>
      </trkpt>
      <trkpt lat="47.517140" lon="7.915259">
        <ele>401.383254</ele>
        <time>2021-11-21T19:56:37.379Z</time>
      </trkpt>
      <trkpt lat="47.517281" lon="7.915238">
        <ele>401.245573</ele>
        <time>2021-11-21T19:56:39.114Z</time>
      </trkpt>
      <trkpt lat="47.517688" lon="7.914418">
        <ele>400.577850</ele>
        <time>2021-11-21T19:56:47.426Z</time>
      </trkpt>
      <trkpt lat="47.519421" lon="7.912098">
        <ele>398.110256</ele>
        <time>2021-11-21T19:57:15.744Z</time>
      </trkpt>
      <trkpt lat="47.519720" lon="7.911522">
        <ele>397.610444</ele>
        <time>2021-11-21T19:57:21.625Z</time>
      </trkpt>
      <trkpt lat="47.519891" lon="7.911129">
        <ele>397.288811</ele>
        <time>2021-11-21T19:57:25.421Z</time>
      </trkpt>
      <trkpt lat="47.519997" lon="7.910833">
        <ele>397.058312</ele>
        <time>2021-11-21T19:57:28.065Z</time>
      </trkpt>
      <trkpt lat="47.520493" lon="7.908683">
        <ele>396.408647</ele>
        <time>2021-11-21T19:57:48.321Z</time>
      </trkpt>
      <trkpt lat="47.520738" lon="7.907839">
        <ele>396.260357</ele>
        <time>2021-11-21T19:57:58.826Z</time>
      </trkpt>
      <trkpt lat="47.520733" lon="7.907655">
        <ele>396.198972</ele>
        <time>2021-11-21T19:58:00.436Z</time>
      </trkpt>
      <trkpt lat="47.520551" lon="7.907422">
        <ele>396.076690</ele>
        <time>2021-11-21T19:58:04.486Z</time>
      </trkpt>
      <trkpt lat="47.520506" lon="7.907236">
        <ele>396.008874</ele>
        <time>2021-11-21T19:58:06.167Z</time>
      </trkpt>
      <trkpt lat="47.520515" lon="7.907103">
        <ele>395.962995</ele>
        <time>2021-11-21T19:58:07.929Z</time>
      </trkpt>
      <trkpt lat="47.520528" lon="7.906930">
        <ele>395.903248</ele>
        <time>2021-11-21T19:58:09.619Z</time>
      </trkpt>
      <trkpt lat="47.520566" lon="7.906668">
        <ele>395.811269</ele>
        <time>2021-11-21T19:58:11.897Z</time>
      </trkpt>
      <trkpt lat="47.520678" lon="7.906050">
        <ele>395.591641</ele>
        <time>2021-11-21T19:58:17.792Z</time>
      </trkpt>
      <trkpt lat="47.520989" lon="7.905130">
        <ele>394.747478</ele>
        <time>2021-11-21T19:58:26.134Z</time>
      </trkpt>
      <trkpt lat="47.521297" lon="7.904312">
        <ele>392.937675</ele>
        <time>2021-11-21T19:58:32.874Z</time>
      </trkpt>
      <trkpt lat="47.521792" lon="7.903347">
        <ele>390.595967</ele>
        <time>2021-11-21T19:58:40.998Z</time>
      </trkpt>
      <trkpt lat="47.522013" lon="7.902637">
        <ele>388.598391</ele>
        <time>2021-11-21T19:58:46.175Z</time>
      </trkpt>
      <trkpt lat="47.522038" lon="7.902562">
        <ele>388.366042</ele>
        <time>2021-11-21T19:58:46.698Z</time>
      </trkpt>
      <trkpt lat="47.522065" lon="7.902526">
        <ele>388.216583</ele>
        <time>2021-11-21T19:58:47.030Z</time>
      </trkpt>
      <trkpt lat="47.522132" lon="7.902476">
        <ele>387.907944</ele>
        <time>2021-11-21T19:58:47.772Z</time>
      </trkpt>
      <trkpt lat="47.522260" lon="7.902356">
        <ele>387.284739</ele>
        <time>2021-11-21T19:58:49.255Z</time>
      </trkpt>
      <trkpt lat="47.522554" lon="7.901999">
        <ele>385.720690</ele>
        <time>2021-11-21T19:58:52.908Z</time>
      </trkpt>
      <trkpt lat="47.522688" lon="7.901843">
        <ele>385.019504</ele>
        <time>2021-11-21T19:58:54.505Z</time>
      </trkpt>
      <trkpt lat="47.523013" lon="7.901597">
        <ele>383.518027</ele>
        <time>2021-11-21T19:58:58.022Z</time>
      </trkpt>
      <trkpt lat="47.523036" lon="7.901580">
        <ele>383.412281</ele>
        <time>2021-11-21T19:58:58.281Z</time>
      </trkpt>
      <trkpt lat="47.523102" lon="7.901497">
        <ele>383.056084</ele>
        <time>2021-11-21T19:58:59.197Z</time>
      </trkpt>
      <trkpt lat="47.523340" lon="7.901197">
        <ele>382.335697</ele>
        <time>2021-11-21T19:59:02.252Z</time>
      </trkpt>
      <trkpt lat="47.523433" lon="7.901043">
        <ele>382.077284</ele>
        <time>2021-11-21T19:59:03.645Z</time>
      </trkpt>
      <trkpt lat="47.523567" lon="7.900820">
        <ele>381.703913</ele>
        <time>2021-11-21T19:59:05.742Z</time>
      </trkpt>
      <trkpt lat="47.523620" lon="7.900698">
        <ele>381.522466</ele>
        <time>2021-11-21T19:59:06.839Z</time>
      </trkpt>
      <trkpt lat="47.523648" lon="7.900606">
        <ele>381.396245</ele>
        <time>2021-11-21T19:59:07.529Z</time>
      </trkpt>
      <trkpt lat="47.523739" lon="7.900557">
        <ele>381.216893</ele>
        <time>2021-11-21T19:59:08.600Z</time>
      </trkpt>
      <trkpt lat="47.523878" lon="7.900445">
        <ele>380.923785</ele>
        <time>2021-11-21T19:59:10.515Z</time>
      </trkpt>
      <trkpt lat="47.523957" lon="7.900371">
        <ele>380.750640</ele>
        <time>2021-11-21T19:59:11.560Z</time>
      </trkpt>
      <trkpt lat="47.523989" lon="7.900340">
        <ele>380.679812</ele>
        <time>2021-11-21T19:59:12.036Z</time>
      </trkpt>
      <trkpt lat="47.523945" lon="7.900256">
        <ele>380.546841</ele>
        <time>2021-11-21T19:59:13.160Z</time>
      </trkpt>
      <trkpt lat="47.523890" lon="7.900131">
        <ele>380.360231</ele>
        <time>2021-11-21T19:59:14.496Z</time>
      </trkpt>
      <trkpt lat="47.523861" lon="7.900049">
        <ele>380.244451</ele>
        <time>2021-11-21T19:59:15.347Z</time>
      </trkpt>
      <trkpt lat="47.523896" lon="7.900001">
        <ele>380.156092</ele>
        <time>2021-11-21T19:59:15.909Z</time>
      </trkpt>
      <trkpt lat="47.524309" lon="7.899115">
        <ele>379.479630</ele>
        <time>2021-11-21T19:59:25.783Z</time>
      </trkpt>
      <trkpt lat="47.524360" lon="7.898951">
        <ele>379.483899</ele>
        <time>2021-11-21T19:59:27.486Z</time>
      </trkpt>
      <trkpt lat="47.524617" lon="7.898216">
        <ele>379.503469</ele>
        <time>2021-11-21T19:59:36.696Z</time>
      </trkpt>
      <trkpt lat="47.524834" lon="7.897636">
        <ele>379.519146</ele>
        <time>2021-11-21T19:59:43.885Z</time>
      </trkpt>
      <trkpt lat="47.525518" lon="7.896336">
        <ele>378.382792</ele>
        <time>2021-11-21T19:59:59.970Z</time>
      </trkpt>
      <trkpt lat="47.525590" lon="7.896117">
        <ele>378.146271</ele>
        <time>2021-11-21T20:00:01.608Z</time>
      </trkpt>
      <trkpt lat="47.525622" lon="7.895944">
        <ele>377.972094</ele>
        <time>2021-11-21T20:00:03.736Z</time>
      </trkpt>
      <trkpt lat="47.525631" lon="7.895583">
        <ele>377.621314</ele>
        <time>2021-11-21T20:00:06.124Z</time>
      </trkpt>
      <trkpt lat="47.525631" lon="7.895442">
        <ele>377.484399</ele>
        <time>2021-11-21T20:00:07.860Z</time>
      </trkpt>
      <trkpt lat="47.525603" lon="7.895265">
        <ele>377.307874</ele>
        <time>2021-11-21T20:00:09.208Z</time>
      </trkpt>
      <trkpt lat="47.525725" lon="7.895110">
        <ele>377.076722</ele>
        <time>2021-11-21T20:00:10.729Z</time>
      </trkpt>
      <trkpt lat="47.526257" lon="7.894278">
        <ele>375.041784</ele>
        <time>2021-11-21T20:00:18.925Z</time>
      </trkpt>
      <trkpt lat="47.526335" lon="7.893960">
        <ele>374.403955</ele>
        <time>2021-11-21T20:00:21.258Z</time>
      </trkpt>
      <trkpt lat="47.526401" lon="7.893964">
        <ele>374.219536</ele>
        <time>2021-11-21T20:00:21.894Z</time>
      </trkpt>
      <trkpt lat="47.526451" lon="7.893983">
        <ele>374.075420</ele>
        <time>2021-11-21T20:00:22.627Z</time>
      </trkpt>
      <trkpt lat="47.526504" lon="7.894030">
        <ele>373.902950</ele>
        <time>2021-11-21T20:00:23.296Z</time>
      </trkpt>
      <trkpt lat="47.526709" lon="7.893617">
        <ele>372.936628</ele>
        <time>2021-11-21T20:00:26.722Z</time>
      </trkpt>
      <trkpt lat="47.527011" lon="7.893061">
        <ele>371.738687</ele>
        <time>2021-11-21T20:00:31.727Z</time>
      </trkpt>
      <trkpt lat="47.527498" lon="7.892650">
        <ele>370.870670</ele>
        <time>2021-11-21T20:00:37.800Z</time>
      </trkpt>
      <trkpt lat="47.528003" lon="7.892732">
        <ele>370.083952</ele>
        <time>2021-11-21T20:00:44.050Z</time>
      </trkpt>
      <trkpt lat="47.528331" lon="7.892682">
        <ele>369.573334</ele>
        <time>2021-11-21T20:00:48.318Z</time>
      </trkpt>
      <trkpt lat="47.529235" lon="7.892158">
        <ele>368.413151</ele>
        <time>2021-11-21T20:01:00.017Z</time>
      </trkpt>
      <trkpt lat="47.529695" lon="7.891638">
        <ele>367.805266</ele>
        <time>2021-11-21T20:01:07.071Z</time>
      </trkpt>
      <trkpt lat="47.529714" lon="7.891609">
        <ele>367.776606</ele>
        <time>2021-11-21T20:01:07.333Z</time>
      </trkpt>
      <trkpt lat="47.529972" lon="7.891210">
        <ele>367.384764</ele>
        <time>2021-11-21T20:01:11.759Z</time>
      </trkpt>
      <trkpt lat="47.530322" lon="7.890690">
        <ele>367.210582</ele>
        <time>2021-11-21T20:01:17.903Z</time>
      </trkpt>
      <trkpt lat="47.530606" lon="7.890373">
        <ele>367.174735</ele>
        <time>2021-11-21T20:01:22.611Z</time>
      </trkpt>
      <trkpt lat="47.531076" lon="7.890029">
        <ele>367.121889</ele>
        <time>2021-11-21T20:01:30.314Z</time>
      </trkpt>
      <trkpt lat="47.531265" lon="7.889937">
        <ele>367.101835</ele>
        <time>2021-11-21T20:01:33.381Z</time>
      </trkpt>
      <trkpt lat="47.531560" lon="7.889776">
        <ele>367.070144</ele>
        <time>2021-11-21T20:01:39.034Z</time>
      </trkpt>
      <trkpt lat="47.531843" lon="7.889349">
        <ele>367.627702</ele>
        <time>2021-11-21T20:01:46.617Z</time>
      </trkpt>
      <trkpt lat="47.532011" lon="7.888896">
        <ele>368.166827</ele>
        <time>2021-11-21T20:01:53.814Z</time>
      </trkpt>
      <trkpt lat="47.532288" lon="7.887728">
        <ele>369.458161</ele>
        <time>2021-11-21T20:02:12.692Z</time>
      </trkpt>
      <trkpt lat="47.532505" lon="7.887120">
        <ele>370.185015</ele>
        <time>2021-11-21T20:02:22.979Z</time>
      </trkpt>
      <trkpt lat="47.532650" lon="7.885569">
        <ele>371.865157</ele>
        <time>2021-11-21T20:02:45.741Z</time>
      </trkpt>
      <trkpt lat="47.532658" lon="7.884989">
        <ele>372.487641</ele>
        <time>2021-11-21T20:02:53.928Z</time>
      </trkpt>
      <trkpt lat="47.532670" lon="7.884773">
        <ele>372.705693</ele>
        <time>2021-11-21T20:02:57.231Z</time>
      </trkpt>
      <trkpt lat="47.532699" lon="7.884224">
        <ele>372.786096</ele>
        <time>2021-11-21T20:03:04.346Z</time>
      </trkpt>
      <trkpt lat="47.532713" lon="7.884122">
        <ele>372.801294</ele>
        <time>2021-11-21T20:03:05.510Z</time>
      </trkpt>
      <trkpt lat="47.532859" lon="7.883508">
        <ele>372.896339</ele>
        <time>2021-11-21T20:03:13.121Z</time>
      </trkpt>
      <trkpt lat="47.533014" lon="7.882949">
        <ele>372.984572</ele>
        <time>2021-11-21T20:03:19.341Z</time>
      </trkpt>
      <trkpt lat="47.533374" lon="7.881639">
        <ele>372.116982</ele>
        <time>2021-11-21T20:03:31.053Z</time>
      </trkpt>
      <trkpt lat="47.533606" lon="7.880961">
        <ele>371.020309</ele>
        <time>2021-11-21T20:03:36.848Z</time>
      </trkpt>
      <trkpt lat="47.533892" lon="7.880353">
        <ele>369.951182</ele>
        <time>2021-11-21T20:03:42.165Z</time>
      </trkpt>
      <trkpt lat="47.534616" lon="7.879490">
        <ele>366.295845</ele>
        <time>2021-11-21T20:03:51.335Z</time>
      </trkpt>
      <trkpt lat="47.534908" lon="7.878975">
        <ele>364.063574</ele>
        <time>2021-11-21T20:03:55.537Z</time>
      </trkpt>
      <trkpt lat="47.534946" lon="7.878790">
        <ele>363.421722</ele>
        <time>2021-11-21T20:03:56.813Z</time>
      </trkpt>
      <trkpt lat="47.534825" lon="7.878414">
        <ele>362.039154</ele>
        <time>2021-11-21T20:03:59.340Z</time>
      </trkpt>
      <trkpt lat="47.534778" lon="7.878270">
        <ele>361.508256</ele>
        <time>2021-11-21T20:04:00.491Z</time>
      </trkpt>
      <trkpt lat="47.534855" lon="7.878090">
        <ele>360.800954</ele>
        <time>2021-11-21T20:04:01.742Z</time>
      </trkpt>
      <trkpt lat="47.535088" lon="7.877742">
        <ele>359.169202</ele>
        <time>2021-11-21T20:04:04.837Z</time>
      </trkpt>
      <trkpt lat="47.535322" lon="7.877590">
        <ele>357.907945</ele>
        <time>2021-11-21T20:04:07.334Z</time>
      </trkpt>
      <trkpt lat="47.535551" lon="7.877487">
        <ele>356.726594</ele>
        <time>2021-11-21T20:04:09.488Z</time>
      </trkpt>
      <trkpt lat="47.535635" lon="7.877484">
        <ele>356.311835</ele>
        <time>2021-11-21T20:04:10.425Z</time>
      </trkpt>
      <trkpt lat="47.535770" lon="7.877432">
        <ele>355.623288</ele>
        <time>2021-11-21T20:04:11.677Z</time>
      </trkpt>
      <trkpt lat="47.535851" lon="7.877319">
        <ele>355.074039</ele>
        <time>2021-11-21T20:04:12.707Z</time>
      </trkpt>
      <trkpt lat="47.536444" lon="7.876177">
        <ele>351.002298</ele>
        <time>2021-11-21T20:04:22.086Z</time>
      </trkpt>
      <trkpt lat="47.536632" lon="7.875912">
        <ele>350.466072</ele>
        <time>2021-11-21T20:04:24.735Z</time>
      </trkpt>
      <trkpt lat="47.536757" lon="7.875759">
        <ele>350.131025</ele>
        <time>2021-11-21T20:04:26.682Z</time>
      </trkpt>
      <trkpt lat="47.536921" lon="7.875537">
        <ele>349.671980</ele>
        <time>2021-11-21T20:04:29.249Z</time>
      </trkpt>
      <trkpt lat="47.537182" lon="7.875293">
        <ele>349.034274</ele>
        <time>2021-11-21T20:04:32.959Z</time>
      </trkpt>
      <trkpt lat="47.537261" lon="7.875237">
        <ele>348.853315</ele>
        <time>2021-11-21T20:04:33.920Z</time>
      </trkpt>
      <trkpt lat="47.537716" lon="7.874966">
        <ele>347.840037</ele>
        <time>2021-11-21T20:04:39.809Z</time>
      </trkpt>
      <trkpt lat="47.538278" lon="7.874319">
        <ele>347.107496</ele>
        <time>2021-11-21T20:04:48.284Z</time>
      </trkpt>
      <trkpt lat="47.539222" lon="7.873416">
        <ele>345.997419</ele>
        <time>2021-11-21T20:05:02.730Z</time>
      </trkpt>
      <trkpt lat="47.539678" lon="7.872430">
        <ele>345.997419</ele>
        <time>2021-11-21T20:05:11.811Z</time>
      </trkpt>
      <trkpt lat="47.539841" lon="7.872151">
        <ele>345.997419</ele>
        <time>2021-11-21T20:05:14.579Z</time>
      </trkpt>
      <trkpt lat="47.539930" lon="7.872041">
        <ele>345.997419</ele>
        <time>2021-11-21T20:05:15.776Z</time>
      </trkpt>
      <trkpt lat="47.540034" lon="7.871970">
        <ele>345.997419</ele>
        <time>2021-11-21T20:05:17.043Z</time>
      </trkpt>
      <trkpt lat="47.540216" lon="7.871851">
        <ele>345.997419</ele>
        <time>2021-11-21T20:05:19.222Z</time>
      </trkpt>
      <trkpt lat="47.540265" lon="7.871808">
        <ele>345.997419</ele>
        <time>2021-11-21T20:05:19.827Z</time>
      </trkpt>
      <trkpt lat="47.540463" lon="7.871584">
        <ele>345.997419</ele>
        <time>2021-11-21T20:05:22.613Z</time>
      </trkpt>
      <trkpt lat="47.540693" lon="7.871390">
        <ele>345.997419</ele>
        <time>2021-11-21T20:05:25.484Z</time>
      </trkpt>
      <trkpt lat="47.540894" lon="7.871220">
        <ele>345.997419</ele>
        <time>2021-11-21T20:05:27.993Z</time>
      </trkpt>
      <trkpt lat="47.540933" lon="7.871187">
        <ele>345.997419</ele>
        <time>2021-11-21T20:05:28.467Z</time>
      </trkpt>
      <trkpt lat="47.541033" lon="7.871104">
        <ele>345.997419</ele>
        <time>2021-11-21T20:05:29.795Z</time>
      </trkpt>
    </trkseg>
  </trk>
</gpx>